[[{"header":{"parameterUnit":"m.s-1","parameterCategory":1,"la1":31.0,"la2":29.5877,"lo1":-88.7671,"lo2":-86.6584,"dy":0.0162,"dx":0.0185,"nx":115,"ny":88,"refTime":"2023-05-18T06:00:00:Z","depth":0,"parameterNumber":2,"parameterNumberName":"U-component_of_WINDS"},"data":[0.0,0.0,0.0,0.0,0.0,0.0,0.0,0.0,0.0,0.0,0.0,0.0,0.0,0.0,0.0,0.0,0.0,0.0,0.0,0.0,0.0,0.0,0.0,0.0,0.0,0.0,0.0,0.0,0.0,0.0,0.0,0.0,0.0,0.0,0.0,0.0,0.0,0.0,0.0,0.0,0.0,0.0,0.0,0.0,0.0,0.0,0.0,0.0,0.0,0.0,0.0,0.0,0.0,0.0,0.0,0.0,0.0,0.0,0.0,0.0,0.0,0.0,0.0,0.0,0.0,0.0,0.0,0.0,0.0,0.0,0.0,0.0,0.0,0.0,0.0,0.0,0.0,0.0,0.0,0.0,0.0,0.0,0.0,0.0,0.0,0.0,0.0,0.0,0.0,0.0,0.0,0.0,0.0,0.0,0.0,0.0,0.0,0.0,0.0,0.0,0.0,0.0,0.0,0.0,0.0,0.0,0.0,0.0,0.0,0.0,0.0,0.0,0.0,0.0,0.0,0.0,0.0,0.0,0.0,0.0,0.0,0.0,0.0,0.0,0.0,0.0,0.0,0.0,0.0,0.0,0.0,0.0,0.0,0.0,0.0,0.0,0.0,0.0,0.0,0.0,0.0,0.0,0.0,0.0,0.0,0.0,0.0,0.0,0.0,0.0,0.0,0.0,0.0,0.0,0.0,0.0,0.0,0.0,0.0,0.0,0.0,0.0,0.0,0.0,0.0,0.0,0.0,0.0,0.0,0.0,0.0,0.0,0.0,0.0,0.0,0.0,0.0,0.0,0.0,0.0,0.0,0.0,0.0,0.0,0.0,0.0,0.0,0.0,0.0,0.0,0.0,0.0,0.0,0.0,0.0,0.0,0.0,0.0,0.0,0.0,0.0,0.0,0.0,0.0,0.0,0.0,0.0,0.0,0.0,0.0,0.0,0.0,0.0,0.0,0.0,0.0,0.0,0.0,0.0,0.0,0.0,0.0,0.0,0.0,0.0,0.0,0.0,0.0,0.0,0.0,0.0,0.0,0.0,0.0,0.0,0.0,0.0,0.0,0.0,0.0,0.0,0.0,0.0,0.0,0.0,0.0,0.0,0.0,0.0,0.0,0.0,0.0,0.0,0.0,0.0,0.0,0.0,0.0,0.0,0.0,0.0,0.0,0.0,0.0,0.0,0.0,0.0,0.0,0.0,0.0,0.0,0.0,0.0,0.0,0.0,0.0,0.0,0.0,0.0,0.0,0.0,0.0,0.0,0.0,0.0,0.0,0.0,0.0,0.0,0.0,0.0,0.0,0.0,0.0,0.0,0.0,0.0,0.0,0.0,0.0,0.0,0.0,0.0,0.0,0.0,0.0,0.0,0.0,0.0,0.0,0.0,0.0,0.0,0.0,0.0,0.0,0.0,0.0,0.0,0.0,0.0,0.0,0.0,0.0,0.0,0.0,0.0,0.0,0.0,0.0,0.0,0.0,0.0,0.0,0.0,0.0,0.0,0.0,0.0,0.0,0.0,0.0,0.0,0.0,0.0,0.0,0.0,0.0,0.0,0.0,0.0,0.0,0.0,0.0,0.0,0.0,0.0,0.0,0.0,0.0,0.0,0.0,0.0,0.0,0.0,0.0,0.0,0.0,0.0,0.0,0.0,0.0,0.0,0.0,0.0,0.0,0.0,0.0,0.0,0.0,0.0,0.0,0.0,0.0,0.0,0.0,0.0,0.0,0.0,0.0,0.0,0.0,0.0,0.0,0.0,0.0,0.0,0.0,0.0,0.0,0.0,0.0,0.0,0.0,0.0,0.0,0.0,0.0,0.0,0.0,0.0,0.0,0.0,0.0,0.0,0.0,0.0,0.0,0.0,0.0,0.0,0.0,0.0,0.0,0.0,0.0,0.0,0.0,0.0,0.0,0.0,0.0,0.0,0.0,0.0,0.0,0.0,0.0,0.0,0.0,0.0,0.0,0.0,0.0,0.0,0.0,0.0,0.0,0.0,0.0,0.0,0.0,0.0,0.0,0.0,0.0,0.0,0.0,0.0,0.0,0.0,0.0,0.0,0.0,0.0,0.0,0.0,0.0,0.0,0.0,0.0,0.0,0.0,0.0,0.0,0.0,0.0,0.0,0.0,0.0,0.0,0.0,0.0,0.0,0.0,0.0,0.0,0.0,0.0,0.0,0.0,0.0,0.0,0.0,0.0,0.0,0.0,0.0,0.0,0.0,0.0,0.0,0.0,0.0,0.0,0.0,0.0,0.0,0.0,0.0,0.0,0.0,0.0,0.0,0.0,0.0,0.0,0.0,0.0,0.0,0.0,0.0,0.0,0.0,0.0,0.0,0.0,0.0,0.0,0.0,0.0,0.0,0.0,0.0,0.0,0.0,0.0,0.0,0.0,0.0,0.0,0.0,0.0,0.0,0.0,0.0,0.0,0.0,0.0,0.0,0.0,0.0,0.0,0.0,0.0,0.0,0.0,0.0,0.0,0.0,0.0,0.0,0.0,0.0,0.0,0.0,0.0,0.0,0.0,0.0,0.0,0.0,0.0,0.0,0.0,0.0,0.0,0.0,0.0,0.0,0.0,0.0,0.0,0.0,0.0,0.0,0.0,0.0,0.0,0.0,0.0,0.0,0.0,0.0,0.0,0.0,0.0,0.0,0.0,0.0,0.0,0.0,0.0,0.0,0.0,0.0,0.0,0.0,0.0,0.0,0.0,0.0,0.0,0.0,0.0,0.0,0.0,0.0,0.0,0.0,0.0,0.0,0.0,0.0,0.0,0.0,0.0,0.0,0.0,0.0,0.0,0.0,0.0,0.0,0.0,0.0,0.0,0.0,0.0,0.0,0.0,0.0,0.0,0.0,0.0,0.0,0.0,0.0,0.0,0.0,0.0,0.0,0.0,0.0,0.0,0.0,0.0,0.0,0.0,0.0,0.0,0.0,0.0,0.0,0.0,0.0,0.0,0.0,0.0,0.0,0.0,0.0,0.0,0.0,0.0,0.0,0.0,0.0,0.0,0.0,0.0,0.0,0.0,0.0,0.0,0.0,0.0,0.0,0.0,0.0,0.0,0.0,0.0,0.0,0.0,0.0,0.0,0.0,0.0,0.0,0.0,0.0,0.0,0.0,0.0,0.0,0.0,0.0,0.0,0.0,0.0,0.0,0.0,0.0,0.0,0.0,0.0,0.0,0.0,0.0,0.0,0.0,0.0,0.0,0.0,0.0,0.0,0.0,0.0,0.0,0.0,0.0,0.0,0.0,0.0,0.0,0.0,0.0,0.0,0.0,0.0,0.0,0.0,0.0,0.0,0.0,0.0,0.0,0.0,0.0,0.0,0.0,0.0,0.0,0.0,0.0,0.0,0.0,0.0,0.0,0.0,0.0,0.0,0.0,0.0,0.0,0.0,0.0,0.0,0.0,0.0,0.0,0.0,0.0,0.0,0.0,0.0,0.0,0.0,0.0,0.0,0.0,0.0,0.0,0.0,0.0,0.0,0.0,0.0,0.0,0.0,0.0,0.0,0.0,0.0,0.0,0.0,0.0,0.0,0.0,0.0,0.0,0.0,0.0,0.0,0.0,0.0,0.0,0.0,0.0,0.0,0.0,0.0,0.0,0.0,0.0,0.0,0.0,0.0,0.0,0.0,0.0,0.0,0.0,0.0,0.0,0.0,0.0,0.0,0.0,0.0,0.0,0.0,0.0,0.0,0.0,0.0,0.0,0.0,0.0,0.0,0.0,0.0,0.0,0.0,0.0,0.0,0.0,0.0,0.0,0.0,0.0,0.0,0.0,0.0,0.0,0.0,0.0,0.0,0.0,0.0,0.0,0.0,0.0,0.0,0.0,0.0,0.0,0.0,0.0,0.0,0.0,0.0,0.0,0.0,0.0,0.0,0.0,0.0,0.0,0.0,0.0,0.0,0.0,0.0,0.0,0.0,0.0,0.0,0.0,0.0,0.0,0.0,0.0,0.0,0.0,0.0,0.0,0.0,0.0,0.0,0.0,0.0,0.0,0.0,0.0,0.0,0.0,0.0,0.0,0.0,0.0,0.0,0.0,0.0,0.0,0.0,0.0,0.0,0.0,0.0,0.0,0.0,0.0,0.0,0.0,0.0,0.0,0.0,0.0,0.0,0.0,0.0,0.0,0.0,0.0,0.0,0.0,0.0,0.0,0.0,0.0,0.0,0.0,0.0,0.0,0.0,0.0,0.0,0.0,0.0,0.0,0.0,0.0,0.0,0.0,0.0,0.0,0.0,0.0,0.0,0.0,0.0,0.0,0.0,0.0,3.5776,0.0,0.0,0.0,0.0,0.0,0.0,0.0,0.0,0.0,0.0,0.0,0.0,0.0,0.0,0.0,0.0,0.0,0.0,0.0,0.0,0.0,0.0,0.0,0.0,0.0,0.0,0.0,0.0,0.0,0.0,0.0,0.0,0.0,0.0,0.0,0.0,0.0,0.0,0.0,0.0,0.0,0.0,0.0,0.0,0.0,0.0,0.0,0.0,0.0,0.0,0.0,0.0,0.0,0.0,0.0,0.0,0.0,0.0,0.0,0.0,0.0,0.0,0.0,0.0,0.0,0.0,0.0,0.0,0.0,0.0,0.0,0.0,0.0,0.0,0.0,0.0,0.0,0.0,0.0,0.0,0.0,0.0,0.0,0.0,0.0,0.0,0.0,0.0,0.0,0.0,0.0,0.0,0.0,0.0,0.0,0.0,0.0,0.0,0.0,0.0,0.0,0.0,0.0,0.0,0.0,0.0,0.0,0.0,0.0,0.0,3.6315,3.5553,3.7137,3.7214,3.5592,0.0,0.0,0.0,0.0,0.0,0.0,0.0,0.0,0.0,0.0,0.0,0.0,0.0,0.0,0.0,0.0,0.0,0.0,0.0,0.0,0.0,0.0,0.0,0.0,0.0,0.0,0.0,0.0,0.0,0.0,0.0,0.0,0.0,0.0,0.0,0.0,0.0,0.0,0.0,0.0,0.0,0.0,0.0,0.0,0.0,0.0,0.0,0.0,0.0,0.0,0.0,0.0,0.0,0.0,0.0,0.0,0.0,0.0,0.0,0.0,0.0,0.0,0.0,0.0,0.0,0.0,0.0,0.0,0.0,0.0,0.0,0.0,0.0,0.0,0.0,0.0,0.0,0.0,0.0,0.0,0.0,0.0,0.0,0.0,0.0,0.0,0.0,0.0,0.0,0.0,0.0,0.0,0.0,0.0,0.0,0.0,0.0,0.0,0.0,0.0,0.0,0.0,0.0,0.0,0.0,0.0,0.0,0.0,0.0,0.0,0.0,0.0,3.6766,3.6733,3.5258,0.0,0.0,0.0,0.0,0.0,0.0,0.0,0.0,0.0,0.0,0.0,0.0,0.0,0.0,0.0,0.0,0.0,0.0,0.0,0.0,0.0,0.0,0.0,0.0,0.0,0.0,0.0,0.0,0.0,0.0,0.0,0.0,0.0,0.0,0.0,0.0,0.0,0.0,0.0,0.0,0.0,0.0,0.0,0.0,0.0,0.0,0.0,0.0,0.0,0.0,0.0,0.0,0.0,0.0,0.0,0.0,0.0,0.0,0.0,0.0,0.0,0.0,0.0,0.0,0.0,0.0,0.0,0.0,0.0,0.0,0.0,0.0,0.0,0.0,0.0,0.0,0.0,0.0,0.0,0.0,0.0,0.0,0.0,0.0,0.0,0.0,0.0,0.0,0.0,0.0,0.0,0.0,0.0,0.0,0.0,0.0,0.0,0.0,0.0,0.0,0.0,0.0,0.0,0.0,0.0,0.0,0.0,0.0,0.0,0.0,3.5559,3.5502,3.5636,0.0,3.4327,0.0,0.0,0.0,0.0,0.0,0.0,0.0,0.0,0.0,0.0,0.0,0.0,0.0,0.0,0.0,0.0,0.0,0.0,0.0,0.0,0.0,0.0,0.0,0.0,0.0,0.0,0.0,0.0,0.0,0.0,0.0,0.0,0.0,0.0,0.0,0.0,0.0,0.0,0.0,0.0,0.0,0.0,0.0,0.0,0.0,0.0,0.0,0.0,0.0,0.0,0.0,0.0,0.0,0.0,0.0,0.0,0.0,0.0,0.0,0.0,0.0,0.0,0.0,0.0,0.0,0.0,0.0,0.0,0.0,0.0,0.0,0.0,0.0,0.0,0.0,0.0,0.0,0.0,0.0,0.0,0.0,0.0,0.0,0.0,0.0,0.0,0.0,0.0,0.0,0.0,0.0,0.0,0.0,0.0,0.0,0.0,0.0,0.0,0.0,0.0,0.0,0.0,0.0,0.0,0.0,0.0,0.0,0.0,0.0,0.0,3.4212,3.4706,3.4732,3.4103,0.0,0.0,0.0,0.0,0.0,0.0,0.0,0.0,0.0,0.0,0.0,0.0,0.0,0.0,0.0,0.0,0.0,0.0,0.0,0.0,0.0,0.0,0.0,0.0,0.0,0.0,0.0,0.0,0.0,0.0,0.0,0.0,0.0,0.0,0.0,0.0,0.0,0.0,0.0,0.0,0.0,0.0,0.0,0.0,0.0,0.0,0.0,0.0,0.0,0.0,0.0,0.0,0.0,0.0,0.0,0.0,0.0,0.0,0.0,0.0,0.0,0.0,0.0,0.0,0.0,0.0,0.0,0.0,0.0,0.0,0.0,0.0,0.0,0.0,0.0,0.0,0.0,0.0,0.0,0.0,0.0,0.0,0.0,0.0,0.0,0.0,0.0,0.0,0.0,0.0,0.0,0.0,0.0,0.0,0.0,0.0,0.0,0.0,0.0,0.0,0.0,0.0,0.0,0.0,0.0,0.0,0.0,0.0,0.0,0.0,3.3256,3.3673,3.4475,3.4308,3.3615,3.2422,0.0,0.0,0.0,0.0,0.0,0.0,0.0,0.0,0.0,0.0,0.0,0.0,0.0,0.0,0.0,0.0,0.0,0.0,0.0,0.0,0.0,0.0,0.0,0.0,0.0,0.0,0.0,0.0,0.0,0.0,0.0,0.0,0.0,0.0,0.0,0.0,0.0,0.0,0.0,0.0,0.0,0.0,0.0,0.0,0.0,0.0,0.0,0.0,0.0,0.0,0.0,0.0,0.0,0.0,0.0,0.0,0.0,0.0,0.0,0.0,0.0,0.0,0.0,0.0,0.0,0.0,0.0,0.0,0.0,0.0,0.0,0.0,0.0,0.0,0.0,0.0,0.0,0.0,0.0,0.0,0.0,0.0,0.0,0.0,0.0,0.0,0.0,0.0,0.0,0.0,0.0,0.0,0.0,0.0,0.0,0.0,0.0,0.0,0.0,0.0,0.0,0.0,0.0,0.0,0.0,0.0,0.0,0.0,3.4077,3.4129,3.4533,3.531,3.4616,3.4154,0.0,0.0,0.0,0.0,0.0,0.0,0.0,0.0,0.0,0.0,0.0,0.0,0.0,0.0,0.0,0.0,0.0,0.0,0.0,0.0,0.0,0.0,0.0,0.0,0.0,0.0,0.0,0.0,0.0,0.0,0.0,0.0,0.0,0.0,0.0,0.0,0.0,0.0,0.0,0.0,0.0,0.0,0.0,0.0,0.0,0.0,0.0,0.0,0.0,0.0,0.0,0.0,0.0,0.0,0.0,0.0,0.0,0.0,0.0,0.0,0.0,0.0,0.0,0.0,0.0,0.0,0.0,0.0,0.0,0.0,0.0,0.0,0.0,0.0,0.0,0.0,0.0,0.0,0.0,0.0,0.0,0.0,0.0,0.0,0.0,0.0,0.0,0.0,0.0,0.0,0.0,0.0,0.0,0.0,0.0,0.0,0.0,0.0,0.0,0.0,0.0,0.0,0.0,0.0,0.0,0.0,0.0,0.0,0.0,3.2613,3.3685,3.4096,3.3801,3.3993,3.3824,0.0,0.0,0.0,0.0,0.0,0.0,0.0,0.0,0.0,0.0,0.0,0.0,0.0,0.0,0.0,0.0,0.0,0.0,0.0,0.0,0.0,0.0,0.0,0.0,0.0,0.0,0.0,0.0,0.0,0.0,0.0,0.0,0.0,0.0,0.0,0.0,0.0,0.0,0.0,0.0,0.0,0.0,0.0,0.0,0.0,0.0,0.0,0.0,0.0,0.0,0.0,0.0,0.0,0.0,0.0,0.0,0.0,0.0,0.0,0.0,0.0,0.0,0.0,0.0,0.0,0.0,0.0,0.0,0.0,0.0,0.0,0.0,0.0,0.0,0.0,0.0,0.0,0.0,0.0,0.0,0.0,0.0,0.0,0.0,0.0,0.0,0.0,0.0,0.0,0.0,0.0,0.0,0.0,0.0,0.0,0.0,0.0,0.0,0.0,0.0,0.0,0.0,0.0,0.0,0.0,0.0,0.0,0.0,0.0,3.248,0.0,3.4268,3.3698,3.4141,3.4106,0.0,0.0,0.0,0.0,0.0,0.0,0.0,0.0,0.0,0.0,0.0,0.0,0.0,0.0,0.0,0.0,0.0,0.0,0.0,0.0,0.0,0.0,0.0,0.0,0.0,0.0,0.0,0.0,0.0,0.0,0.0,0.0,0.0,0.0,0.0,0.0,0.0,0.0,0.0,0.0,0.0,0.0,0.0,0.0,0.0,0.0,0.0,0.0,0.0,0.0,0.0,0.0,0.0,0.0,0.0,0.0,0.0,0.0,0.0,0.0,0.0,0.0,0.0,0.0,0.0,0.0,0.0,0.0,0.0,0.0,0.0,0.0,0.0,0.0,0.0,0.0,0.0,0.0,0.0,0.0,0.0,0.0,0.0,0.0,0.0,0.0,0.0,0.0,0.0,0.0,0.0,0.0,0.0,0.0,0.0,0.0,0.0,0.0,0.0,0.0,0.0,0.0,0.0,0.0,0.0,0.0,0.0,0.0,3.2538,3.4049,3.4745,3.5124,3.5372,3.5143,3.5136,0.0,0.0,0.0,0.0,0.0,0.0,0.0,0.0,0.0,0.0,0.0,0.0,0.0,0.0,0.0,0.0,0.0,0.0,0.0,0.0,0.0,0.0,0.0,0.0,0.0,0.0,0.0,0.0,0.0,0.0,0.0,0.0,0.0,0.0,0.0,0.0,0.0,0.0,0.0,0.0,0.0,0.0,0.0,0.0,0.0,0.0,0.0,0.0,0.0,0.0,0.0,0.0,0.0,0.0,0.0,0.0,0.0,0.0,0.0,0.0,0.0,0.0,0.0,0.0,0.0,0.0,0.0,0.0,0.0,0.0,0.0,0.0,0.0,0.0,0.0,0.0,0.0,0.0,0.0,0.0,0.0,0.0,0.0,0.0,0.0,0.0,0.0,0.0,0.0,0.0,0.0,0.0,0.0,0.0,0.0,0.0,0.0,0.0,0.0,0.0,0.0,0.0,0.0,0.0,0.0,0.0,0.0,0.0,0.0,3.5104,3.5109,3.5165,3.5345,3.5187,3.5018,0.0,0.0,0.0,0.0,0.0,0.0,0.0,0.0,0.0,0.0,0.0,0.0,0.0,0.0,0.0,0.0,0.0,0.0,0.0,0.0,0.0,0.0,0.0,0.0,0.0,0.0,0.0,0.0,0.0,0.0,0.0,0.0,0.0,0.0,0.0,0.0,0.0,0.0,0.0,0.0,0.0,0.0,0.0,0.0,0.0,0.0,0.0,0.0,0.0,0.0,0.0,0.0,0.0,0.0,0.0,0.0,0.0,0.0,0.0,0.0,0.0,0.0,0.0,0.0,0.0,0.0,0.0,0.0,0.0,0.0,0.0,0.0,0.0,0.0,0.0,0.0,0.0,0.0,0.0,0.0,0.0,0.0,0.0,0.0,0.0,0.0,0.0,0.0,0.0,0.0,0.0,0.0,0.0,0.0,0.0,0.0,0.0,0.0,0.0,0.0,0.0,0.0,0.0,0.0,0.0,0.0,0.0,0.0,0.0,3.5336,3.5011,3.4943,3.5152,3.5018,3.4832,3.4732,0.0,0.0,0.0,0.0,0.0,0.0,0.0,0.0,0.0,0.0,0.0,0.0,0.0,0.0,0.0,0.0,0.0,0.0,0.0,0.0,0.0,0.0,0.0,0.0,0.0,0.0,0.0,0.0,0.0,0.0,0.0,0.0,0.0,0.0,0.0,0.0,0.0,0.0,0.0,0.0,0.0,0.0,0.0,0.0,0.0,0.0,0.0,0.0,0.0,0.0,0.0,0.0,0.0,0.0,0.0,0.0,0.0,0.0,0.0,0.0,0.0,0.0,0.0,0.0,0.0,0.0,0.0,0.0,0.0,0.0,0.0,0.0,0.0,0.0,0.0,0.0,0.0,0.0,0.0,0.0,0.0,0.0,0.0,0.0,0.0,0.0,0.0,0.0,0.0,0.0,0.0,0.0,0.0,0.0,0.0,0.0,0.0,0.0,0.0,0.0,0.0,0.0,0.0,0.0,0.0,0.0,0.0,0.0,3.4981,3.4588,3.4548,3.4888,3.4732,3.4691,0.0,0.0,0.0,0.0,0.0,0.0,0.0,0.0,0.0,0.0,0.0,0.0,0.0,0.0,0.0,0.0,0.0,0.0,0.0,0.0,0.0,0.0,0.0,0.0,0.0,0.0,0.0,0.0,0.0,0.0,0.0,0.0,0.0,0.0,0.0,0.0,0.0,0.0,0.0,0.0,0.0,0.0,0.0,0.0,0.0,0.0,0.0,0.0,0.0,0.0,0.0,0.0,0.0,0.0,0.0,0.0,0.0,0.0,0.0,0.0,0.0,0.0,0.0,0.0,0.0,0.0,0.0,0.0,0.0,0.0,0.0,0.0,0.0,0.0,0.0,0.0,0.0,0.0,0.0,0.0,0.0,0.0,0.0,0.0,0.0,0.0,0.0,0.0,0.0,0.0,0.0,0.0,0.0,0.0,0.0,0.0,0.0,0.0,0.0,0.0,0.0,0.0,0.0,0.0,0.0,0.0,0.0,0.0,0.0,3.467,3.439,3.4435,3.4812,3.4771,3.4728,0.0,0.0,0.0,0.0,0.0,0.0,0.0,0.0,0.0,0.0,0.0,0.0,0.0,0.0,0.0,0.0,0.0,0.0,0.0,0.0,0.0,0.0,0.0,0.0,0.0,0.0,0.0,0.0,0.0,0.0,0.0,0.0,0.0,0.0,0.0,0.0,0.0,0.0,0.0,0.0,0.0,0.0,0.0,0.0,0.0,0.0,0.0,0.0,0.0,0.0,0.0,0.0,0.0,0.0,0.0,0.0,0.0,0.0,0.0,0.0,0.0,0.0,0.0,0.0,0.0,0.0,0.0,0.0,0.0,0.0,0.0,0.0,0.0,0.0,0.0,0.0,0.0,0.0,0.0,0.0,0.0,0.0,0.0,0.0,0.0,0.0,0.0,0.0,0.0,0.0,0.0,0.0,0.0,0.0,0.0,0.0,0.0,0.0,0.0,0.0,0.0,0.0,0.0,0.0,0.0,0.0,0.0,0.0,3.3868,3.4293,3.4245,3.4298,3.4526,3.4586,3.4645,0.0,0.0,0.0,0.0,0.0,0.0,0.0,0.0,0.0,0.0,0.0,0.0,0.0,0.0,0.0,0.0,0.0,0.0,0.0,0.0,0.0,0.0,0.0,0.0,0.0,0.0,0.0,0.0,0.0,0.0,0.0,0.0,0.0,0.0,0.0,0.0,0.0,0.0,0.0,0.0,0.0,0.0,0.0,0.0,0.0,0.0,0.0,0.0,0.0,0.0,0.0,0.0,0.0,0.0,0.0,0.0,0.0,0.0,0.0,0.0,0.0,0.0,0.0,0.0,0.0,0.0,0.0,0.0,0.0,0.0,0.0,0.0,0.0,0.0,0.0,0.0,0.0,0.0,0.0,0.0,0.0,0.0,0.0,0.0,0.0,0.0,0.0,0.0,0.0,0.0,0.0,0.0,0.0,0.0,0.0,0.0,0.0,0.0,0.0,0.0,0.0,0.0,0.0,0.0,0.0,0.0,0.0,0.0,3.3235,3.385,3.4067,3.4124,3.4148,3.4293,3.4517,0.0,0.0,0.0,0.0,0.0,0.0,0.0,0.0,0.0,0.0,0.0,0.0,0.0,0.0,0.0,0.0,0.0,0.0,0.0,0.0,0.0,0.0,0.0,0.0,0.0,0.0,0.0,0.0,0.0,0.0,0.0,0.0,0.0,0.0,0.0,0.0,0.0,0.0,0.0,0.0,0.0,0.0,0.0,0.0,0.0,0.0,0.0,0.0,0.0,0.0,0.0,0.0,0.0,0.0,0.0,0.0,0.0,0.0,0.0,0.0,0.0,0.0,0.0,0.0,0.0,0.0,0.0,0.0,0.0,0.0,0.0,0.0,0.0,0.0,0.0,0.0,0.0,0.0,0.0,0.0,0.0,0.0,0.0,0.0,0.0,0.0,0.0,0.0,0.0,0.0,0.0,0.0,0.0,0.0,0.0,0.0,0.0,0.0,0.0,0.0,0.0,0.0,0.0,0.0,0.0,0.0,0.0,0.0,3.292,3.3652,3.3698,3.3726,3.3726,3.4173,3.4454,0.0,0.0,0.0,0.0,0.0,0.0,0.0,0.0,0.0,0.0,0.0,0.0,0.0,0.0,0.0,0.0,0.0,0.0,0.0,0.0,0.0,0.0,0.0,0.0,0.0,0.0,0.0,0.0,0.0,0.0,0.0,0.0,0.0,0.0,0.0,0.0,0.0,0.0,0.0,0.0,0.0,0.0,0.0,0.0,0.0,0.0,0.0,0.0,2.4318,0.0,0.0,0.0,0.0,0.0,0.0,0.0,0.0,0.0,0.0,0.0,0.0,0.0,0.0,0.0,0.0,0.0,0.0,0.0,0.0,0.0,0.0,0.0,0.0,0.0,0.0,0.0,0.0,0.0,0.0,0.0,0.0,0.0,0.0,0.0,0.0,0.0,0.0,0.0,0.0,0.0,0.0,0.0,0.0,0.0,0.0,0.0,0.0,0.0,0.0,0.0,0.0,0.0,0.0,0.0,0.0,0.0,0.0,0.0,3.2627,3.3379,3.353,3.3605,3.3605,3.3868,3.4148,0.0,0.0,0.0,0.0,0.0,0.0,0.0,0.0,0.0,0.0,0.0,0.0,0.0,0.0,0.0,0.0,0.0,0.0,0.0,0.0,0.0,0.0,0.0,0.0,0.0,0.0,0.0,0.0,0.0,0.0,0.0,0.0,0.0,0.0,0.0,0.0,0.0,0.0,0.0,0.0,0.0,0.0,0.0,0.0,0.0,0.0,0.0,0.0,0.0,0.0,0.0,0.0,0.0,0.0,0.0,0.0,0.0,0.0,0.0,0.0,0.0,0.0,0.0,0.0,0.0,0.0,0.0,0.0,0.0,0.0,0.0,0.0,0.0,0.0,0.0,0.0,0.0,0.0,0.0,0.0,0.0,0.0,0.0,0.0,0.0,0.0,0.0,0.0,0.0,0.0,0.0,0.0,0.0,0.0,0.0,0.0,0.0,0.0,0.0,0.0,0.0,0.0,0.0,0.0,0.0,0.0,0.0,3.1562,3.227,3.3124,3.3368,3.3491,3.3491,3.3502,3.3588,3.3788,0.0,0.0,0.0,0.0,0.0,0.0,0.0,0.0,0.0,0.0,0.0,0.0,0.0,0.0,0.0,0.0,0.0,0.0,0.0,0.0,0.0,0.0,0.0,0.0,0.0,0.0,0.0,0.0,0.0,0.0,0.0,0.0,0.0,0.0,0.0,0.0,0.0,0.0,2.2998,2.3054,0.0,0.0,0.0,0.0,0.0,0.0,0.0,0.0,2.1467,0.0,0.0,0.0,0.0,0.0,0.0,0.0,0.0,0.0,0.0,0.0,0.0,0.0,0.0,0.0,0.0,0.0,0.0,0.0,0.0,0.0,0.0,0.0,0.0,0.0,0.0,0.0,0.0,0.0,0.0,0.0,0.0,0.0,0.0,0.0,0.0,0.0,0.0,0.0,0.0,0.0,0.0,0.0,0.0,0.0,0.0,0.0,0.0,0.0,0.0,0.0,0.0,0.0,0.0,0.0,0.0,3.0563,3.0724,3.1446,3.2894,3.3011,3.3011,3.3024,3.3011,3.2841,3.249,0.0,0.0,0.0,0.0,0.0,0.0,0.0,0.0,0.0,0.0,0.0,0.0,0.0,0.0,0.0,0.0,0.0,0.0,0.0,0.0,0.0,0.0,0.0,0.0,0.0,0.0,0.0,0.0,0.0,0.0,0.0,0.0,0.0,0.0,0.0,0.0,0.0,0.0,0.0,2.3124,2.2936,0.0,0.0,0.0,0.0,0.0,0.0,0.0,0.0,2.1083,0.0,0.0,0.0,0.0,0.0,0.0,0.0,0.0,0.0,0.0,0.0,0.0,0.0,0.0,0.0,0.0,0.0,0.0,0.0,0.0,0.0,0.0,0.0,0.0,0.0,0.0,0.0,0.0,0.0,0.0,0.0,0.0,0.0,0.0,0.0,0.0,0.0,0.0,0.0,0.0,0.0,0.0,0.0,0.0,0.0,0.0,0.0,0.0,0.0,0.0,0.0,0.0,0.0,0.0,0.0,3.0386,3.1016,3.178,3.2702,3.2737,3.277,3.2884,3.2916,3.2572,0.0,0.0,0.0,0.0,0.0,0.0,0.0,0.0,0.0,0.0,0.0,0.0,0.0,0.0,0.0,0.0,0.0,0.0,0.0,0.0,0.0,0.0,0.0,0.0,0.0,0.0,0.0,0.0,0.0,0.0,0.0,0.0,0.0,0.0,0.0,0.0,0.0,0.0,0.0,0.0,2.2508,2.2146,2.2105,0.0,0.0,0.0,0.0,0.0,0.0,1.9959,1.9826,0.0,0.0,0.0,0.0,0.0,0.0,0.0,0.0,0.0,0.0,0.0,0.0,0.0,0.0,0.0,0.0,0.0,0.0,0.0,0.0,0.0,0.0,0.0,0.0,0.0,0.0,0.0,0.0,0.0,0.0,0.0,0.0,0.0,0.0,0.0,0.0,0.0,0.0,0.0,0.0,0.0,0.0,0.0,0.0,0.0,0.0,0.0,0.0,0.0,0.0,0.0,0.0,0.0,0.0,0.0,3.0302,3.1352,3.2092,3.2422,3.2506,3.2606,3.2705,3.2705,3.2293,0.0,0.0,0.0,0.0,0.0,0.0,0.0,0.0,0.0,0.0,0.0,0.0,0.0,0.0,0.0,0.0,0.0,0.0,0.0,0.0,0.0,0.0,0.0,0.0,0.0,0.0,0.0,0.0,0.0,0.0,0.0,0.0,0.0,0.0,0.0,0.0,0.0,0.0,0.0,0.0,0.0,2.1312,2.1187,2.0826,0.0,0.0,0.0,0.0,1.9132,1.8969,0.0,0.0,0.0,0.0,0.0,0.0,0.0,0.0,0.0,0.0,0.0,0.0,0.0,0.0,0.0,0.0,0.0,0.0,0.0,0.0,0.0,0.0,0.0,0.0,0.0,0.0,0.0,0.0,0.0,0.0,0.0,0.0,0.0,0.0,0.0,0.0,0.0,0.0,0.0,0.0,0.0,0.0,0.0,0.0,0.0,0.0,0.0,0.0,0.0,0.0,0.0,0.0,0.0,0.0,0.0,0.0,3.0201,3.0935,3.1533,3.194,3.2231,3.2249,3.2038,3.2002,3.1497,0.0,0.0,0.0,0.0,0.0,0.0,0.0,0.0,0.0,0.0,0.0,0.0,0.0,0.0,0.0,0.0,0.0,0.0,0.0,0.0,0.0,0.0,0.0,0.0,0.0,0.0,0.0,0.0,0.0,0.0,0.0,0.0,0.0,0.0,0.0,0.0,0.0,0.0,0.0,0.0,0.0,2.1178,2.1118,2.0373,2.0002,0.0,0.0,1.9515,1.9899,1.951,0.0,0.0,0.0,0.0,0.0,0.0,0.0,0.0,0.0,0.0,0.0,0.0,0.0,0.0,0.0,0.0,0.0,0.0,0.0,0.0,0.0,0.0,0.0,0.0,0.0,0.0,0.0,0.0,0.0,0.0,0.0,0.0,0.0,0.0,0.0,0.0,0.0,0.0,0.0,0.0,0.0,0.0,0.0,0.0,0.0,0.0,0.0,0.0,0.0,0.0,0.0,0.0,0.0,0.0,0.0,2.9209,2.9534,3.0468,3.1121,3.144,3.1562,3.1603,3.1603,3.162,3.1131,0.0,0.0,0.0,0.0,0.0,0.0,0.0,0.0,0.0,0.0,0.0,0.0,0.0,0.0,0.0,0.0,0.0,0.0,0.0,0.0,0.0,0.0,0.0,0.0,0.0,0.0,0.0,0.0,0.0,0.0,0.0,0.0,0.0,0.0,0.0,0.0,0.0,0.0,0.0,0.0,0.0,0.0,1.9959,1.9105,0.0,0.0,0.0,1.8126,1.789,0.0,0.0,0.0,0.0,0.0,0.0,0.0,0.0,0.0,0.0,0.0,0.0,0.0,0.0,0.0,0.0,0.0,0.0,0.0,0.0,0.0,0.0,0.0,0.0,0.0,0.0,0.0,0.0,0.0,0.0,0.0,0.0,0.0,0.0,0.0,0.0,0.0,0.0,0.0,0.0,0.0,0.0,0.0,0.0,0.0,0.0,0.0,0.0,0.0,0.0,0.0,0.0,0.0,0.0,0.0,0.0,0.0,2.9036,3.0197,3.0821,3.0912,3.0998,3.1067,3.1128,3.1128,0.0,0.0,0.0,0.0,0.0,0.0,0.0,0.0,0.0,0.0,0.0,0.0,0.0,0.0,0.0,0.0,0.0,0.0,0.0,0.0,0.0,0.0,0.0,0.0,0.0,0.0,0.0,2.6249,0.0,0.0,0.0,0.0,0.0,0.0,0.0,0.0,0.0,0.0,0.0,0.0,0.0,0.0,1.8641,1.877,1.7902,1.7357,0.0,0.0,1.6964,1.6522,1.6007,1.5581,0.0,0.0,0.0,0.0,0.0,0.0,0.0,0.0,0.0,0.0,0.0,0.0,0.0,0.0,0.0,0.0,0.0,0.0,0.0,0.0,0.0,0.0,0.0,0.0,0.0,0.0,0.0,0.0,0.0,0.0,0.0,0.0,0.0,0.0,0.0,0.0,0.0,0.0,0.0,0.0,0.0,0.0,0.0,0.0,0.0,0.0,0.0,0.0,0.0,0.0,0.0,0.0,0.0,0.0,2.8979,2.9036,3.0182,3.0618,3.0364,3.0659,3.0666,3.0377,3.0377,2.9942,0.0,0.0,0.0,0.0,0.0,0.0,0.0,0.0,0.0,0.0,0.0,0.0,0.0,0.0,0.0,0.0,0.0,0.0,0.0,0.0,0.0,0.0,0.0,0.0,0.0,0.0,0.0,0.0,0.0,0.0,0.0,0.0,0.0,0.0,0.0,0.0,0.0,0.0,0.0,0.0,0.0,1.8004,1.7905,1.7207,1.7173,0.0,0.0,1.6578,1.7073,1.6355,1.5798,1.5763,0.0,0.0,0.0,0.0,0.0,0.0,0.0,0.0,0.0,0.0,0.0,0.0,0.0,0.0,0.0,0.0,0.0,0.0,0.0,0.0,0.0,0.0,0.0,0.0,0.0,0.0,0.0,0.0,0.0,0.0,0.0,0.0,0.0,0.0,0.0,0.0,0.0,0.0,0.0,0.0,0.0,0.0,0.0,0.0,0.0,0.0,0.0,0.0,0.0,0.0,0.0,0.0,0.0,2.8461,2.8441,2.9306,2.9665,2.9598,2.9858,2.9837,2.9589,2.9722,2.9495,0.0,0.0,0.0,0.0,0.0,0.0,0.0,0.0,0.0,0.0,0.0,0.0,0.0,0.0,0.0,0.0,0.0,0.0,0.0,0.0,0.0,0.0,0.0,0.0,0.0,0.0,0.0,0.0,2.3622,2.216,2.0685,0.0,0.0,0.0,0.0,0.0,0.0,0.0,0.0,0.0,0.0,1.6257,1.6342,1.5212,0.0,0.0,1.4911,1.4239,1.4488,1.4047,1.3793,1.376,1.4359,0.0,0.0,0.0,0.0,0.0,0.0,0.0,0.0,0.0,0.0,0.0,0.0,0.0,0.0,0.0,0.0,0.0,0.0,0.0,0.0,0.0,0.0,0.0,0.0,0.0,0.0,0.0,0.0,0.0,0.0,0.0,0.0,0.0,0.0,0.0,0.0,0.0,0.0,0.0,0.0,0.0,0.0,0.0,0.0,0.0,0.0,0.0,0.0,0.0,0.0,0.0,0.0,2.8043,2.7907,2.8678,2.9091,2.9091,2.9305,2.9305,2.9121,2.9305,2.9118,0.0,0.0,0.0,0.0,0.0,0.0,0.0,0.0,0.0,0.0,0.0,0.0,0.0,0.0,0.0,0.0,0.0,0.0,0.0,0.0,0.0,0.0,0.0,0.0,0.0,0.0,0.0,0.0,2.237,2.0749,1.9654,0.0,0.0,0.0,0.0,0.0,0.0,0.0,0.0,0.0,0.0,1.4684,1.4664,1.365,1.3145,1.3851,1.315,1.2598,1.2631,1.2305,1.2058,1.2074,0.0,0.0,0.0,0.0,0.0,0.0,0.0,0.0,0.0,0.0,0.0,0.0,0.0,0.0,0.0,0.0,0.0,0.0,0.0,0.0,0.0,0.0,0.0,0.0,0.0,0.0,0.0,0.0,0.0,0.0,3.4689,0.0,0.0,0.0,0.0,0.0,0.0,0.0,0.0,0.0,0.0,0.0,0.0,0.0,0.0,0.0,0.0,0.0,0.0,0.0,0.0,0.0,0.0,2.7907,2.7515,2.8545,2.9091,2.9075,2.9091,2.9121,2.9091,2.9075,2.8774,2.8047,0.0,0.0,0.0,0.0,0.0,0.0,0.0,0.0,0.0,0.0,0.0,0.0,0.0,0.0,0.0,0.0,0.0,0.0,0.0,0.0,0.0,0.0,0.0,0.0,0.0,0.0,2.162,1.9943,1.8913,0.0,0.0,0.0,0.0,0.0,0.0,0.0,0.0,0.0,0.0,1.3874,1.3327,1.3096,1.284,1.2836,1.3564,1.2845,1.2195,1.2174,1.1525,1.1022,0.0,0.0,0.0,0.0,0.0,0.0,0.0,0.0,0.0,0.0,0.0,0.0,0.0,0.0,0.0,0.0,0.0,0.0,0.0,0.0,0.0,0.0,0.0,0.0,0.0,0.0,0.0,3.3309,3.3969,0.0,0.0,0.0,0.0,0.0,0.0,0.0,0.0,0.0,0.0,0.0,3.1896,3.121,0.0,0.0,0.0,0.0,0.0,0.0,0.0,0.0,0.0,0.0,0.0,0.0,2.7582,2.7227,2.8169,2.8621,2.8636,2.8748,2.8748,2.8636,2.8748,2.8373,2.7458,0.0,0.0,0.0,0.0,0.0,0.0,0.0,0.0,0.0,0.0,0.0,0.0,0.0,0.0,0.0,0.0,0.0,0.0,0.0,0.0,0.0,0.0,0.0,0.0,0.0,2.1464,0.0,0.0,0.0,0.0,0.0,0.0,0.0,0.0,0.0,0.0,0.0,1.3848,1.3485,1.2381,1.1755,1.2027,1.1411,1.1134,0.0,0.0,0.0,0.0,0.0,0.0,0.0,0.0,0.0,0.0,0.0,0.0,0.0,0.0,1.1213,1.2281,1.2497,1.2454,1.248,0.0,0.0,0.0,0.0,0.0,0.0,0.0,0.0,0.0,0.0,0.0,0.0,0.0,0.0,3.2614,0.0,3.3265,0.0,0.0,0.0,0.0,0.0,0.0,0.0,0.0,3.166,3.1338,3.1206,3.0526,3.0123,0.0,2.9496,2.9496,0.0,0.0,0.0,0.0,0.0,0.0,0.0,0.0,2.7572,2.7199,2.7953,2.8411,2.8411,2.8525,2.8525,2.8411,2.8381,2.8054,2.74,2.7031,2.665,0.0,0.0,0.0,0.0,0.0,0.0,0.0,0.0,0.0,0.0,0.0,0.0,0.0,0.0,0.0,0.0,0.0,0.0,0.0,0.0,0.0,0.0,0.0,1.9523,0.0,0.0,0.0,0.0,0.0,0.0,0.0,0.0,0.0,1.4231,1.328,1.2342,1.2081,1.1044,1.0494,1.0801,0.0,0.0,0.0,0.0,0.0,0.0,0.0,0.9467,0.95,0.9687,0.9848,1.0053,0.9744,0.9533,0.9697,0.0,0.0,1.1293,1.1593,1.1538,1.1561,1.1456,1.1305,1.1318,1.1173,1.103,0.0,0.0,0.0,0.0,0.0,0.0,0.0,0.0,3.2074,3.2263,0.0,3.2299,0.0,0.0,0.0,0.0,0.0,3.1716,0.0,0.0,3.1044,3.0699,3.0293,3.0123,2.9645,2.8904,2.8748,2.8685,2.8732,2.9271,0.0,0.0,0.0,0.0,0.0,0.0,2.7764,2.7396,2.8057,2.8411,2.8411,2.8396,2.8411,2.8348,2.8005,2.7725,2.7695,2.6832,2.6347,2.6302,2.517,0.0,0.0,0.0,0.0,0.0,0.0,0.0,0.0,0.0,0.0,0.0,0.0,0.0,0.0,0.0,0.0,0.0,0.0,0.0,0.0,1.8602,0.0,0.0,0.0,0.0,0.0,0.0,0.0,0.0,0.0,0.0,1.374,1.2235,1.0809,1.0534,0.0,0.0,0.0,0.0,0.9749,0.9675,0.9573,0.9389,0.9162,0.8798,0.8517,0.8511,0.0,0.0,0.9215,0.8863,0.8716,0.9215,0.8868,0.8829,0.9773,1.0021,0.9952,0.9945,0.966,0.9354,0.9256,0.9079,0.8722,2.9709,0.0,0.0,0.0,0.0,2.8533,2.9054,2.9582,2.9696,3.0376,3.1405,3.1405,0.0,0.0,0.0,0.0,0.0,0.0,3.036,3.0319,2.9897,2.9717,2.9629,2.918,2.8889,2.8748,2.8286,2.8122,2.8235,2.8286,2.8389,2.8555,0.0,0.0,0.0,0.0,2.7535,2.7206,2.7768,2.8103,2.8118,2.8103,2.789,2.7509,2.7393,2.6967,2.6269,2.5977,2.5625,2.5119,2.4782,0.0,0.0,0.0,0.0,0.0,0.0,0.0,0.0,0.0,0.0,0.0,0.0,0.0,0.0,0.0,0.0,0.0,0.0,0.0,1.8646,1.7776,1.6722,0.0,0.0,0.0,0.0,0.0,0.0,0.0,0.0,0.0,1.1308,1.0538,0.9808,0.0,0.0,0.9017,0.8731,0.8636,0.8439,0.8128,0.8208,0.0,0.0,0.8376,0.8517,0.8517,0.8517,0.8582,0.8722,0.8587,0.8517,0.8722,0.8587,0.8641,0.8829,0.8888,0.8958,0.8958,0.8818,0.8753,0.8716,0.8587,0.8376,2.8555,2.7782,2.7997,2.7969,2.7774,2.7927,2.8329,2.887,2.906,2.9655,3.0443,3.046,3.0687,3.1043,3.1026,0.0,0.0,0.0,2.9615,2.9588,2.9342,2.9164,2.9012,2.8654,2.8431,2.8334,2.7974,2.779,2.784,2.779,2.7957,2.8231,0.0,0.0,2.7303,2.7596,2.7607,2.7428,2.7807,2.8005,2.8005,2.8005,2.7675,2.7122,2.6967,2.6481,2.5618,2.5467,2.5191,2.4792,2.4559,2.431,0.0,0.0,0.0,0.0,0.0,0.0,0.0,0.0,0.0,0.0,0.0,2.3214,2.3581,0.0,0.0,0.0,1.9463,1.7976,1.6877,1.6071,0.0,0.0,0.0,0.0,0.0,0.0,0.0,1.1269,1.0444,0.9854,0.9722,0.9444,0.9139,0.8964,0.8457,0.8057,0.8071,0.0,0.7398,0.6952,0.7091,0.7274,0.7363,0.7692,0.8027,0.8301,0.8166,0.8096,0.8096,0.8096,0.8107,0.8117,0.8117,0.8117,0.8117,0.8117,0.8182,0.8242,0.8166,0.8096,0.8096,0.8096,0.8027,2.789,2.7894,2.8302,2.8287,2.8052,2.8462,2.8786,2.9028,2.9483,2.9601,2.954,2.954,2.9496,2.9345,2.9252,0.0,2.9132,2.9039,2.8979,2.8982,2.9073,2.8841,2.8463,2.8415,2.8189,2.779,2.773,2.7665,2.7535,2.765,2.7715,2.7715,2.7875,2.797,2.8005,2.7955,2.7955,2.7955,2.7955,2.7955,2.797,2.7955,2.7675,2.7004,2.6654,2.6122,2.5522,2.5104,2.4948,2.4878,2.441,2.4103,2.4068,0.0,0.0,0.0,0.0,0.0,0.0,0.0,0.0,0.0,0.0,0.0,0.0,0.0,0.0,0.0,1.8137,0.0,1.5726,1.3961,0.0,0.0,0.0,1.1939,1.0961,1.0571,1.0186,0.9518,0.0,0.0,0.8705,0.0,0.8533,0.8576,0.755,0.6885,0.7219,0.6915,0.6494,0.597,0.6163,0.6402,0.6461,0.682,0.727,0.7627,0.7623,0.7423,0.7488,0.7553,0.7497,0.7526,0.7531,0.7526,0.7526,0.7521,0.7521,0.7832,0.7687,0.7548,0.7558,0.7558,0.7558,2.7056,2.6663,2.677,2.726,2.8005,2.8134,2.8227,2.8284,2.8365,2.8622,2.8904,2.8904,2.9027,2.9207,2.8246,2.8078,2.8449,2.7638,2.7507,2.7944,2.7993,2.7929,2.781,2.781,2.776,2.7645,2.7115,2.6876,2.6826,2.6876,2.6876,2.6905,2.742,2.774,2.784,2.774,2.769,2.7675,2.7675,2.7675,2.7675,2.7675,2.7188,2.6108,2.6,2.5467,2.4492,2.4403,2.4345,2.4332,2.4163,2.4092,2.4105,2.3696,0.0,0.0,0.0,0.0,0.0,0.0,0.0,0.0,0.0,2.1952,2.1858,0.0,2.0258,0.0,1.6656,1.5063,1.4077,1.3508,0.0,0.0,1.1487,1.1053,0.988,0.9685,0.9436,0.9022,0.8403,0.7957,0.7852,0.6824,0.6366,0.6863,0.7199,0.6929,0.5898,0.5574,0.5259,0.4564,0.4855,0.5196,0.5306,0.5771,0.6266,0.6384,0.6671,0.6876,0.6872,0.7222,0.7508,0.7513,0.7513,0.7499,0.7461,0.7265,0.7064,0.7172,0.7372,0.7526,0.7494,0.7503,0.7428,2.6308,2.6026,2.604,2.6414,2.7034,2.7473,2.7458,2.724,2.779,2.7974,2.7883,2.7804,2.7857,2.7969,2.701,2.6731,2.705,2.6462,2.6363,2.6692,2.6692,2.6692,2.6707,2.6692,2.6692,2.6677,2.6333,2.6153,2.6138,2.6168,2.6318,2.6602,2.6946,2.734,2.7675,2.7625,2.756,2.756,2.756,2.756,2.756,2.756,2.7019,2.5837,2.5783,2.5245,2.4171,2.4125,2.4125,2.4125,2.4125,2.3995,2.3819,2.3628,2.3343,0.0,0.0,0.0,0.0,0.0,0.0,0.0,0.0,0.0,0.0,0.0,1.8701,1.7176,1.5251,1.3792,1.3091,1.2592,1.1911,1.1013,1.0767,1.0424,0.9639,0.9331,0.904,0.853,0.7861,0.7344,0.6933,0.6086,0.5564,0.5675,0.6067,0.6056,0.5242,0.4785,0.4273,0.3825,0.3971,0.4317,0.459,0.5074,0.5446,0.5627,0.5774,0.5903,0.6152,0.649,0.67,0.6907,0.7043,0.7034,0.7007,0.6876,0.6675,0.6732,0.6868,0.7012,0.7038,0.6977,0.6907,2.5687,2.5577,2.5577,2.5563,2.5632,2.6481,2.6529,2.6126,2.7083,2.717,2.663,2.6535,2.6479,2.6441,2.5779,2.554,2.56,2.551,2.5525,2.56,2.56,2.56,2.56,2.56,2.56,2.56,2.5525,2.548,2.548,2.548,2.5824,2.6437,2.6542,2.6916,2.7545,2.756,2.756,2.756,2.756,2.756,2.756,2.7524,2.693,2.5837,2.5742,2.5203,2.4112,2.4054,2.4067,2.4054,2.4054,2.3865,2.3403,2.3303,2.3059,0.0,2.2408,0.0,0.0,0.0,0.0,0.0,0.0,0.0,0.0,1.8123,1.7335,1.5857,1.3775,1.2478,1.2364,1.1378,1.065,1.044,1.0159,0.999,0.9704,0.9251,0.8748,0.8117,0.7398,0.6688,0.621,0.5873,0.5477,0.4951,0.4882,0.4872,0.4788,0.4273,0.3689,0.3498,0.3431,0.3701,0.4177,0.4431,0.4691,0.4925,0.4858,0.4846,0.5282,0.5536,0.5804,0.6214,0.642,0.642,0.642,0.642,0.642,0.642,0.6486,0.6486,0.6486,0.649,0.6424,2.4892,2.4434,2.4434,2.4447,2.4492,2.5104,2.5313,2.5208,2.4955,2.502,2.5329,2.5712,2.583,2.5726,2.5077,2.5106,2.557,2.5061,2.5106,2.56,2.56,2.56,2.56,2.56,2.56,2.557,2.5061,2.4776,2.4822,2.4822,2.5151,2.5794,2.6333,2.6965,2.7545,0.0,0.0,0.0,2.756,2.756,2.7575,2.7152,2.651,2.5837,2.537,0.0,2.4008,2.3949,2.3891,2.3688,2.3839,0.0,0.0,0.0,0.0,0.0,0.0,0.0,0.0,0.0,0.0,0.0,1.7949,1.7668,1.7335,1.5992,1.4545,1.3131,1.2338,1.162,1.0944,1.0732,1.0496,1.0301,1.0053,0.9846,0.9652,0.8791,0.8096,0.7845,0.6559,0.5741,0.583,0.5282,0.4821,0.4622,0.4489,0.422,0.388,0.3682,0.3491,0.3293,0.3295,0.3295,0.3431,0.3563,0.3625,0.3634,0.3974,0.4175,0.437,0.508,0.5599,0.5804,0.6145,0.642,0.642,0.642,0.6424,0.6424,0.6494,0.6626,0.6424,0.6564,0.663,2.439,0.0,2.4125,2.4125,0.0,2.4129,2.3943,2.3768,2.4305,2.4501,2.4526,2.4716,2.4817,2.4761,2.4283,2.4298,2.4597,2.4268,2.4298,2.4612,2.4612,2.4627,2.4612,2.4612,2.4612,2.4597,2.4283,2.4103,2.4118,2.4118,2.4462,2.5121,2.5732,2.6325,2.6996,2.7187,2.7335,2.7423,2.7488,2.7488,2.7372,2.6826,2.6229,2.5618,0.0,0.0,0.0,0.0,0.0,0.0,0.0,0.0,0.0,0.0,0.0,2.0839,2.0613,2.0215,1.9497,1.9233,1.8566,1.7423,1.6594,1.6,1.5774,1.4347,1.3068,1.2071,1.1471,1.0974,1.0536,1.0073,0.9836,1.0132,0.9659,0.9447,0.9575,0.8719,0.7856,0.7237,0.5953,0.4962,0.4703,0.4292,0.3892,0.3894,0.3823,0.3689,0.3424,0.3355,0.3291,0.3226,0.3226,0.3226,0.3226,0.3226,0.3226,0.3228,0.3431,0.377,0.4314,0.4634,0.4954,0.5484,0.5811,0.6009,0.6013,0.6218,0.6324,0.6146,0.6163,0.6154,0.587,0.6314,0.6819,2.4125,2.4125,2.4125,2.4125,2.4073,2.3459,2.2844,2.2323,0.0,0.0,0.0,2.3606,2.3673,2.3702,2.3526,2.3508,2.3595,2.3595,2.3595,2.3595,2.3595,2.3595,2.3595,2.3595,2.3595,2.3595,2.3595,2.3595,2.3595,2.3595,2.3954,2.4582,2.5131,2.5764,2.647,2.6967,2.7181,2.713,2.7299,2.7299,2.7011,2.6457,2.5851,2.53,2.4681,2.4131,2.3569,2.3569,2.3569,2.3509,2.2935,2.232,2.1839,2.1183,2.0577,2.0064,1.9977,1.9573,1.8767,1.8633,1.7891,1.6464,1.5409,1.4633,1.4135,1.3172,1.2264,1.1476,1.0796,1.038,1.0408,0.9625,0.9306,0.9836,0.9079,0.8775,0.914,0.8318,0.7245,0.6546,0.5335,0.4304,0.3785,0.3563,0.3362,0.336,0.3426,0.3295,0.3226,0.3226,0.3226,0.3226,0.3226,0.3226,0.3226,0.3226,0.3226,0.3226,0.3228,0.3565,0.4314,0.4375,0.4567,0.5432,0.562,0.576,0.5852,0.6211,0.6277,0.593,0.583,0.5768,0.5353,0.5957,0.6698,2.4125,2.4125,2.4125,2.4125,2.4073,2.3472,2.2622,2.1655,2.193,2.1938,2.183,2.2297,2.2729,2.3053,2.2995,2.3201,2.3595,2.3595,2.3595,0.0,2.3595,2.3595,2.3595,2.3595,2.3595,2.3595,2.3595,2.3595,2.3595,2.3595,2.391,2.4506,2.5114,2.5923,2.6872,2.71,2.7078,2.6899,2.7078,2.6959,2.6457,2.5837,2.5245,2.4624,2.406,2.3628,2.345,2.345,2.333,2.321,2.2727,2.2157,2.1639,2.0859,2.0182,1.9692,1.9396,1.8998,1.8395,1.792,1.695,1.548,1.4178,1.3404,1.3366,1.2722,1.1774,1.0558,1.0165,0.9997,0.9927,0.9468,0.9008,0.8689,0.8237,0.7778,0.7379,0.6517,0.5891,0.5628,0.4595,0.4043,0.4079,0.3899,0.3761,0.3828,0.3694,0.3696,0.3293,0.3226,0.3226,0.3226,0.3226,0.3226,0.3226,0.3226,0.3226,0.3226,0.3226,0.3431,0.411,0.442,0.4806,0.5495,0.5899,0.6222,0.6403,0.6579,0.6444,0.6029,0.6033,0.6004,0.5472,0.5625,0.5987,2.4125,2.4067,2.3819,2.3683,2.3563,2.2675,2.2008,2.1498,2.1172,2.1051,2.107,2.1601,2.1911,2.2077,2.2328,2.2603,2.2815,2.3098,2.3201,2.3246,2.3465,2.3595,2.3595,2.3595,2.3595,2.3595,2.3595,2.3595,2.3595,2.3566,2.3687,2.3985,2.4781,2.5736,2.6811,2.6937,2.675,2.634,2.6817,2.6765,2.6082,2.5453,2.4894,2.4292,2.3675,2.333,2.3258,2.321,2.321,2.3125,2.2197,2.1572,2.1313,2.027,1.9579,1.9351,1.9198,1.8741,1.7852,1.6811,1.5903,1.5275,1.4258,1.3426,1.2753,1.1944,1.1111,1.0154,0.9927,0.9852,0.9559,0.8703,0.8161,0.808,0.7238,0.67,0.6689,0.5999,0.539,0.5069,0.4254,0.3643,0.3727,0.3629,0.356,0.356,0.356,0.3429,0.3228,0.3226,0.3226,0.3226,0.3226,0.3226,0.3226,0.3226,0.3226,0.3226,0.3226,0.3565,0.4177,0.448,0.4725,0.5408,0.5818,0.6026,0.6245,0.6543,0.6375,0.5867,0.6009,0.595,0.5352,0.5348,0.564,2.4125,2.4054,2.3559,2.3154,2.2766,2.189,2.1433,2.1276,2.0858,2.0699,2.0749,2.1082,2.1301,2.1439,2.178,2.2002,2.2175,2.2649,2.2889,2.2934,2.3377,2.3595,2.3595,2.3595,2.3595,2.3595,2.361,2.361,2.3566,2.3494,2.3585,2.3881,2.4608,2.5587,2.6765,2.6794,2.6568,2.6179,2.6674,2.65,2.555,2.5189,2.461,2.3884,2.3365,2.3125,2.3125,2.3125,2.3125,2.3017,2.1815,2.1071,2.0996,1.9846,1.9131,1.9131,1.9131,1.8596,1.7442,1.5903,1.5062,1.5062,1.4266,1.3288,1.2271,1.1366,1.0513,0.9911,0.9765,0.9625,0.9103,0.8174,0.7476,0.7553,0.6472,0.5851,0.6153,0.5514,0.4849,0.4582,0.3969,0.3403,0.3275,0.3226,0.3226,0.3226,0.3226,0.3226,0.3226,0.3226,0.3226,0.3226,0.3226,0.3226,0.3226,0.3226,0.3228,0.3295,0.3431,0.3907,0.4582,0.4616,0.4788,0.5599,0.5873,0.6041,0.6207,0.6499,0.6497,0.6006,0.6094,0.601,0.5018,0.5243,0.55,2.4099,2.4034,2.3397,2.2607,2.1681,2.1551,2.1211,2.083,2.0725,2.0699,2.0699,2.0762,2.1017,2.1376,2.1407,2.1684,2.2095,2.2649,2.2889,2.2934,2.3377,2.3595,2.3595,2.3595,2.3595,2.3595,2.3523,2.3509,2.3494,2.3363,2.3819,2.4736,2.4839,2.5473,2.662,2.6779,2.6779,2.6727,2.6779,2.5988,2.4408,2.4738,2.4452,2.3258,2.3125,2.3125,2.3125,2.3125,2.3125,2.3005,2.1815,2.1071,2.0944,1.9835,1.9131,1.9131,1.9065,1.8596,1.7442,1.5692,1.4641,1.4569,1.3542,1.2538,1.1846,1.1193,1.0426,0.9588,0.9382,0.9246,0.878,0.825,0.771,0.7242,0.624,0.547,0.4988,0.4222,0.3739,0.3659,0.352,0.3338,0.325,0.3226,0.3226,0.3226,0.3226,0.3226,0.3226,0.3226,0.3226,0.3226,0.3226,0.3226,0.3226,0.3226,0.3362,0.377,0.3904,0.4308,0.4979,0.5432,0.5675,0.603,0.6398,0.6523,0.6768,0.7009,0.6931,0.6507,0.6343,0.621,0.5123,0.5157,0.5416,2.3093,2.3011,2.2472,2.1796,2.1144,2.1056,2.0922,2.0699,2.0699,2.0699,2.0699,2.0699,2.0801,2.098,2.0974,2.1131,2.1313,2.1779,2.2203,2.242,2.2634,2.3009,2.348,2.329,2.326,2.3436,2.3451,2.3466,2.3363,2.3231,2.358,2.4287,2.4631,2.5284,2.6155,2.6576,2.6621,2.6286,2.6286,2.5536,2.435,2.4667,2.4381,2.3245,2.3125,2.3125,2.3125,2.3125,2.3125,2.3005,2.1815,2.1071,2.106,1.9846,1.9131,1.9065,1.8462,1.7842,1.7148,1.5542,1.4497,1.4281,1.363,1.2764,1.1833,1.1489,1.0801,0.9583,0.9523,0.9402,0.8732,0.8264,0.7633,0.6861,0.578,0.4982,0.4678,0.4029,0.3553,0.3452,0.3393,0.333,0.325,0.3226,0.3226,0.3226,0.3228,0.3228,0.3228,0.3226,0.3226,0.3226,0.3226,0.3226,0.3226,0.3226,0.3431,0.3766,0.3747,0.3936,0.5226,0.5282,0.5372,0.639,0.6652,0.6818,0.7066,0.7143,0.71,0.6736,0.6254,0.5941,0.5789,0.573,0.5413,2.2387,2.232,2.1812,2.1294,2.0783,2.0731,2.0699,2.0699,2.0699,2.0699,2.0699,2.0699,2.0699,2.0699,2.0699,2.0699,2.0749,2.1166,2.1636,2.2035,2.2021,2.2498,2.3363,2.3038,2.2979,2.326,2.3363,2.3334,2.3187,2.3112,2.3327,2.3891,2.453,2.5168,2.5792,2.6445,2.6621,2.6165,2.6002,2.537,2.4523,2.461,2.4221,2.3245,2.3125,2.3125,2.3125,2.3125,2.3125,2.3065,2.1815,2.1071,2.1071,1.9835,1.9131,1.8998,1.8134,1.7373,1.6932,1.5542,1.4561,1.4129,1.371,1.307,1.2178,1.1797,1.1105,0.9986,0.976,0.9402,0.8655,0.8106,0.7557,0.6865,0.5755,0.5149,0.5066,0.4412,0.3976,0.3862,0.3752,0.344,0.3311,0.3491,0.3689,0.3493,0.3429,0.3431,0.3362,0.3362,0.3226,0.3355,0.3422,0.3357,0.3226,0.3362,0.3634,0.3828,0.3872,0.4455,0.5474,0.5272,0.5426,0.6549,0.6726,0.6848,0.7139,0.7204,0.7234,0.6893,0.6402,0.6099,0.6376,0.6139,0.5715,2.2387,2.2296,2.1733,2.1172,2.0701,2.0675,2.0699,2.0699,2.0699,2.0699,2.0699,2.0699,2.0699,2.0699,2.0699,2.0699,2.0749,2.1055,2.1575,2.2035,2.1819,2.2346,2.3407,2.2844,2.2785,2.3231,2.3201,2.3082,2.2947,2.2947,2.3267,2.3876,2.4544,2.5183,2.5749,2.6431,2.6779,2.6592,2.6111,2.555,2.4908,2.4394,2.3826,2.3198,2.3125,2.3125,2.3125,2.3125,2.3065,2.3065,2.1815,2.1071,2.0933,1.9835,1.9131,1.8998,1.8414,1.7647,1.6862,1.5762,1.4848,1.4201,1.3702,1.3237,1.2576,1.2037,1.1428,1.0738,0.9943,0.9155,0.8385,0.8174,0.7859,0.7379,0.6644,0.6193,0.6155,0.5269,0.4995,0.4739,0.4319,0.3857,0.3362,0.4087,0.4289,0.4095,0.3969,0.3974,0.3907,0.3567,0.3558,0.3813,0.3944,0.3808,0.3424,0.3565,0.3837,0.3964,0.4417,0.5272,0.5704,0.6093,0.639,0.6679,0.6946,0.7135,0.722,0.7339,0.7399,0.7169,0.6769,0.6637,0.6758,0.6641,0.6227,2.1328,2.1263,2.1105,2.0882,2.0712,2.0699,2.0699,2.0699,2.0699,2.0699,2.0699,2.0699,2.0699,2.0699,2.0699,2.0649,2.0612,2.1082,2.1589,2.1894,2.1547,2.2081,2.3187,2.248,2.2402,2.2978,2.3082,2.3037,2.2888,2.2888,2.3004,2.3412,2.437,2.5009,2.5328,2.6257,2.664,2.6203,2.5604,2.5036,2.4486,2.3787,2.3305,2.3125,2.3125,2.3125,2.3125,2.3125,2.2944,2.2494,2.1565,2.0933,2.042,1.9584,1.9131,1.9065,1.8405,1.7579,1.6585,1.5683,1.4768,1.3848,1.3564,1.3237,1.267,1.2338,1.188,1.0946,1.0547,0.976,0.8703,0.8255,0.7897,0.733,0.6727,0.6229,0.599,0.5427,0.4945,0.484,0.4616,0.4445,0.4292,0.4564,0.4703,0.4556,0.4489,0.45,0.4515,0.4314,0.4241,0.4434,0.448,0.4331,0.3818,0.3832,0.3971,0.3959,0.4215,0.4812,0.5365,0.5688,0.5949,0.6807,0.7179,0.7279,0.7334,0.743,0.748,0.7399,0.7,0.693,0.7115,0.6934,0.6608,2.0699,2.0699,2.0699,2.0699,2.0699,2.0699,2.0699,2.0699,2.0699,2.0785,2.0858,2.0785,2.0785,2.0858,2.0785,2.0699,2.0686,2.1131,2.1479,2.1846,2.1479,2.1988,2.2994,2.2356,2.2278,2.2843,2.2992,2.2978,2.2902,2.2888,2.3004,2.3279,2.437,2.4979,2.5284,2.6242,2.6573,2.6097,2.5425,2.4811,2.4315,2.3551,2.3125,2.3125,2.3125,2.3125,2.3125,2.3125,2.2884,2.2372,2.1553,2.0677,1.9846,1.932,1.9131,1.9065,1.8539,1.7647,1.6446,1.5683,1.484,1.363,1.3492,1.3317,1.291,1.2725,1.2096,1.1297,1.0692,1.0051,0.893,0.8232,0.7802,0.7224,0.6753,0.6384,0.6168,0.574,0.5389,0.5189,0.5246,0.5169,0.4954,0.5169,0.5233,0.508,0.508,0.509,0.5036,0.4913,0.4913,0.504,0.5077,0.4929,0.4677,0.4691,0.41,0.3892,0.4506,0.4903,0.519,0.543,0.5951,0.6821,0.7242,0.7399,0.7476,0.748,0.748,0.748,0.7318,0.7165,0.7173,0.7165,0.6919,2.0699,2.0699,2.0699,2.0699,2.0699,2.0699,2.0699,2.0699,2.0699,2.0944,2.1218,2.0908,2.0944,2.1218,2.0908,2.0835,2.0944,2.114,2.1465,2.1894,2.1609,2.2095,2.3187,2.2509,2.2417,2.2888,2.2888,2.2888,2.2888,2.2902,2.3178,2.3862,2.4515,2.5197,2.5778,2.6504,2.6852,2.6587,2.573,2.5086,2.4865,2.385,2.3276,2.3153,2.3201,2.3188,2.3138,2.3125,2.3065,2.2823,2.1753,2.0495,1.9396,1.9142,1.9131,1.9065,1.8674,1.7784,1.6507,1.5886,1.5046,1.3775,1.3492,1.3484,1.3331,1.2973,1.2385,1.1719,1.0858,0.9814,0.8749,0.8088,0.7621,0.7253,0.6785,0.6672,0.6587,0.6463,0.6222,0.5749,0.5954,0.5885,0.5352,0.562,0.5954,0.5683,0.5609,0.5606,0.5609,0.5286,0.5147,0.5474,0.5602,0.547,0.5543,0.5484,0.4556,0.3964,0.4861,0.5568,0.5654,0.5827,0.635,0.7161,0.7318,0.748,0.748,0.748,0.748,0.748,0.7399,0.7399,0.7318,0.7318,0.7399,2.0699,2.0699,2.0699,2.0699,2.0699,2.0699,2.0699,2.0699,2.0699,2.0993,2.1253,2.0908,2.093,2.1266,2.114,2.1019,2.1028,2.167,2.2081,2.2128,2.2081,2.2434,2.2933,2.2509,2.2477,2.2843,2.2888,2.2888,2.2888,2.2888,2.3221,2.3905,2.4559,2.5429,2.6489,2.7099,2.7461,2.7414,2.6604,2.5975,2.5559,2.4732,2.4117,2.3778,2.3728,2.3552,2.3103,2.3125,2.2871,2.2494,2.1565,2.0484,1.9386,1.9131,1.9131,1.9075,1.8751,1.7842,1.6515,1.5886,1.5046,1.3848,1.3492,1.3492,1.3492,1.3346,1.2907,1.2372,1.1554,1.0507,0.9238,0.826,0.7583,0.6933,0.6757,0.6635,0.6534,0.6461,0.6358,0.6218,0.6284,0.6218,0.6017,0.6354,0.6288,0.6152,0.6079,0.6145,0.6079,0.5947,0.5951,0.6148,0.6145,0.5943,0.5811,0.5745,0.5286,0.4694,0.5256,0.5812,0.5994,0.6279,0.684,0.7238,0.7399,0.748,0.748,0.748,0.748,0.748,0.748,0.748,0.748,0.748,0.748,2.0848,2.0712,2.0885,2.0848,2.0749,2.0898,2.0848,2.0749,2.0898,2.1237,2.152,2.1382,2.1452,2.1758,2.1623,2.1506,2.1575,2.2221,2.2512,2.2526,2.2572,2.2783,2.3037,2.2661,2.2615,2.2843,2.2888,2.2888,2.2888,2.2931,2.3499,2.4515,2.4994,2.5995,2.736,2.7853,2.8115,2.7993,2.7159,2.6512,2.6011,2.5269,2.4657,2.4356,2.4305,2.4017,2.3514,2.3452,2.3156,2.242,2.1628,2.0484,1.9264,1.9131,1.9131,1.9008,1.8674,1.7988,1.6862,1.6097,1.5251,1.4122,1.3637,1.3492,1.3492,1.3492,1.3207,1.2666,1.1992,1.1035,0.9603,0.8613,0.7763,0.6865,0.6658,0.6542,0.644,0.642,0.642,0.6354,0.642,0.642,0.642,0.642,0.642,0.642,0.642,0.642,0.642,0.642,0.642,0.642,0.6354,0.6148,0.6009,0.5943,0.5881,0.569,0.5708,0.5962,0.6146,0.6663,0.7161,0.7318,0.748,0.748,0.748,0.748,0.748,0.748,0.748,0.748,0.748,0.748,0.748,2.118,2.0835,2.1264,2.1215,2.0934,2.1277,2.1229,2.0947,2.1277,2.1732,2.2081,2.2049,2.2235,2.2512,2.2156,2.2123,2.2417,2.2526,2.2723,2.2873,2.2978,2.3082,2.3037,2.2888,2.2843,2.2888,2.2888,2.2888,2.2902,2.3004,2.392,2.5473,2.5792,2.6808,2.8289,2.8724,2.8782,2.8713,2.7593,2.6884,2.6775,2.5588,2.4933,2.487,2.4845,2.4607,2.413,2.3941,2.3616,2.2983,2.1741,2.0549,1.9452,1.9131,1.9131,1.9075,1.8751,1.8124,1.7345,1.6298,1.5384,1.453,1.384,1.3492,1.3492,1.3492,1.3251,1.2757,1.2271,1.1339,0.9892,0.8874,0.7994,0.7052,0.6585,0.644,0.6424,0.642,0.642,0.642,0.642,0.642,0.642,0.642,0.642,0.642,0.642,0.642,0.642,0.642,0.642,0.642,0.642,0.6354,0.6148,0.6148,0.6176,0.6328,0.6271,0.631,0.6518,0.7,0.7314,0.7399,0.748,0.748,0.748,0.748,0.748,0.748,0.748,0.748,0.748,0.748,0.748,2.186,2.1766,2.186,2.186,2.1766,2.1908,2.186,2.1766,2.186,2.2189,2.2512,2.2282,2.242,2.2785,2.2526,2.248,2.2678,2.2949,2.3053,2.3068,2.3187,2.3112,2.2992,2.2947,2.2888,2.2888,2.2888,2.2888,2.2931,2.3397,2.4399,2.5749,2.6358,2.7476,2.9087,2.9377,2.9653,2.9824,2.8705,2.799,2.7786,2.6738,2.5879,2.5423,2.5398,2.5134,2.4619,2.4205,2.3468,2.242,2.1553,2.0707,1.9857,1.9365,1.9131,1.9075,1.8741,1.8192,1.7413,1.6367,1.5384,1.4673,1.3905,1.3492,1.3492,1.3492,1.331,1.2885,1.2284,1.1361,1.0055,0.8997,0.7851,0.6758,0.6548,0.642,0.642,0.642,0.642,0.642,0.642,0.642,0.642,0.642,0.642,0.642,0.642,0.642,0.642,0.642,0.642,0.642,0.642,0.642,0.6354,0.6354,0.6513,0.6753,0.6792,0.6833,0.7005,0.7248,0.7421,0.748,0.748,0.748,0.748,0.748,0.748,0.748,0.748,0.748,0.748,0.748,0.748,2.2314,2.2128,2.2328,2.2314,2.2128,2.2314,2.2314,2.2175,2.236,2.2603,2.283,2.283,2.2889,2.3112,2.2949,2.2859,2.2978,2.3187,2.3201,2.3127,2.3112,2.3023,2.2947,2.2888,2.2888,2.2888,2.2888,2.3062,2.3354,2.3731,2.4849,2.6387,2.6997,2.8173,2.99,3.0031,3.0176,3.0315,2.947,2.8826,2.8427,2.7484,2.671,2.6135,2.595,2.5711,2.5146,2.4418,2.3406,2.2296,2.1444,2.0778,2.0117,1.9431,1.9131,1.9065,1.8808,1.8405,1.7765,1.6645,1.5666,1.4966,1.4122,1.3557,1.3455,1.3389,1.317,1.2953,1.2326,1.1531,1.0593,0.9415,0.8187,0.7195,0.6872,0.6741,0.6482,0.642,0.642,0.642,0.642,0.642,0.642,0.642,0.642,0.642,0.642,0.642,0.642,0.642,0.642,0.642,0.642,0.642,0.642,0.642,0.6539,0.6846,0.7082,0.713,0.72,0.74,0.7468,0.748,0.748,0.748,0.748,0.748,0.748,0.748,0.748,0.748,0.748,0.748,0.748,2.2694,2.2314,2.2785,2.2694,2.2406,2.274,2.274,2.2452,2.2785,2.2979,2.3068,2.3421,2.3436,2.3495,2.329,2.3319,2.3319,2.3334,2.3231,2.3112,2.3023,2.2888,2.2888,2.2888,2.2888,2.2888,2.2888,2.3296,2.3746,2.3992,2.54,2.7113,2.7726,2.8855,3.0147,3.051,3.0628,3.0493,2.987,2.9219,2.8698,2.7868,2.7111,2.6705,2.6408,2.6143,2.5473,2.472,2.3691,2.237,2.1572,2.0871,2.0204,1.955,1.9131,1.9065,1.8875,1.8674,1.8259,1.6991,1.6088,1.5675,1.4482,1.3608,1.3591,1.3327,1.2987,1.2789,1.2291,1.1687,1.094,0.9968,0.8835,0.7842,0.7647,0.726,0.6806,0.6486,0.642,0.642,0.642,0.642,0.642,0.642,0.642,0.642,0.642,0.642,0.642,0.642,0.642,0.642,0.642,0.642,0.642,0.642,0.6626,0.6852,0.7074,0.7227,0.7227,0.7382,0.7427,0.748,0.748,0.748,0.748,0.748,0.7476,0.748,0.748,0.748,0.748,0.748,0.748,2.3377,2.3275,2.3421,2.3377,2.3319,2.3377,2.3363,2.3275,2.3377,2.3392,2.3465,2.3551,2.3551,2.3581,2.3509,2.3495,2.3511,2.3451,2.3378,2.3231,2.3037,2.2888,2.2888,2.2888,2.2888,2.2888,2.2888,2.3296,2.3905,2.4921,2.6141,2.7592,2.871,2.9653,3.0408,3.0642,3.0642,3.0507,2.9946,2.956,2.9156,2.8195,2.7417,2.7175,2.6714,2.6231,2.5711,2.5385,2.4718,2.3478,2.2121,2.1146,2.0756,1.9779,1.9218,1.9131,1.8942,1.8741,1.8337,1.7491,1.6784,1.6437,1.5201,1.4213,1.3941,1.3374,1.2799,1.2394,1.2043,1.1589,1.0752,0.9823,0.9139,0.8613,0.8355,0.8226,0.7907,0.7064,0.6622,0.6486,0.649,0.642,0.642,0.642,0.642,0.642,0.642,0.642,0.642,0.642,0.642,0.642,0.642,0.642,0.642,0.6428,0.6618,0.6823,0.7048,0.7186,0.7273,0.7326,0.7352,0.7434,0.748,0.7468,0.7411,0.7452,0.7439,0.746,0.748,0.748,0.748,0.748,0.748,2.3595,2.3595,2.3595,2.3595,2.3595,2.3595,2.3551,2.3566,2.3538,2.3581,2.3566,2.3566,2.3566,2.3595,2.3538,2.351,2.3496,2.3363,2.3334,2.329,2.3082,2.2947,2.2978,2.2933,2.2888,2.2888,2.2888,2.3366,2.437,2.5357,2.6562,2.8115,2.9174,2.9856,3.048,3.0642,3.0642,3.0582,3.0266,2.9946,2.9484,2.857,2.755,2.7175,2.6645,2.6276,2.605,2.5711,2.5172,2.4254,2.2885,2.1868,2.1406,2.0369,1.969,1.9539,1.9131,1.8808,1.8395,1.7842,1.7217,1.6913,1.5652,1.4833,1.4151,1.3423,1.2751,1.2159,1.1832,1.1467,1.0807,1.0478,0.9901,0.932,0.9069,0.8871,0.8431,0.7816,0.724,0.7025,0.6959,0.6696,0.656,0.6613,0.6482,0.6548,0.6482,0.6482,0.642,0.642,0.642,0.642,0.642,0.642,0.6424,0.6506,0.6606,0.6793,0.695,0.7032,0.7115,0.7132,0.722,0.7265,0.7306,0.7305,0.7277,0.7338,0.7403,0.746,0.748,0.748,0.748,0.748,0.748,2.3794,2.3794,2.3794,2.3767,2.3724,2.3739,2.3653,2.3509,2.3509,2.3509,2.3509,2.3509,2.3538,2.3566,2.3538,2.3495,2.3466,2.329,2.329,2.3378,2.3112,2.2992,2.2992,2.2962,2.2902,2.2888,2.2888,2.3569,2.482,2.5734,2.7041,2.8623,2.9464,3.0074,3.0495,3.0642,3.0642,3.0582,3.0507,3.0326,2.9808,2.9016,2.8051,2.7027,2.6589,2.6508,2.6302,2.5975,2.5448,2.482,2.3816,2.2973,2.2075,2.0921,2.0129,2.0052,1.9452,1.8931,1.8607,1.8114,1.7677,1.7073,1.6147,1.5171,1.4396,1.3499,1.2809,1.2232,1.187,1.1534,1.1373,1.1052,1.0667,1.0225,0.9901,0.9454,0.9022,0.8837,0.8554,0.7807,0.763,0.7452,0.7209,0.7046,0.6859,0.6671,0.6609,0.6548,0.6556,0.649,0.649,0.642,0.642,0.642,0.642,0.6494,0.6597,0.6755,0.6873,0.6944,0.6949,0.6895,0.6892,0.704,0.707,0.7097,0.7119,0.7163,0.7257,0.7399,0.7399,0.7399,0.7399,0.748,0.748,2.4704,2.4688,2.4704,2.4477,2.4219,2.4177,2.3925,2.3538,2.3509,2.3509,2.3509,2.3509,2.3538,2.3566,2.361,2.3566,2.3538,2.3363,2.3275,2.3319,2.3157,2.3082,2.2992,2.3051,2.2991,2.2902,2.3018,2.3902,2.5357,2.6358,2.752,2.916,3.0045,3.048,3.0524,3.0642,3.0642,3.0642,3.0642,3.0447,3.0251,2.9623,2.8634,2.7351,2.685,2.6589,2.6521,2.6327,2.5862,2.4933,2.458,2.3879,2.2813,2.1181,2.0335,2.0062,1.955,1.9106,1.8741,1.8633,1.8185,1.7539,1.6703,1.5863,1.4868,1.381,1.3035,1.2398,1.1939,1.1622,1.156,1.1365,1.124,1.0982,1.0793,1.0611,1.0358,1.013,0.9701,0.8694,0.8424,0.8199,0.7867,0.7678,0.7668,0.7553,0.7372,0.7344,0.7315,0.6973,0.663,0.656,0.642,0.642,0.642,0.656,0.6643,0.6783,0.6946,0.6946,0.6875,0.6581,0.6576,0.6975,0.7017,0.6917,0.6995,0.7056,0.7127,0.7206,0.7219,0.7218,0.7318,0.7318,0.7399,2.4902,2.4902,2.4902,2.4799,2.4614,2.4385,2.4135,2.3797,2.3596,2.3509,2.3509,2.3509,2.3538,2.3551,2.3595,2.3595,2.3566,2.3392,2.3348,2.3392,2.3275,2.3157,2.3127,2.3155,2.2991,2.3047,2.3317,2.4197,2.5734,2.6431,2.7853,2.9334,3.0263,3.0568,3.0642,3.0642,3.0642,3.0642,3.0642,3.0642,3.0582,2.9946,2.8903,2.7802,2.7229,2.6837,2.6521,2.6521,2.5912,2.5071,2.482,2.4192,2.3095,2.2031,2.1,2.0587,1.9932,1.9291,1.89,1.869,1.8263,1.767,1.6918,1.6094,1.5201,1.4285,1.3372,1.2639,1.2343,1.1919,1.1622,1.1428,1.1303,1.124,1.1185,1.1059,1.087,1.0821,1.0238,0.9518,0.9268,0.8894,0.8436,0.8382,0.8478,0.8356,0.8195,0.8122,0.7987,0.7654,0.7231,0.7274,0.7199,0.7195,0.7204,0.7152,0.7138,0.7213,0.7218,0.7218,0.7227,0.7143,0.7095,0.7242,0.7144,0.7095,0.6818,0.6818,0.6917,0.6976,0.7066,0.7118,0.7151,0.7161,0.7339,2.5137,2.5153,2.5153,2.5114,2.4942,2.4614,2.4354,2.4147,2.3782,2.3625,2.3625,2.3698,2.3784,2.3739,2.3724,2.3724,2.3711,2.3494,2.3451,2.3494,2.3407,2.3363,2.3363,2.3422,2.3418,2.3566,2.3908,2.4797,2.5959,2.6736,2.8057,2.9493,3.0408,3.0642,3.0642,3.0642,3.0642,3.0642,3.0642,3.0642,3.0447,2.9931,2.9093,2.7999,2.7683,2.7229,2.6837,2.6589,2.5875,2.5159,2.4732,2.4318,2.3265,2.2625,2.1994,2.1302,2.0554,1.9722,1.8899,1.851,1.8137,1.7346,1.6868,1.6103,1.5378,1.4638,1.3951,1.2977,1.2707,1.2458,1.1981,1.1677,1.1608,1.1545,1.1428,1.1185,1.1178,1.1059,1.0828,1.0281,0.9983,0.9666,0.9238,0.9244,0.9406,0.9215,0.9052,0.8784,0.8652,0.837,0.8088,0.8187,0.8236,0.8226,0.8177,0.8083,0.8052,0.7952,0.8016,0.8016,0.7972,0.7987,0.7877,0.7751,0.7695,0.7588,0.7122,0.6703,0.6798,0.6872,0.6904,0.6962,0.6985,0.7041,0.7151,2.6059,2.6043,2.6043,2.5828,2.5406,2.502,2.4768,2.4608,2.423,2.4036,2.4036,2.4342,2.4384,2.4261,2.4204,2.4219,2.4067,2.3769,2.3538,2.3538,2.3612,2.3729,2.3818,2.4178,2.4311,2.443,2.4776,2.5604,2.6585,2.7326,2.8565,3.0074,3.0451,3.0642,3.0642,3.0642,3.0642,3.0642,3.0642,3.0642,3.0507,3.0007,2.9546,2.9044,2.826,2.755,2.7351,2.6934,2.6047,2.5048,2.482,2.4268,2.3303,2.3053,2.264,2.1851,2.0843,1.9626,1.8804,1.8426,1.7894,1.7113,1.6648,1.6148,1.5457,1.4849,1.4282,1.3536,1.3399,1.3061,1.2573,1.2389,1.2328,1.2212,1.1973,1.1973,1.1911,1.1483,1.1247,1.087,1.0508,1.0395,1.0161,1.0288,1.0351,1.0161,0.9907,0.9564,0.9378,0.9104,0.8992,0.9081,0.9128,0.9122,0.9128,0.904,0.8964,0.8837,0.8832,0.8826,0.8843,0.8801,0.8398,0.8275,0.827,0.8027,0.7461,0.7096,0.6813,0.6869,0.7111,0.6992,0.6776,0.6937,0.7161,2.6203,2.6203,2.6203,2.6079,2.5864,2.5443,2.5198,2.5082,2.4728,2.4542,2.4589,2.4704,2.4723,2.4681,2.4617,2.4477,2.4302,2.4082,2.3797,2.3891,2.4217,2.4557,2.4724,2.5121,2.5409,2.5453,2.589,2.6757,2.7491,2.7871,2.8695,3.0351,3.0642,3.0642,3.0628,3.0642,3.0642,3.0642,3.0642,3.0642,3.0507,3.0326,3.0007,2.9623,2.8967,2.8441,2.792,2.7391,2.6541,2.5538,2.5065,2.428,2.3378,2.304,2.2699,2.1668,2.119,2.0216,1.9187,1.8443,1.7612,1.6929,1.6396,1.5968,1.5439,1.5167,1.4709,1.4128,1.404,1.3708,1.321,1.3105,1.3061,1.2948,1.2712,1.2712,1.2642,1.2097,1.1732,1.1351,1.1045,1.0926,1.08,1.0681,1.0611,1.0421,1.0295,1.0161,1.0098,1.0123,1.0053,1.0021,1.0015,1.0009,0.9958,0.9913,0.9932,0.9894,0.9894,0.9818,0.973,0.9597,0.9209,0.907,0.907,0.8634,0.7952,0.7847,0.7877,0.7635,0.7329,0.725,0.7179,0.7268,0.7601,2.6274,2.6203,2.6203,2.6203,2.6151,2.5721,2.5556,2.5631,2.5253,2.5059,2.5052,2.5069,2.5107,2.5163,2.5144,2.5013,2.4936,2.4658,2.4587,2.4805,2.5213,2.5648,2.5994,2.6424,2.6605,2.6443,2.7084,2.8039,2.8656,2.8966,2.9485,3.0778,3.0911,3.0747,3.0687,3.0807,3.0866,3.0642,3.0642,3.0642,3.0582,3.0582,3.0312,2.9993,2.9623,2.9296,2.8492,2.7656,2.6687,2.5602,2.4861,2.4079,2.3253,2.2845,2.2531,2.1728,2.1292,2.0546,1.9477,1.857,1.7547,1.6777,1.6224,1.577,1.5498,1.541,1.5274,1.4751,1.47,1.4346,1.3945,1.3742,1.3734,1.3683,1.3511,1.3502,1.3433,1.2887,1.2458,1.2212,1.1841,1.1351,1.1233,1.0996,1.0807,1.0618,1.0624,1.0624,1.0688,1.0758,1.073,1.0577,1.0471,1.0471,1.0555,1.0624,1.0694,1.0688,1.0688,1.0688,1.0471,1.0319,1.0123,1.0034,0.9882,0.9781,0.9378,0.9192,0.8941,0.8501,0.8067,0.7851,0.7795,0.7846,0.8073,2.6486,2.6203,2.6203,2.6203,2.6168,2.5738,2.5758,2.6043,2.5631,2.5465,2.5481,2.5497,2.5696,2.5914,2.5826,2.5895,2.6349,2.5592,2.5846,2.6279,2.658,2.6855,2.7232,2.7656,2.7996,2.8151,2.8418,2.9247,3.0211,3.02,3.0677,3.1342,3.1462,3.1116,3.097,3.119,3.1029,3.0747,3.0642,3.0642,3.0642,3.0642,3.0507,3.0372,2.987,2.9282,2.8542,2.7546,2.6504,2.5345,2.4593,2.3791,2.305,2.2665,2.2257,2.1757,2.1204,2.0441,1.9562,1.8554,1.738,1.6461,1.5924,1.5672,1.5488,1.542,1.5342,1.5264,1.5167,1.4944,1.4604,1.4427,1.4392,1.4341,1.4222,1.4163,1.3983,1.3554,1.3191,1.3061,1.2696,1.2151,1.1841,1.1725,1.1059,1.0807,1.0764,1.0771,1.0877,1.0933,1.1024,1.0947,1.0863,1.0821,1.0982,1.0982,1.0891,1.0877,1.094,1.0954,1.0961,1.0877,1.0703,1.0752,1.06,1.0703,1.0737,1.0288,0.9767,0.9227,0.886,0.8705,0.8587,0.8635,0.872,2.694,2.6808,2.6607,2.6399,2.6168,2.599,2.6026,2.6132,2.599,2.5937,2.5954,2.597,2.6282,2.6681,2.6768,2.682,2.721,2.7008,2.7025,2.7254,2.7583,2.8035,2.8495,2.8807,2.9127,2.9187,2.9329,2.9717,3.0434,3.0909,3.1552,3.1908,3.2129,3.2013,3.1875,3.158,3.1248,3.094,3.0836,3.0836,3.0762,3.0702,3.0702,3.0568,3.0433,3.0115,2.9572,2.816,2.7042,2.5913,2.4684,2.3679,2.2799,2.2399,2.1944,2.1491,2.0879,2.0295,1.9473,1.8469,1.7444,1.6368,1.5961,1.5808,1.5634,1.5488,1.542,1.541,1.541,1.5303,1.5138,1.5021,1.505,1.4991,1.4874,1.4815,1.4579,1.4154,1.3974,1.3846,1.3364,1.2818,1.2642,1.252,1.1663,1.0996,1.0954,1.0982,1.1227,1.1339,1.1505,1.1531,1.1435,1.1353,1.1452,1.1234,1.108,1.1136,1.1199,1.1136,1.1206,1.1178,1.108,1.119,1.1197,1.1226,1.1115,1.0989,1.0591,1.0116,0.985,0.966,0.9539,0.9418,0.9527,2.7276,2.7149,2.6841,2.6572,2.6364,2.6239,2.6203,2.6203,2.6168,2.6355,2.6507,2.6554,2.6924,2.7465,2.7618,2.7877,2.8078,2.8037,2.8117,2.8398,2.8812,2.916,2.9414,2.9668,2.987,2.9865,2.9946,3.0243,3.0927,3.1334,3.203,3.2626,3.2819,3.2746,3.236,3.2059,3.1465,3.1058,3.1014,3.1028,3.0895,3.0821,3.0821,3.0702,3.0628,3.0185,2.9611,2.8335,2.7256,2.6082,2.484,2.3508,2.2718,2.2043,2.1428,2.0952,2.0464,2.0002,1.9308,1.8429,1.771,1.6933,1.6343,1.6165,1.5974,1.575,1.5748,1.541,1.5526,1.5633,1.5526,1.5352,1.5294,1.5235,1.5235,1.5177,1.5118,1.4815,1.4688,1.4569,1.4145,1.3786,1.3322,1.3141,1.2642,1.2011,1.1999,1.2022,1.2092,1.2203,1.2235,1.2243,1.2135,1.1994,1.1921,1.1774,1.1696,1.1674,1.1659,1.1358,1.1351,1.1344,1.1406,1.1406,1.1476,1.1553,1.1498,1.131,1.1219,1.1066,1.0739,1.0425,1.0438,1.0325,1.0345,2.7504,2.7164,2.6858,2.6725,2.6691,2.6312,2.6203,2.622,2.6286,2.6643,2.7133,2.7241,2.7694,2.8219,2.8334,2.8715,2.9107,2.8934,2.9121,2.9789,2.9701,3.0025,3.0185,3.0351,3.0342,3.0426,3.0434,3.0662,3.1358,3.1501,3.2319,3.3093,3.3224,3.3239,3.2716,3.2195,3.1637,3.1176,3.119,3.1146,3.1073,3.094,3.094,3.0955,3.0836,3.0305,2.9416,2.8418,2.7329,2.6181,2.45,2.3397,2.3067,2.1692,2.0977,2.0711,2.0164,1.9886,1.9695,1.8685,1.8147,1.7644,1.7045,1.6757,1.6519,1.6341,1.6146,1.5991,1.6053,1.6026,1.5748,1.5526,1.5642,1.5526,1.5584,1.5468,1.541,1.5294,1.5108,1.505,1.505,1.4855,1.4241,1.374,1.3408,1.3144,1.314,1.3127,1.297,1.2919,1.2891,1.2842,1.2761,1.2732,1.2589,1.2414,1.2313,1.2289,1.2142,1.1917,1.17,1.163,1.1692,1.1622,1.1717,1.1881,1.1779,1.156,1.1476,1.1337,1.1337,1.1149,1.1163,1.1108,1.0982,2.7968,2.7836,2.7504,2.7352,2.7289,2.6758,2.6417,2.6338,2.6684,2.7075,2.7367,2.7773,2.8411,2.89,2.9145,2.9433,2.9955,3.0046,3.0327,3.0377,3.0284,3.0342,3.0468,3.0468,3.0468,3.0468,3.0559,3.0609,3.0815,3.1229,3.1719,3.2354,3.3251,3.3551,3.3252,3.281,3.2336,3.1823,3.1582,3.1307,3.1249,3.1176,3.1117,3.1132,3.094,3.0382,2.9493,2.8483,2.7413,2.6385,2.4668,2.3636,2.3111,2.1781,2.1038,2.0643,2.0131,1.9811,1.9798,1.9331,1.8845,1.8298,1.7765,1.7478,1.742,1.7173,1.6935,1.6729,1.677,1.6768,1.6708,1.6641,1.6585,1.6151,1.5979,1.5748,1.5575,1.5468,1.5294,1.5294,1.5294,1.5294,1.4885,1.4554,1.4246,1.3974,1.3943,1.3648,1.3492,1.3348,1.333,1.3322,1.3287,1.333,1.3348,1.3199,1.294,1.2739,1.2725,1.2586,1.236,1.2158,1.2174,1.2258,1.2219,1.2188,1.2066,1.1919,1.1685,1.1553,1.1483,1.1406,1.1281,1.1219,1.1149,2.8182,2.8154,2.7818,2.7701,2.7612,2.71,2.6793,2.6902,2.7517,2.7905,2.8156,2.8588,2.9145,2.9626,2.9832,2.9947,3.051,3.0468,3.0452,3.0468,3.0468,3.0468,3.0468,3.0468,3.0468,3.0468,3.0468,3.0501,3.0609,3.0964,3.1421,3.1951,3.2796,3.3346,3.3453,3.3374,3.2949,3.2382,3.1966,3.1697,3.1467,3.1292,3.1292,3.1175,3.0866,3.0395,2.9704,2.8749,2.7621,2.6526,2.5265,2.3933,2.311,2.2179,2.1238,2.0623,2.0156,1.985,1.9798,1.9747,1.9319,1.8886,1.8394,1.8228,1.8147,1.7943,1.7596,1.7429,1.7542,1.7389,1.7302,1.7357,1.7146,1.6708,1.6539,1.6255,1.5911,1.5806,1.5808,1.575,1.5566,1.5498,1.5468,1.5352,1.5108,1.4874,1.4715,1.4401,1.4103,1.4001,1.3983,1.3992,1.4068,1.4218,1.4187,1.3978,1.3657,1.3294,1.3194,1.3223,1.2993,1.2757,1.2801,1.2882,1.2868,1.2792,1.2472,1.2212,1.2042,1.1809,1.156,1.1483,1.1406,1.1337,1.1337,2.8245,2.819,2.7882,2.7836,2.7777,2.7712,2.7738,2.7961,2.8621,2.9084,2.9432,2.9459,2.9871,3.0394,3.0477,3.0477,3.0493,3.0468,3.0468,3.0468,3.0468,3.0468,3.0468,3.0468,3.0468,3.0468,3.0468,3.0468,3.0526,3.0634,3.0981,3.1603,3.2315,3.2954,3.3348,3.3502,3.3188,3.2678,3.2327,3.1966,3.1582,3.1409,3.1319,3.1113,3.0713,3.0033,2.9326,2.8537,2.7489,2.6367,2.5191,2.4218,2.3285,2.2255,2.1394,2.0746,2.0207,2.0093,2.0055,2.0093,1.9901,1.9579,1.9085,1.8847,1.873,1.8626,1.836,1.8172,1.8123,1.7836,1.7607,1.7519,1.7479,1.7313,1.7202,1.6866,1.6472,1.6353,1.6321,1.6226,1.5926,1.579,1.5836,1.5758,1.57,1.5565,1.54,1.5313,1.5069,1.4942,1.4887,1.4945,1.5032,1.5187,1.507,1.4662,1.4332,1.387,1.3839,1.3857,1.3597,1.3434,1.3494,1.3502,1.3558,1.339,1.3193,1.2834,1.2421,1.2182,1.2126,1.1707,1.17,1.1553,1.1483,2.852,2.902,2.8963,2.9189,2.974,3.0181,3.0015,2.9449,2.9638,2.9901,3.0246,3.051,3.0677,3.0917,3.0922,3.0757,3.0593,3.0468,3.0468,3.0468,3.0468,3.0468,3.0468,3.0468,3.0468,3.0468,3.0468,3.0468,3.0468,3.0468,3.0891,3.1603,3.1802,3.2348,3.2784,3.309,3.2966,3.283,3.254,3.213,3.1652,3.1422,3.1213,3.0768,3.044,2.9754,2.8979,2.8485,2.7543,2.6421,2.5458,2.4607,2.3873,2.2725,2.1779,2.1272,2.1028,2.0966,2.0894,2.0597,2.0346,2.0245,1.9825,1.9567,1.9478,1.931,1.9089,1.8883,1.8778,1.8536,1.8407,1.8324,1.8147,1.7929,1.782,1.7534,1.7146,1.6944,1.6928,1.6738,1.644,1.6462,1.64,1.6208,1.6151,1.6073,1.6026,1.6019,1.5934,1.574,1.5736,1.5726,1.5545,1.5583,1.5517,1.5196,1.4887,1.4576,1.4488,1.4363,1.3954,1.3883,1.4114,1.4223,1.4218,1.4146,1.4076,1.3614,1.3053,1.3067,1.3016,1.243,1.1987,1.1964,1.1762,2.9193,2.9797,2.9851,3.0279,3.0975,3.1492,3.1404,3.1132,3.0976,3.1005,3.1061,3.1223,3.1342,3.1278,3.1155,3.0965,3.0781,3.0551,3.0468,3.0468,3.051,3.0468,3.0468,3.051,3.0468,3.0468,3.051,3.0468,3.0468,3.0501,3.0824,3.109,3.1146,3.1636,3.2039,3.2309,3.2422,3.2462,3.2405,3.2144,3.1794,3.1354,3.0836,3.0462,3.0133,2.9295,2.8667,2.8323,2.7503,2.6619,2.5834,2.5224,2.4285,2.3005,2.2184,2.1718,2.1417,2.1321,2.1224,2.1077,2.093,2.0845,2.0597,2.036,2.0054,1.9797,1.9631,1.9465,1.9411,1.9396,1.9356,1.9198,1.8934,1.8614,1.8441,1.8213,1.7929,1.7655,1.7423,1.7262,1.7183,1.7255,1.7145,1.6842,1.6662,1.6652,1.6673,1.6658,1.6472,1.6148,1.6265,1.6377,1.6069,1.5857,1.5746,1.5652,1.5332,1.5109,1.5031,1.4845,1.4415,1.4443,1.474,1.4836,1.4827,1.4737,1.4519,1.4227,1.3811,1.3831,1.3663,1.3144,1.2797,1.2693,1.2499,3.0032,3.0618,3.0672,3.1135,3.1742,3.1849,3.2188,3.2798,3.2366,3.2154,3.1839,3.1768,3.176,3.1672,3.1472,3.1244,3.1004,3.074,3.0658,3.0551,3.0634,3.0658,3.074,3.0593,3.0675,3.0593,3.051,3.0468,3.0468,3.0485,3.0501,3.0526,3.0551,3.0974,3.1437,3.152,3.172,3.1978,3.1946,3.1768,3.1744,3.1177,3.0428,3.0183,2.9439,2.8577,2.8353,2.7904,2.7325,2.6826,2.6359,2.5789,2.4437,2.338,2.2676,2.2217,2.1921,2.1813,2.1718,2.1575,2.1479,2.1431,2.1417,2.1059,2.0638,2.022,1.9991,1.9875,1.9822,1.9758,1.9654,1.9473,1.9198,1.904,1.8934,1.8721,1.8441,1.8213,1.8084,1.7956,1.7965,1.7984,1.7809,1.7556,1.7291,1.728,1.7256,1.7289,1.7143,1.6779,1.6824,1.7015,1.6634,1.6318,1.611,1.5961,1.578,1.5644,1.5498,1.5342,1.4954,1.51,1.5342,1.5284,1.5157,1.4991,1.4805,1.4591,1.4455,1.4231,1.4019,1.3826,1.3622,1.3579,1.3224,3.0374,3.1457,3.2063,3.2456,3.2581,3.263,3.2702,3.2916,3.2802,3.2694,3.2545,3.2318,3.2141,3.2128,3.1987,3.1677,3.1184,3.1083,3.0965,3.0965,3.0965,3.1083,3.124,3.1004,3.0942,3.0861,3.0699,3.0468,3.0468,3.0468,3.0468,3.0468,3.0468,3.0667,3.0858,3.0849,3.111,3.1483,3.1364,3.1326,3.1244,3.0763,3.0151,2.9666,2.891,2.8351,2.806,2.776,2.722,2.6737,2.6504,2.5616,2.4273,2.3868,2.3366,2.2867,2.2626,2.252,2.2356,2.217,2.203,2.1874,2.1732,2.1458,2.1082,2.0673,2.0385,2.0246,2.013,2.0105,1.9977,1.9733,1.9565,1.9473,1.942,1.921,1.8958,1.8839,1.8721,1.8685,1.8715,1.8584,1.8412,1.8216,1.7997,1.7881,1.7897,1.791,1.7888,1.7678,1.7401,1.7463,1.7196,1.6918,1.6658,1.6462,1.6352,1.6004,1.5732,1.5576,1.5488,1.542,1.542,1.542,1.5294,1.5177,1.5118,1.5225,1.4991,1.4697,1.4628,1.4505,1.4622,1.4675,1.4123,3.0928,3.1894,3.2608,3.2916,3.2948,3.2916,3.2948,3.2979,3.2948,3.2916,3.2902,3.2705,3.2565,3.2503,3.2384,3.2162,3.1585,3.1452,3.1376,3.1376,3.1376,3.149,3.149,3.1355,3.1123,3.1004,3.0699,3.0468,3.0468,3.0468,3.0468,3.0468,3.0468,3.0468,3.0468,3.0559,3.0709,3.1064,3.0795,3.0758,3.0781,3.0353,3.0071,2.95,2.8897,2.8308,2.8022,2.776,2.743,2.6991,2.6732,2.6277,2.5346,2.4882,2.4288,2.3785,2.3475,2.3389,2.3064,2.2766,2.2569,2.237,2.231,2.2123,2.181,2.139,2.1179,2.104,2.0858,2.0759,2.0446,2.0169,2.0055,1.9978,1.9926,1.9811,1.9679,1.9531,1.9271,1.8987,1.8975,1.8857,1.8738,1.8673,1.8507,1.8519,1.8476,1.8433,1.8476,1.841,1.819,1.7989,1.7771,1.7599,1.7467,1.721,1.7066,1.6587,1.6052,1.6035,1.6014,1.5634,1.542,1.5488,1.5488,1.5362,1.5362,1.542,1.542,1.5177,1.5177,1.5284,1.542,1.542,1.4915,3.1347,3.2043,3.2688,3.2948,3.3011,3.2948,3.3011,3.3073,3.2979,3.2983,3.3001,3.2934,3.2916,3.277,3.2588,3.2403,3.2197,3.1932,3.1823,3.1787,3.175,3.1932,3.1823,3.1565,3.1338,3.1044,3.0699,3.0551,3.0468,3.0468,3.0468,3.0468,3.0468,3.0468,3.0468,3.0468,3.0567,3.0617,3.0533,3.0509,3.0364,3.0148,2.9989,2.958,2.9028,2.8431,2.8207,2.7978,2.771,2.7395,2.7051,2.6594,2.6202,2.5675,2.5124,2.4572,2.4143,2.3862,2.3463,2.3125,2.2976,2.2888,2.2933,2.2725,2.2369,2.2161,2.1907,2.1764,2.1588,2.1307,2.0953,2.0693,2.0597,2.0573,2.051,2.0459,2.031,2.0232,1.987,1.9482,1.9417,1.9352,1.9291,1.9239,1.9158,1.917,1.9064,1.9052,1.8999,1.8839,1.8643,1.8489,1.8384,1.827,1.8058,1.7865,1.7601,1.714,1.668,1.6644,1.6591,1.6273,1.5961,1.5644,1.5644,1.5634,1.5488,1.542,1.542,1.542,1.542,1.542,1.542,1.542,1.542,3.106,3.213,3.2732,3.3042,3.3086,3.3055,3.3086,3.3068,3.3086,3.3042,3.3078,3.306,3.3024,3.2993,3.2975,3.2798,3.2453,3.2283,3.2231,3.2214,3.2197,3.2369,3.2386,3.202,3.1657,3.124,3.0781,3.0551,3.0593,3.0551,3.0468,3.0468,3.0468,3.0468,3.0468,3.0468,3.0468,3.0468,3.0468,3.0468,3.0384,3.0174,2.9895,2.9595,2.9275,2.8732,2.84,2.8255,2.7944,2.7665,2.746,2.7051,2.6732,2.6385,2.5872,2.5319,2.4872,2.4397,2.3981,2.3554,2.3346,2.3068,2.3023,2.2888,2.268,2.268,2.2486,2.2395,2.217,2.1807,2.1506,2.1321,2.1188,2.1188,2.1175,2.1091,2.0997,2.0869,2.0669,2.0515,2.0438,2.0386,2.0396,2.0246,2.0053,1.9962,1.9633,1.9568,1.9218,1.9141,1.9064,1.8963,1.8874,1.8555,1.8177,1.817,1.7927,1.7556,1.7257,1.7211,1.7143,1.7062,1.6736,1.6291,1.6002,1.5956,1.579,1.5526,1.542,1.542,1.542,1.542,1.542,1.5469,1.5576]},{"header":{"parameterUnit":"m.s-1","parameterCategory":1,"la1":31.0,"la2":29.5877,"lo1":-88.7671,"lo2":-86.6584,"dy":0.0162,"dx":0.0185,"nx":115,"ny":88,"refTime":"2023-05-18T06:00:00:Z","depth":0,"parameterNumber":3,"parameterNumberName":"V-component_of_WINDS"},"data":[0.0,0.0,0.0,0.0,0.0,0.0,0.0,0.0,0.0,0.0,0.0,0.0,0.0,0.0,0.0,0.0,0.0,0.0,0.0,0.0,0.0,0.0,0.0,0.0,0.0,0.0,0.0,0.0,0.0,0.0,0.0,0.0,0.0,0.0,0.0,0.0,0.0,0.0,0.0,0.0,0.0,0.0,0.0,0.0,0.0,0.0,0.0,0.0,0.0,0.0,0.0,0.0,0.0,0.0,0.0,0.0,0.0,0.0,0.0,0.0,0.0,0.0,0.0,0.0,0.0,0.0,0.0,0.0,0.0,0.0,0.0,0.0,0.0,0.0,0.0,0.0,0.0,0.0,0.0,0.0,0.0,0.0,0.0,0.0,0.0,0.0,0.0,0.0,0.0,0.0,0.0,0.0,0.0,0.0,0.0,0.0,0.0,0.0,0.0,0.0,0.0,0.0,0.0,0.0,0.0,0.0,0.0,0.0,0.0,0.0,0.0,0.0,0.0,0.0,0.0,0.0,0.0,0.0,0.0,0.0,0.0,0.0,0.0,0.0,0.0,0.0,0.0,0.0,0.0,0.0,0.0,0.0,0.0,0.0,0.0,0.0,0.0,0.0,0.0,0.0,0.0,0.0,0.0,0.0,0.0,0.0,0.0,0.0,0.0,0.0,0.0,0.0,0.0,0.0,0.0,0.0,0.0,0.0,0.0,0.0,0.0,0.0,0.0,0.0,0.0,0.0,0.0,0.0,0.0,0.0,0.0,0.0,0.0,0.0,0.0,0.0,0.0,0.0,0.0,0.0,0.0,0.0,0.0,0.0,0.0,0.0,0.0,0.0,0.0,0.0,0.0,0.0,0.0,0.0,0.0,0.0,0.0,0.0,0.0,0.0,0.0,0.0,0.0,0.0,0.0,0.0,0.0,0.0,0.0,0.0,0.0,0.0,0.0,0.0,0.0,0.0,0.0,0.0,0.0,0.0,0.0,0.0,0.0,0.0,0.0,0.0,0.0,0.0,0.0,0.0,0.0,0.0,0.0,0.0,0.0,0.0,0.0,0.0,0.0,0.0,0.0,0.0,0.0,0.0,0.0,0.0,0.0,0.0,0.0,0.0,0.0,0.0,0.0,0.0,0.0,0.0,0.0,0.0,0.0,0.0,0.0,0.0,0.0,0.0,0.0,0.0,0.0,0.0,0.0,0.0,0.0,0.0,0.0,0.0,0.0,0.0,0.0,0.0,0.0,0.0,0.0,0.0,0.0,0.0,0.0,0.0,0.0,0.0,0.0,0.0,0.0,0.0,0.0,0.0,0.0,0.0,0.0,0.0,0.0,0.0,0.0,0.0,0.0,0.0,0.0,0.0,0.0,0.0,0.0,0.0,0.0,0.0,0.0,0.0,0.0,0.0,0.0,0.0,0.0,0.0,0.0,0.0,0.0,0.0,0.0,0.0,0.0,0.0,0.0,0.0,0.0,0.0,0.0,0.0,0.0,0.0,0.0,0.0,0.0,0.0,0.0,0.0,0.0,0.0,0.0,0.0,0.0,0.0,0.0,0.0,0.0,0.0,0.0,0.0,0.0,0.0,0.0,0.0,0.0,0.0,0.0,0.0,0.0,0.0,0.0,0.0,0.0,0.0,0.0,0.0,0.0,0.0,0.0,0.0,0.0,0.0,0.0,0.0,0.0,0.0,0.0,0.0,0.0,0.0,0.0,0.0,0.0,0.0,0.0,0.0,0.0,0.0,0.0,0.0,0.0,0.0,0.0,0.0,0.0,0.0,0.0,0.0,0.0,0.0,0.0,0.0,0.0,0.0,0.0,0.0,0.0,0.0,0.0,0.0,0.0,0.0,0.0,0.0,0.0,0.0,0.0,0.0,0.0,0.0,0.0,0.0,0.0,0.0,0.0,0.0,0.0,0.0,0.0,0.0,0.0,0.0,0.0,0.0,0.0,0.0,0.0,0.0,0.0,0.0,0.0,0.0,0.0,0.0,0.0,0.0,0.0,0.0,0.0,0.0,0.0,0.0,0.0,0.0,0.0,0.0,0.0,0.0,0.0,0.0,0.0,0.0,0.0,0.0,0.0,0.0,0.0,0.0,0.0,0.0,0.0,0.0,0.0,0.0,0.0,0.0,0.0,0.0,0.0,0.0,0.0,0.0,0.0,0.0,0.0,0.0,0.0,0.0,0.0,0.0,0.0,0.0,0.0,0.0,0.0,0.0,0.0,0.0,0.0,0.0,0.0,0.0,0.0,0.0,0.0,0.0,0.0,0.0,0.0,0.0,0.0,0.0,0.0,0.0,0.0,0.0,0.0,0.0,0.0,0.0,0.0,0.0,0.0,0.0,0.0,0.0,0.0,0.0,0.0,0.0,0.0,0.0,0.0,0.0,0.0,0.0,0.0,0.0,0.0,0.0,0.0,0.0,0.0,0.0,0.0,0.0,0.0,0.0,0.0,0.0,0.0,0.0,0.0,0.0,0.0,0.0,0.0,0.0,0.0,0.0,0.0,0.0,0.0,0.0,0.0,0.0,0.0,0.0,0.0,0.0,0.0,0.0,0.0,0.0,0.0,0.0,0.0,0.0,0.0,0.0,0.0,0.0,0.0,0.0,0.0,0.0,0.0,0.0,0.0,0.0,0.0,0.0,0.0,0.0,0.0,0.0,0.0,0.0,0.0,0.0,0.0,0.0,0.0,0.0,0.0,0.0,0.0,0.0,0.0,0.0,0.0,0.0,0.0,0.0,0.0,0.0,0.0,0.0,0.0,0.0,0.0,0.0,0.0,0.0,0.0,0.0,0.0,0.0,0.0,0.0,0.0,0.0,0.0,0.0,0.0,0.0,0.0,0.0,0.0,0.0,0.0,0.0,0.0,0.0,0.0,0.0,0.0,0.0,0.0,0.0,0.0,0.0,0.0,0.0,0.0,0.0,0.0,0.0,0.0,0.0,0.0,0.0,0.0,0.0,0.0,0.0,0.0,0.0,0.0,0.0,0.0,0.0,0.0,0.0,0.0,0.0,0.0,0.0,0.0,0.0,0.0,0.0,0.0,0.0,0.0,0.0,0.0,0.0,0.0,0.0,0.0,0.0,0.0,0.0,0.0,0.0,0.0,0.0,0.0,0.0,0.0,0.0,0.0,0.0,0.0,0.0,0.0,0.0,0.0,0.0,0.0,0.0,0.0,0.0,0.0,0.0,0.0,0.0,0.0,0.0,0.0,0.0,0.0,0.0,0.0,0.0,0.0,0.0,0.0,0.0,0.0,0.0,0.0,0.0,0.0,0.0,0.0,0.0,0.0,0.0,0.0,0.0,0.0,0.0,0.0,0.0,0.0,0.0,0.0,0.0,0.0,0.0,0.0,0.0,0.0,0.0,0.0,0.0,0.0,0.0,0.0,0.0,0.0,0.0,0.0,0.0,0.0,0.0,0.0,0.0,0.0,0.0,0.0,0.0,0.0,0.0,0.0,0.0,0.0,0.0,0.0,0.0,0.0,0.0,0.0,0.0,0.0,0.0,0.0,0.0,0.0,0.0,0.0,0.0,0.0,0.0,0.0,0.0,0.0,0.0,0.0,0.0,0.0,0.0,0.0,0.0,0.0,0.0,0.0,0.0,0.0,0.0,0.0,0.0,0.0,0.0,0.0,0.0,0.0,0.0,0.0,0.0,0.0,0.0,0.0,0.0,0.0,0.0,0.0,0.0,0.0,0.0,0.0,0.0,0.0,0.0,0.0,0.0,0.0,0.0,0.0,0.0,0.0,0.0,0.0,0.0,0.0,0.0,0.0,0.0,0.0,0.0,0.0,0.0,0.0,0.0,0.0,0.0,0.0,0.0,0.0,0.0,0.0,0.0,0.0,0.0,0.0,0.0,0.0,0.0,0.0,0.0,0.0,0.0,0.0,0.0,0.0,0.0,0.0,0.0,0.0,0.0,0.0,0.0,0.0,0.0,0.0,0.0,0.0,0.0,0.0,0.0,0.0,0.0,0.0,0.0,0.0,0.0,0.0,0.0,0.0,0.0,0.0,0.0,0.0,0.0,0.0,0.0,0.0,0.0,0.0,0.0,0.0,0.0,0.0,0.0,0.0,0.0,0.0,0.0,0.0,0.0,0.0,0.0,0.0,0.0,0.0,0.0,0.0,0.0,0.0,0.0,0.0,0.0,0.0,0.0,0.0,0.0,0.0,0.0,0.0,0.0,0.0,0.0,0.0,0.0,0.0,0.0,0.0,0.0,0.0,0.0,0.0,0.0,0.0,0.0,0.0,0.0,0.0,0.0,0.0,0.0,-0.6308,0.0,0.0,0.0,0.0,0.0,0.0,0.0,0.0,0.0,0.0,0.0,0.0,0.0,0.0,0.0,0.0,0.0,0.0,0.0,0.0,0.0,0.0,0.0,0.0,0.0,0.0,0.0,0.0,0.0,0.0,0.0,0.0,0.0,0.0,0.0,0.0,0.0,0.0,0.0,0.0,0.0,0.0,0.0,0.0,0.0,0.0,0.0,0.0,0.0,0.0,0.0,0.0,0.0,0.0,0.0,0.0,0.0,0.0,0.0,0.0,0.0,0.0,0.0,0.0,0.0,0.0,0.0,0.0,0.0,0.0,0.0,0.0,0.0,0.0,0.0,0.0,0.0,0.0,0.0,0.0,0.0,0.0,0.0,0.0,0.0,0.0,0.0,0.0,0.0,0.0,0.0,0.0,0.0,0.0,0.0,0.0,0.0,0.0,0.0,0.0,0.0,0.0,0.0,0.0,0.0,0.0,0.0,0.0,0.0,0.0,-0.6403,-0.6109,-0.6465,-0.6478,-0.6116,0.0,0.0,0.0,0.0,0.0,0.0,0.0,0.0,0.0,0.0,0.0,0.0,0.0,0.0,0.0,0.0,0.0,0.0,0.0,0.0,0.0,0.0,0.0,0.0,0.0,0.0,0.0,0.0,0.0,0.0,0.0,0.0,0.0,0.0,0.0,0.0,0.0,0.0,0.0,0.0,0.0,0.0,0.0,0.0,0.0,0.0,0.0,0.0,0.0,0.0,0.0,0.0,0.0,0.0,0.0,0.0,0.0,0.0,0.0,0.0,0.0,0.0,0.0,0.0,0.0,0.0,0.0,0.0,0.0,0.0,0.0,0.0,0.0,0.0,0.0,0.0,0.0,0.0,0.0,0.0,0.0,0.0,0.0,0.0,0.0,0.0,0.0,0.0,0.0,0.0,0.0,0.0,0.0,0.0,0.0,0.0,0.0,0.0,0.0,0.0,0.0,0.0,0.0,0.0,0.0,0.0,0.0,0.0,0.0,0.0,0.0,0.0,-0.6318,-0.6394,-0.5979,0.0,0.0,0.0,0.0,0.0,0.0,0.0,0.0,0.0,0.0,0.0,0.0,0.0,0.0,0.0,0.0,0.0,0.0,0.0,0.0,0.0,0.0,0.0,0.0,0.0,0.0,0.0,0.0,0.0,0.0,0.0,0.0,0.0,0.0,0.0,0.0,0.0,0.0,0.0,0.0,0.0,0.0,0.0,0.0,0.0,0.0,0.0,0.0,0.0,0.0,0.0,0.0,0.0,0.0,0.0,0.0,0.0,0.0,0.0,0.0,0.0,0.0,0.0,0.0,0.0,0.0,0.0,0.0,0.0,0.0,0.0,0.0,0.0,0.0,0.0,0.0,0.0,0.0,0.0,0.0,0.0,0.0,0.0,0.0,0.0,0.0,0.0,0.0,0.0,0.0,0.0,0.0,0.0,0.0,0.0,0.0,0.0,0.0,0.0,0.0,0.0,0.0,0.0,0.0,0.0,0.0,0.0,0.0,0.0,0.0,-0.619,-0.5941,-0.6203,0.0,-0.5976,0.0,0.0,0.0,0.0,0.0,0.0,0.0,0.0,0.0,0.0,0.0,0.0,0.0,0.0,0.0,0.0,0.0,0.0,0.0,0.0,0.0,0.0,0.0,0.0,0.0,0.0,0.0,0.0,0.0,0.0,0.0,0.0,0.0,0.0,0.0,0.0,0.0,0.0,0.0,0.0,0.0,0.0,0.0,0.0,0.0,0.0,0.0,0.0,0.0,0.0,0.0,0.0,0.0,0.0,0.0,0.0,0.0,0.0,0.0,0.0,0.0,0.0,0.0,0.0,0.0,0.0,0.0,0.0,0.0,0.0,0.0,0.0,0.0,0.0,0.0,0.0,0.0,0.0,0.0,0.0,0.0,0.0,0.0,0.0,0.0,0.0,0.0,0.0,0.0,0.0,0.0,0.0,0.0,0.0,0.0,0.0,0.0,0.0,0.0,0.0,0.0,0.0,0.0,0.0,0.0,0.0,0.0,0.0,0.0,0.0,-0.5956,-0.5964,-0.6046,-0.6013,0.0,0.0,0.0,0.0,0.0,0.0,0.0,0.0,0.0,0.0,0.0,0.0,0.0,0.0,0.0,0.0,0.0,0.0,0.0,0.0,0.0,0.0,0.0,0.0,0.0,0.0,0.0,0.0,0.0,0.0,0.0,0.0,0.0,0.0,0.0,0.0,0.0,0.0,0.0,0.0,0.0,0.0,0.0,0.0,0.0,0.0,0.0,0.0,0.0,0.0,0.0,0.0,0.0,0.0,0.0,0.0,0.0,0.0,0.0,0.0,0.0,0.0,0.0,0.0,0.0,0.0,0.0,0.0,0.0,0.0,0.0,0.0,0.0,0.0,0.0,0.0,0.0,0.0,0.0,0.0,0.0,0.0,0.0,0.0,0.0,0.0,0.0,0.0,0.0,0.0,0.0,0.0,0.0,0.0,0.0,0.0,0.0,0.0,0.0,0.0,0.0,0.0,0.0,0.0,0.0,0.0,0.0,0.0,0.0,0.0,-0.5864,-0.5862,-0.5924,-0.5972,-0.5852,-0.5644,0.0,0.0,0.0,0.0,0.0,0.0,0.0,0.0,0.0,0.0,0.0,0.0,0.0,0.0,0.0,0.0,0.0,0.0,0.0,0.0,0.0,0.0,0.0,0.0,0.0,0.0,0.0,0.0,0.0,0.0,0.0,0.0,0.0,0.0,0.0,0.0,0.0,0.0,0.0,0.0,0.0,0.0,0.0,0.0,0.0,0.0,0.0,0.0,0.0,0.0,0.0,0.0,0.0,0.0,0.0,0.0,0.0,0.0,0.0,0.0,0.0,0.0,0.0,0.0,0.0,0.0,0.0,0.0,0.0,0.0,0.0,0.0,0.0,0.0,0.0,0.0,0.0,0.0,0.0,0.0,0.0,0.0,0.0,0.0,0.0,0.0,0.0,0.0,0.0,0.0,0.0,0.0,0.0,0.0,0.0,0.0,0.0,0.0,0.0,0.0,0.0,0.0,0.0,0.0,0.0,0.0,0.0,0.0,-0.5703,-0.5864,-0.5934,-0.5909,-0.5793,-0.5715,0.0,0.0,0.0,0.0,0.0,0.0,0.0,0.0,0.0,0.0,0.0,0.0,0.0,0.0,0.0,0.0,0.0,0.0,0.0,0.0,0.0,0.0,0.0,0.0,0.0,0.0,0.0,0.0,0.0,0.0,0.0,0.0,0.0,0.0,0.0,0.0,0.0,0.0,0.0,0.0,0.0,0.0,0.0,0.0,0.0,0.0,0.0,0.0,0.0,0.0,0.0,0.0,0.0,0.0,0.0,0.0,0.0,0.0,0.0,0.0,0.0,0.0,0.0,0.0,0.0,0.0,0.0,0.0,0.0,0.0,0.0,0.0,0.0,0.0,0.0,0.0,0.0,0.0,0.0,0.0,0.0,0.0,0.0,0.0,0.0,0.0,0.0,0.0,0.0,0.0,0.0,0.0,0.0,0.0,0.0,0.0,0.0,0.0,0.0,0.0,0.0,0.0,0.0,0.0,0.0,0.0,0.0,0.0,0.0,-0.5458,-0.5561,-0.5706,-0.6036,-0.607,-0.6345,0.0,0.0,0.0,0.0,0.0,0.0,0.0,0.0,0.0,0.0,0.0,0.0,0.0,0.0,0.0,0.0,0.0,0.0,0.0,0.0,0.0,0.0,0.0,0.0,0.0,0.0,0.0,0.0,0.0,0.0,0.0,0.0,0.0,0.0,0.0,0.0,0.0,0.0,0.0,0.0,0.0,0.0,0.0,0.0,0.0,0.0,0.0,0.0,0.0,0.0,0.0,0.0,0.0,0.0,0.0,0.0,0.0,0.0,0.0,0.0,0.0,0.0,0.0,0.0,0.0,0.0,0.0,0.0,0.0,0.0,0.0,0.0,0.0,0.0,0.0,0.0,0.0,0.0,0.0,0.0,0.0,0.0,0.0,0.0,0.0,0.0,0.0,0.0,0.0,0.0,0.0,0.0,0.0,0.0,0.0,0.0,0.0,0.0,0.0,0.0,0.0,0.0,0.0,0.0,0.0,0.0,0.0,0.0,0.0,-0.5654,0.0,-0.6197,-0.6169,-0.6559,-0.6939,0.0,0.0,0.0,0.0,0.0,0.0,0.0,0.0,0.0,0.0,0.0,0.0,0.0,0.0,0.0,0.0,0.0,0.0,0.0,0.0,0.0,0.0,0.0,0.0,0.0,0.0,0.0,0.0,0.0,0.0,0.0,0.0,0.0,0.0,0.0,0.0,0.0,0.0,0.0,0.0,0.0,0.0,0.0,0.0,0.0,0.0,0.0,0.0,0.0,0.0,0.0,0.0,0.0,0.0,0.0,0.0,0.0,0.0,0.0,0.0,0.0,0.0,0.0,0.0,0.0,0.0,0.0,0.0,0.0,0.0,0.0,0.0,0.0,0.0,0.0,0.0,0.0,0.0,0.0,0.0,0.0,0.0,0.0,0.0,0.0,0.0,0.0,0.0,0.0,0.0,0.0,0.0,0.0,0.0,0.0,0.0,0.0,0.0,0.0,0.0,0.0,0.0,0.0,0.0,0.0,0.0,0.0,0.0,-0.5664,-0.6311,-0.7227,-0.7226,-0.6237,-0.723,-0.7548,0.0,0.0,0.0,0.0,0.0,0.0,0.0,0.0,0.0,0.0,0.0,0.0,0.0,0.0,0.0,0.0,0.0,0.0,0.0,0.0,0.0,0.0,0.0,0.0,0.0,0.0,0.0,0.0,0.0,0.0,0.0,0.0,0.0,0.0,0.0,0.0,0.0,0.0,0.0,0.0,0.0,0.0,0.0,0.0,0.0,0.0,0.0,0.0,0.0,0.0,0.0,0.0,0.0,0.0,0.0,0.0,0.0,0.0,0.0,0.0,0.0,0.0,0.0,0.0,0.0,0.0,0.0,0.0,0.0,0.0,0.0,0.0,0.0,0.0,0.0,0.0,0.0,0.0,0.0,0.0,0.0,0.0,0.0,0.0,0.0,0.0,0.0,0.0,0.0,0.0,0.0,0.0,0.0,0.0,0.0,0.0,0.0,0.0,0.0,0.0,0.0,0.0,0.0,0.0,0.0,0.0,0.0,0.0,0.0,-0.5717,-0.6904,-0.7314,-0.671,-0.7399,-0.8165,0.0,0.0,0.0,0.0,0.0,0.0,0.0,0.0,0.0,0.0,0.0,0.0,0.0,0.0,0.0,0.0,0.0,0.0,0.0,0.0,0.0,0.0,0.0,0.0,0.0,0.0,0.0,0.0,0.0,0.0,0.0,0.0,0.0,0.0,0.0,0.0,0.0,0.0,0.0,0.0,0.0,0.0,0.0,0.0,0.0,0.0,0.0,0.0,0.0,0.0,0.0,0.0,0.0,0.0,0.0,0.0,0.0,0.0,0.0,0.0,0.0,0.0,0.0,0.0,0.0,0.0,0.0,0.0,0.0,0.0,0.0,0.0,0.0,0.0,0.0,0.0,0.0,0.0,0.0,0.0,0.0,0.0,0.0,0.0,0.0,0.0,0.0,0.0,0.0,0.0,0.0,0.0,0.0,0.0,0.0,0.0,0.0,0.0,0.0,0.0,0.0,0.0,0.0,0.0,0.0,0.0,0.0,0.0,0.0,-0.6549,-0.7842,-0.8228,-0.7472,-0.8165,-0.8846,-0.9306,0.0,0.0,0.0,0.0,0.0,0.0,0.0,0.0,0.0,0.0,0.0,0.0,0.0,0.0,0.0,0.0,0.0,0.0,0.0,0.0,0.0,0.0,0.0,0.0,0.0,0.0,0.0,0.0,0.0,0.0,0.0,0.0,0.0,0.0,0.0,0.0,0.0,0.0,0.0,0.0,0.0,0.0,0.0,0.0,0.0,0.0,0.0,0.0,0.0,0.0,0.0,0.0,0.0,0.0,0.0,0.0,0.0,0.0,0.0,0.0,0.0,0.0,0.0,0.0,0.0,0.0,0.0,0.0,0.0,0.0,0.0,0.0,0.0,0.0,0.0,0.0,0.0,0.0,0.0,0.0,0.0,0.0,0.0,0.0,0.0,0.0,0.0,0.0,0.0,0.0,0.0,0.0,0.0,0.0,0.0,0.0,0.0,0.0,0.0,0.0,0.0,0.0,0.0,0.0,0.0,0.0,0.0,0.0,-0.8237,-0.9755,-0.9825,-0.8456,-0.9306,-0.9458,0.0,0.0,0.0,0.0,0.0,0.0,0.0,0.0,0.0,0.0,0.0,0.0,0.0,0.0,0.0,0.0,0.0,0.0,0.0,0.0,0.0,0.0,0.0,0.0,0.0,0.0,0.0,0.0,0.0,0.0,0.0,0.0,0.0,0.0,0.0,0.0,0.0,0.0,0.0,0.0,0.0,0.0,0.0,0.0,0.0,0.0,0.0,0.0,0.0,0.0,0.0,0.0,0.0,0.0,0.0,0.0,0.0,0.0,0.0,0.0,0.0,0.0,0.0,0.0,0.0,0.0,0.0,0.0,0.0,0.0,0.0,0.0,0.0,0.0,0.0,0.0,0.0,0.0,0.0,0.0,0.0,0.0,0.0,0.0,0.0,0.0,0.0,0.0,0.0,0.0,0.0,0.0,0.0,0.0,0.0,0.0,0.0,0.0,0.0,0.0,0.0,0.0,0.0,0.0,0.0,0.0,0.0,0.0,0.0,-0.9533,-1.0432,-1.0282,-0.8922,-0.9236,-0.9468,0.0,0.0,0.0,0.0,0.0,0.0,0.0,0.0,0.0,0.0,0.0,0.0,0.0,0.0,0.0,0.0,0.0,0.0,0.0,0.0,0.0,0.0,0.0,0.0,0.0,0.0,0.0,0.0,0.0,0.0,0.0,0.0,0.0,0.0,0.0,0.0,0.0,0.0,0.0,0.0,0.0,0.0,0.0,0.0,0.0,0.0,0.0,0.0,0.0,0.0,0.0,0.0,0.0,0.0,0.0,0.0,0.0,0.0,0.0,0.0,0.0,0.0,0.0,0.0,0.0,0.0,0.0,0.0,0.0,0.0,0.0,0.0,0.0,0.0,0.0,0.0,0.0,0.0,0.0,0.0,0.0,0.0,0.0,0.0,0.0,0.0,0.0,0.0,0.0,0.0,0.0,0.0,0.0,0.0,0.0,0.0,0.0,0.0,0.0,0.0,0.0,0.0,0.0,0.0,0.0,0.0,0.0,0.0,-1.0923,-1.0812,-1.0962,-1.0732,-0.99,-0.9836,-0.9771,0.0,0.0,0.0,0.0,0.0,0.0,0.0,0.0,0.0,0.0,0.0,0.0,0.0,0.0,0.0,0.0,0.0,0.0,0.0,0.0,0.0,0.0,0.0,0.0,0.0,0.0,0.0,0.0,0.0,0.0,0.0,0.0,0.0,0.0,0.0,0.0,0.0,0.0,0.0,0.0,0.0,0.0,0.0,0.0,0.0,0.0,0.0,0.0,0.0,0.0,0.0,0.0,0.0,0.0,0.0,0.0,0.0,0.0,0.0,0.0,0.0,0.0,0.0,0.0,0.0,0.0,0.0,0.0,0.0,0.0,0.0,0.0,0.0,0.0,0.0,0.0,0.0,0.0,0.0,0.0,0.0,0.0,0.0,0.0,0.0,0.0,0.0,0.0,0.0,0.0,0.0,0.0,0.0,0.0,0.0,0.0,0.0,0.0,0.0,0.0,0.0,0.0,0.0,0.0,0.0,0.0,0.0,0.0,-1.1282,-1.207,-1.1564,-1.1335,-1.126,-1.0812,-1.0143,0.0,0.0,0.0,0.0,0.0,0.0,0.0,0.0,0.0,0.0,0.0,0.0,0.0,0.0,0.0,0.0,0.0,0.0,0.0,0.0,0.0,0.0,0.0,0.0,0.0,0.0,0.0,0.0,0.0,0.0,0.0,0.0,0.0,0.0,0.0,0.0,0.0,0.0,0.0,0.0,0.0,0.0,0.0,0.0,0.0,0.0,0.0,0.0,0.0,0.0,0.0,0.0,0.0,0.0,0.0,0.0,0.0,0.0,0.0,0.0,0.0,0.0,0.0,0.0,0.0,0.0,0.0,0.0,0.0,0.0,0.0,0.0,0.0,0.0,0.0,0.0,0.0,0.0,0.0,0.0,0.0,0.0,0.0,0.0,0.0,0.0,0.0,0.0,0.0,0.0,0.0,0.0,0.0,0.0,0.0,0.0,0.0,0.0,0.0,0.0,0.0,0.0,0.0,0.0,0.0,0.0,0.0,0.0,-1.2226,-1.2666,-1.2599,-1.2526,-1.2526,-1.1186,-1.0288,0.0,0.0,0.0,0.0,0.0,0.0,0.0,0.0,0.0,0.0,0.0,0.0,0.0,0.0,0.0,0.0,0.0,0.0,0.0,0.0,0.0,0.0,0.0,0.0,0.0,0.0,0.0,0.0,0.0,0.0,0.0,0.0,0.0,0.0,0.0,0.0,0.0,0.0,0.0,0.0,0.0,0.0,0.0,0.0,0.0,0.0,0.0,0.0,-1.7266,0.0,0.0,0.0,0.0,0.0,0.0,0.0,0.0,0.0,0.0,0.0,0.0,0.0,0.0,0.0,0.0,0.0,0.0,0.0,0.0,0.0,0.0,0.0,0.0,0.0,0.0,0.0,0.0,0.0,0.0,0.0,0.0,0.0,0.0,0.0,0.0,0.0,0.0,0.0,0.0,0.0,0.0,0.0,0.0,0.0,0.0,0.0,0.0,0.0,0.0,0.0,0.0,0.0,0.0,0.0,0.0,0.0,0.0,0.0,-1.2935,-1.3317,-1.3039,-1.29,-1.29,-1.2077,-1.126,0.0,0.0,0.0,0.0,0.0,0.0,0.0,0.0,0.0,0.0,0.0,0.0,0.0,0.0,0.0,0.0,0.0,0.0,0.0,0.0,0.0,0.0,0.0,0.0,0.0,0.0,0.0,0.0,0.0,0.0,0.0,0.0,0.0,0.0,0.0,0.0,0.0,0.0,0.0,0.0,0.0,0.0,0.0,0.0,0.0,0.0,0.0,0.0,0.0,0.0,0.0,0.0,0.0,0.0,0.0,0.0,0.0,0.0,0.0,0.0,0.0,0.0,0.0,0.0,0.0,0.0,0.0,0.0,0.0,0.0,0.0,0.0,0.0,0.0,0.0,0.0,0.0,0.0,0.0,0.0,0.0,0.0,0.0,0.0,0.0,0.0,0.0,0.0,0.0,0.0,0.0,0.0,0.0,0.0,0.0,0.0,0.0,0.0,0.0,0.0,0.0,0.0,0.0,0.0,0.0,0.0,0.0,-1.2912,-1.3449,-1.389,-1.3397,-1.3193,-1.3193,-1.3112,-1.2725,-1.1717,0.0,0.0,0.0,0.0,0.0,0.0,0.0,0.0,0.0,0.0,0.0,0.0,0.0,0.0,0.0,0.0,0.0,0.0,0.0,0.0,0.0,0.0,0.0,0.0,0.0,0.0,0.0,0.0,0.0,0.0,0.0,0.0,0.0,0.0,0.0,0.0,0.0,0.0,-1.2036,-1.3311,0.0,0.0,0.0,0.0,0.0,0.0,0.0,0.0,-2.0194,0.0,0.0,0.0,0.0,0.0,0.0,0.0,0.0,0.0,0.0,0.0,0.0,0.0,0.0,0.0,0.0,0.0,0.0,0.0,0.0,0.0,0.0,0.0,0.0,0.0,0.0,0.0,0.0,0.0,0.0,0.0,0.0,0.0,0.0,0.0,0.0,0.0,0.0,0.0,0.0,0.0,0.0,0.0,0.0,0.0,0.0,0.0,0.0,0.0,0.0,0.0,0.0,0.0,0.0,0.0,0.0,-1.3369,-1.3439,-1.3837,-1.4474,-1.4353,-1.4353,-1.4274,-1.4353,-1.3856,-1.2962,0.0,0.0,0.0,0.0,0.0,0.0,0.0,0.0,0.0,0.0,0.0,0.0,0.0,0.0,0.0,0.0,0.0,0.0,0.0,0.0,0.0,0.0,0.0,0.0,0.0,0.0,0.0,0.0,0.0,0.0,0.0,0.0,0.0,0.0,0.0,0.0,0.0,0.0,0.0,-1.5524,-1.621,0.0,0.0,0.0,0.0,0.0,0.0,0.0,0.0,-1.7535,0.0,0.0,0.0,0.0,0.0,0.0,0.0,0.0,0.0,0.0,0.0,0.0,0.0,0.0,0.0,0.0,0.0,0.0,0.0,0.0,0.0,0.0,0.0,0.0,0.0,0.0,0.0,0.0,0.0,0.0,0.0,0.0,0.0,0.0,0.0,0.0,0.0,0.0,0.0,0.0,0.0,0.0,0.0,0.0,0.0,0.0,0.0,0.0,0.0,0.0,0.0,0.0,0.0,0.0,0.0,-1.3768,-1.4546,-1.4988,-1.4903,-1.4919,-1.4848,-1.4641,-1.4569,-1.4332,0.0,0.0,0.0,0.0,0.0,0.0,0.0,0.0,0.0,0.0,0.0,0.0,0.0,0.0,0.0,0.0,0.0,0.0,0.0,0.0,0.0,0.0,0.0,0.0,0.0,0.0,0.0,0.0,0.0,0.0,0.0,0.0,0.0,0.0,0.0,0.0,0.0,0.0,0.0,0.0,-1.6961,-1.7933,-1.9047,0.0,0.0,0.0,0.0,0.0,0.0,-1.8776,-1.8489,0.0,0.0,0.0,0.0,0.0,0.0,0.0,0.0,0.0,0.0,0.0,0.0,0.0,0.0,0.0,0.0,0.0,0.0,0.0,0.0,0.0,0.0,0.0,0.0,0.0,0.0,0.0,0.0,0.0,0.0,0.0,0.0,0.0,0.0,0.0,0.0,0.0,0.0,0.0,0.0,0.0,0.0,0.0,0.0,0.0,0.0,0.0,0.0,0.0,0.0,0.0,0.0,0.0,0.0,0.0,-1.381,-1.5292,-1.5913,-1.5638,-1.5417,-1.5204,-1.4991,-1.4991,-1.4717,0.0,0.0,0.0,0.0,0.0,0.0,0.0,0.0,0.0,0.0,0.0,0.0,0.0,0.0,0.0,0.0,0.0,0.0,0.0,0.0,0.0,0.0,0.0,0.0,0.0,0.0,0.0,0.0,0.0,0.0,0.0,0.0,0.0,0.0,0.0,0.0,0.0,0.0,0.0,0.0,0.0,-1.9615,-2.046,-1.9421,0.0,0.0,0.0,0.0,-2.172,-2.0792,0.0,0.0,0.0,0.0,0.0,0.0,0.0,0.0,0.0,0.0,0.0,0.0,0.0,0.0,0.0,0.0,0.0,0.0,0.0,0.0,0.0,0.0,0.0,0.0,0.0,0.0,0.0,0.0,0.0,0.0,0.0,0.0,0.0,0.0,0.0,0.0,0.0,0.0,0.0,0.0,0.0,0.0,0.0,0.0,0.0,0.0,0.0,0.0,0.0,0.0,0.0,0.0,0.0,0.0,0.0,0.0,-1.3368,-1.4672,-1.5894,-1.6894,-1.6158,-1.5903,-1.6324,-1.6394,-1.5704,0.0,0.0,0.0,0.0,0.0,0.0,0.0,0.0,0.0,0.0,0.0,0.0,0.0,0.0,0.0,0.0,0.0,0.0,0.0,0.0,0.0,0.0,0.0,0.0,0.0,0.0,0.0,0.0,0.0,0.0,0.0,0.0,0.0,0.0,0.0,0.0,0.0,0.0,0.0,0.0,0.0,-2.1551,-2.1773,-2.2233,-2.2411,0.0,0.0,-2.245,-2.4247,-2.3148,0.0,0.0,0.0,0.0,0.0,0.0,0.0,0.0,0.0,0.0,0.0,0.0,0.0,0.0,0.0,0.0,0.0,0.0,0.0,0.0,0.0,0.0,0.0,0.0,0.0,0.0,0.0,0.0,0.0,0.0,0.0,0.0,0.0,0.0,0.0,0.0,0.0,0.0,0.0,0.0,0.0,0.0,0.0,0.0,0.0,0.0,0.0,0.0,0.0,0.0,0.0,0.0,0.0,0.0,0.0,-1.5205,-1.5129,-1.6457,-1.7339,-1.7608,-1.7226,-1.707,-1.707,-1.7079,-1.6292,0.0,0.0,0.0,0.0,0.0,0.0,0.0,0.0,0.0,0.0,0.0,0.0,0.0,0.0,0.0,0.0,0.0,0.0,0.0,0.0,0.0,0.0,0.0,0.0,0.0,0.0,0.0,0.0,0.0,0.0,0.0,0.0,0.0,0.0,0.0,0.0,0.0,0.0,0.0,0.0,0.0,0.0,-2.2658,-2.4234,0.0,0.0,0.0,-2.5648,-2.5789,0.0,0.0,0.0,0.0,0.0,0.0,0.0,0.0,0.0,0.0,0.0,0.0,0.0,0.0,0.0,0.0,0.0,0.0,0.0,0.0,0.0,0.0,0.0,0.0,0.0,0.0,0.0,0.0,0.0,0.0,0.0,0.0,0.0,0.0,0.0,0.0,0.0,0.0,0.0,0.0,0.0,0.0,0.0,0.0,0.0,0.0,0.0,0.0,0.0,0.0,0.0,0.0,0.0,0.0,0.0,0.0,0.0,-1.6933,-1.7965,-1.8519,-1.8482,-1.8259,-1.8027,-1.7881,-1.7881,0.0,0.0,0.0,0.0,0.0,0.0,0.0,0.0,0.0,0.0,0.0,0.0,0.0,0.0,0.0,0.0,0.0,0.0,0.0,0.0,0.0,0.0,0.0,0.0,0.0,0.0,0.0,-1.323,0.0,0.0,0.0,0.0,0.0,0.0,0.0,0.0,0.0,0.0,0.0,0.0,0.0,0.0,-2.3331,-2.3076,-2.5566,-2.7245,0.0,0.0,-2.8656,-2.6961,-2.5994,-2.5178,0.0,0.0,0.0,0.0,0.0,0.0,0.0,0.0,0.0,0.0,0.0,0.0,0.0,0.0,0.0,0.0,0.0,0.0,0.0,0.0,0.0,0.0,0.0,0.0,0.0,0.0,0.0,0.0,0.0,0.0,0.0,0.0,0.0,0.0,0.0,0.0,0.0,0.0,0.0,0.0,0.0,0.0,0.0,0.0,0.0,0.0,0.0,0.0,0.0,0.0,0.0,0.0,0.0,0.0,-1.707,-1.8143,-1.8405,-1.9039,-1.9908,-1.8972,-1.87,-1.9166,-1.9166,-1.8349,0.0,0.0,0.0,0.0,0.0,0.0,0.0,0.0,0.0,0.0,0.0,0.0,0.0,0.0,0.0,0.0,0.0,0.0,0.0,0.0,0.0,0.0,0.0,0.0,0.0,0.0,0.0,0.0,0.0,0.0,0.0,0.0,0.0,0.0,0.0,0.0,0.0,0.0,0.0,0.0,0.0,-2.4894,-2.2917,-2.5875,-2.9009,0.0,0.0,-3.0692,-2.7998,-2.7086,-2.6554,-2.6234,0.0,0.0,0.0,0.0,0.0,0.0,0.0,0.0,0.0,0.0,0.0,0.0,0.0,0.0,0.0,0.0,0.0,0.0,0.0,0.0,0.0,0.0,0.0,0.0,0.0,0.0,0.0,0.0,0.0,0.0,0.0,0.0,0.0,0.0,0.0,0.0,0.0,0.0,0.0,0.0,0.0,0.0,0.0,0.0,0.0,0.0,0.0,0.0,0.0,0.0,0.0,0.0,0.0,-1.7698,-1.8206,-1.949,-2.0388,-2.0725,-2.014,-2.0031,-2.0431,-2.0237,-1.9523,0.0,0.0,0.0,0.0,0.0,0.0,0.0,0.0,0.0,0.0,0.0,0.0,0.0,0.0,0.0,0.0,0.0,0.0,0.0,0.0,0.0,0.0,0.0,0.0,0.0,0.0,0.0,0.0,-1.6387,-1.6775,-1.728,0.0,0.0,0.0,0.0,0.0,0.0,0.0,0.0,0.0,0.0,-2.6528,-2.4808,-2.7163,0.0,0.0,-3.216,-3.1244,-2.8589,-2.7718,-2.7365,-2.7447,-2.7293,0.0,0.0,0.0,0.0,0.0,0.0,0.0,0.0,0.0,0.0,0.0,0.0,0.0,0.0,0.0,0.0,0.0,0.0,0.0,0.0,0.0,0.0,0.0,0.0,0.0,0.0,0.0,0.0,0.0,0.0,0.0,0.0,0.0,0.0,0.0,0.0,0.0,0.0,0.0,0.0,0.0,0.0,0.0,0.0,0.0,0.0,0.0,0.0,0.0,0.0,0.0,0.0,-1.8211,-1.8384,-2.0268,-2.1233,-2.1233,-2.0903,-2.0903,-2.1158,-2.0903,-2.0389,0.0,0.0,0.0,0.0,0.0,0.0,0.0,0.0,0.0,0.0,0.0,0.0,0.0,0.0,0.0,0.0,0.0,0.0,0.0,0.0,0.0,0.0,0.0,0.0,0.0,0.0,0.0,0.0,-1.7715,-1.8196,-1.8897,0.0,0.0,0.0,0.0,0.0,0.0,0.0,0.0,0.0,0.0,-2.7762,-2.673,-2.8458,-3.0596,-3.2631,-3.2962,-3.1983,-2.9223,-2.847,-2.8236,-2.8272,0.0,0.0,0.0,0.0,0.0,0.0,0.0,0.0,0.0,0.0,0.0,0.0,0.0,0.0,0.0,0.0,0.0,0.0,0.0,0.0,0.0,0.0,0.0,0.0,0.0,0.0,0.0,0.0,0.0,0.0,-0.9539,0.0,0.0,0.0,0.0,0.0,0.0,0.0,0.0,0.0,0.0,0.0,0.0,0.0,0.0,0.0,0.0,0.0,0.0,0.0,0.0,0.0,0.0,-1.8384,-1.8999,-2.0455,-2.1233,-2.1221,-2.1233,-2.1158,-2.1233,-2.1221,-2.0905,-2.0377,0.0,0.0,0.0,0.0,0.0,0.0,0.0,0.0,0.0,0.0,0.0,0.0,0.0,0.0,0.0,0.0,0.0,0.0,0.0,0.0,0.0,0.0,0.0,0.0,0.0,0.0,-1.8141,-1.8679,-1.9585,0.0,0.0,0.0,0.0,0.0,0.0,0.0,0.0,0.0,0.0,-2.7827,-2.8417,-2.8244,-2.9707,-3.1572,-3.3785,-3.4128,-3.3057,-2.9944,-2.9446,-2.9284,0.0,0.0,0.0,0.0,0.0,0.0,0.0,0.0,0.0,0.0,0.0,0.0,0.0,0.0,0.0,0.0,0.0,0.0,0.0,0.0,0.0,0.0,0.0,0.0,0.0,0.0,0.0,-1.1307,-1.1119,0.0,0.0,0.0,0.0,0.0,0.0,0.0,0.0,0.0,0.0,0.0,-1.6515,-1.7658,0.0,0.0,0.0,0.0,0.0,0.0,0.0,0.0,0.0,0.0,0.0,0.0,-1.8868,-1.9511,-2.1035,-2.1862,-2.1874,-2.1663,-2.1663,-2.1874,-2.1663,-2.1478,-2.126,0.0,0.0,0.0,0.0,0.0,0.0,0.0,0.0,0.0,0.0,0.0,0.0,0.0,0.0,0.0,0.0,0.0,0.0,0.0,0.0,0.0,0.0,0.0,0.0,0.0,-2.0368,0.0,0.0,0.0,0.0,0.0,0.0,0.0,0.0,0.0,0.0,0.0,-2.7774,-2.7496,-2.8139,-2.8554,-2.8334,-3.0118,-3.2109,0.0,0.0,0.0,0.0,0.0,0.0,0.0,0.0,0.0,0.0,0.0,0.0,0.0,0.0,-2.8834,-2.7264,-2.7423,-2.7486,-2.6462,0.0,0.0,0.0,0.0,0.0,0.0,0.0,0.0,0.0,0.0,0.0,0.0,0.0,0.0,-1.3177,0.0,-1.302,0.0,0.0,0.0,0.0,0.0,0.0,0.0,0.0,-1.6922,-1.755,-1.7745,-1.889,-1.9562,0.0,-2.0462,-2.0462,0.0,0.0,0.0,0.0,0.0,0.0,0.0,0.0,-1.9667,-2.031,-2.1546,-2.2197,-2.2197,-2.1987,-2.1987,-2.2197,-2.2173,-2.2116,-2.2089,-2.1987,-2.1774,0.0,0.0,0.0,0.0,0.0,0.0,0.0,0.0,0.0,0.0,0.0,0.0,0.0,0.0,0.0,0.0,0.0,0.0,0.0,0.0,0.0,0.0,0.0,-2.2261,0.0,0.0,0.0,0.0,0.0,0.0,0.0,0.0,0.0,-2.621,-2.7227,-2.8049,-2.812,-2.8585,-2.8833,-2.8699,0.0,0.0,0.0,0.0,0.0,0.0,0.0,-2.9576,-2.9237,-2.8743,-2.8399,-2.839,-2.8704,-2.9124,-2.9625,0.0,0.0,-2.8488,-2.8515,-2.8558,-2.8084,-2.8001,-2.8336,-2.9484,-2.9686,-2.9698,0.0,0.0,0.0,0.0,0.0,0.0,0.0,0.0,-1.5817,-1.5562,0.0,-1.5666,0.0,0.0,0.0,0.0,0.0,-1.6775,0.0,0.0,-1.8104,-1.8721,-1.9299,-1.9562,-2.0279,-2.1388,-2.1565,-2.1616,-2.1553,-2.0782,0.0,0.0,0.0,0.0,0.0,0.0,-2.0827,-2.1404,-2.1921,-2.2197,-2.2197,-2.2185,-2.2197,-2.2247,-2.2678,-2.2957,-2.2932,-2.2715,-2.2502,-2.2464,-1.9842,0.0,0.0,0.0,0.0,0.0,0.0,0.0,0.0,0.0,0.0,0.0,0.0,0.0,0.0,0.0,0.0,0.0,0.0,0.0,0.0,-2.381,0.0,0.0,0.0,0.0,0.0,0.0,0.0,0.0,0.0,0.0,-2.726,-2.8479,-2.93,-2.8943,0.0,0.0,0.0,0.0,-3.2393,-3.4306,-3.4517,-3.3291,-3.0203,-2.9701,-2.9701,-2.9683,0.0,0.0,-2.9676,-2.9682,-2.9664,-2.9676,-2.97,-2.9569,-2.9209,-2.9104,-2.9107,-2.9089,-2.9082,-2.9223,-2.9582,-2.9698,-2.9683,-1.8206,0.0,0.0,0.0,0.0,-1.7657,-1.7892,-1.8485,-1.8376,-1.7893,-1.7229,-1.7229,0.0,0.0,0.0,0.0,0.0,0.0,-1.8787,-1.8854,-1.9695,-2.0139,-2.0268,-2.091,-2.1376,-2.1565,-2.2199,-2.2469,-2.2359,-2.2199,-2.1295,-1.9625,0.0,0.0,0.0,0.0,-2.1128,-2.1738,-2.2286,-2.2555,-2.2567,-2.2555,-2.2787,-2.3185,-2.3292,-2.3754,-2.4496,-2.4436,-2.4211,-2.3837,-2.3312,0.0,0.0,0.0,0.0,0.0,0.0,0.0,0.0,0.0,0.0,0.0,0.0,0.0,0.0,0.0,0.0,0.0,0.0,0.0,-2.5901,-2.5986,-2.575,0.0,0.0,0.0,0.0,0.0,0.0,0.0,0.0,0.0,-2.8524,-2.915,-2.9527,0.0,0.0,-2.9492,-2.9476,-2.987,-3.1223,-3.4184,-3.2616,0.0,0.0,-2.9701,-2.9701,-2.9701,-2.9701,-2.9683,-2.9683,-2.9702,-2.9701,-2.9683,-2.9702,-2.9645,-2.9569,-2.9531,-2.9531,-2.9531,-2.9532,-2.9551,-2.9664,-2.9702,-2.9701,-2.0841,-2.0277,-1.9332,-1.9133,-1.9448,-1.9194,-1.947,-2.0028,-1.9786,-1.935,-1.8839,-1.8849,-1.8439,-1.7833,-1.7823,0.0,0.0,0.0,-1.9976,-2.0051,-2.0546,-2.0899,-2.1175,-2.169,-2.2013,-2.2137,-2.2653,-2.2909,-2.2848,-2.2909,-2.2238,-2.0985,0.0,0.0,-2.1045,-2.1464,-2.1862,-2.2211,-2.2518,-2.2678,-2.2678,-2.2678,-2.3017,-2.3577,-2.3754,-2.4266,-2.5175,-2.5356,-2.5301,-2.5009,-2.521,-2.4524,0.0,0.0,0.0,0.0,0.0,0.0,0.0,0.0,0.0,0.0,0.0,-2.4039,-2.485,0.0,0.0,0.0,-2.7668,-2.8217,-2.8367,-2.8405,0.0,0.0,0.0,0.0,0.0,0.0,0.0,-2.9357,-2.9494,-2.945,-2.9267,-2.9502,-2.9659,-2.9549,-2.9739,-2.9809,-2.9603,0.0,-3.0522,-3.2707,-3.1337,-3.001,-2.9807,-2.9744,-2.9696,-2.9681,-2.9698,-2.9697,-2.9697,-2.9697,-2.9735,-2.9773,-2.9773,-2.9773,-2.9773,-2.9773,-2.9755,-2.9718,-2.9698,-2.9697,-2.9697,-2.9697,-2.9696,-2.2787,-2.2689,-2.0657,-2.0177,-2.0569,-1.9929,-2.025,-2.1187,-2.0549,-2.0344,-2.0398,-2.0398,-2.0462,-2.0643,-2.0673,0.0,-2.0876,-2.0905,-2.1055,-2.125,-2.1026,-2.1342,-2.1939,-2.2002,-2.2322,-2.2909,-2.2859,-2.2907,-2.3002,-2.2895,-2.2847,-2.2847,-2.2775,-2.2751,-2.2678,-2.2739,-2.2739,-2.2739,-2.2739,-2.2739,-2.2751,-2.2739,-2.3017,-2.3682,-2.4105,-2.4681,-2.53,-2.577,-2.5948,-2.5988,-2.5948,-2.6074,-2.6265,0.0,0.0,0.0,0.0,0.0,0.0,0.0,0.0,0.0,0.0,0.0,0.0,0.0,0.0,0.0,-2.9888,0.0,-3.0698,-3.0813,0.0,0.0,0.0,-2.9365,-2.8931,-2.8847,-2.8964,-2.9293,0.0,0.0,-2.9626,0.0,-2.9758,-2.9664,-3.0002,-3.0122,-2.9782,-2.9954,-3.0228,-3.0714,-3.0636,-3.0447,-3.0075,-2.9836,-2.9709,-2.9761,-2.9742,-2.9772,-2.9756,-2.9739,-2.9794,-2.9907,-2.9926,-2.9907,-2.9907,-2.9888,-2.9888,-2.9748,-2.9725,-2.972,-2.9758,-2.9758,-2.9758,-2.3623,-2.4008,-2.3476,-2.2874,-2.2177,-2.1981,-2.2053,-2.2297,-2.2161,-2.1765,-2.129,-2.129,-2.1089,-2.0737,-2.0997,-2.1351,-2.183,-2.1886,-2.2175,-2.2628,-2.2567,-2.2616,-2.2823,-2.2823,-2.2884,-2.2992,-2.2652,-2.2451,-2.251,-2.2451,-2.2451,-2.2477,-2.2805,-2.2969,-2.2848,-2.2969,-2.303,-2.3017,-2.3017,-2.3017,-2.3017,-2.3017,-2.3531,-2.4667,-2.4781,-2.5356,-2.6379,-2.6515,-2.6568,-2.6553,-2.6602,-2.664,-2.6654,-2.6784,0.0,0.0,0.0,0.0,0.0,0.0,0.0,0.0,0.0,-2.7109,-2.823,0.0,-2.9066,0.0,-3.1491,-3.1938,-3.1617,-3.1631,0.0,0.0,-3.0319,-2.996,-3.0182,-2.9588,-2.9258,-2.9511,-2.9795,-2.9957,-2.9823,-3.0156,-3.0275,-3.0026,-2.9988,-3.0011,-2.9992,-3.0074,-3.021,-3.054,-3.0653,-3.0637,-3.0479,-3.0037,-2.9798,-3.0032,-3.009,-3.0083,-3.0064,-3.0083,-3.0113,-3.0132,-3.0132,-3.0075,-2.9924,-2.9972,-3.0,-2.9874,-2.9845,-2.9907,-3.0056,-3.0094,-3.0073,-2.4425,-2.4697,-2.4711,-2.431,-2.3708,-2.3258,-2.3245,-2.3471,-2.2909,-2.2653,-2.2579,-2.2116,-2.1765,-2.1461,-2.1389,-2.155,-2.1807,-2.191,-2.2121,-2.2397,-2.2397,-2.2397,-2.241,-2.2397,-2.2397,-2.2385,-2.2096,-2.1945,-2.1933,-2.1958,-2.2083,-2.2322,-2.2611,-2.284,-2.3017,-2.3078,-2.3125,-2.3125,-2.3125,-2.3125,-2.3125,-2.3125,-2.3695,-2.4951,-2.5007,-2.5577,-2.6727,-2.6794,-2.6794,-2.6794,-2.6794,-2.6884,-2.7041,-2.7181,-2.7452,0.0,0.0,0.0,0.0,0.0,0.0,0.0,0.0,0.0,0.0,0.0,-3.0368,-3.1634,-3.2519,-3.2889,-3.2607,-3.2803,-3.2724,-3.2212,-3.1718,-3.138,-3.1283,-3.0519,-3.0036,-3.0246,-3.0124,-3.0013,-3.003,-3.0253,-3.0393,-3.0253,-3.0157,-3.01,-3.0113,-3.0209,-3.0404,-3.0602,-3.0681,-3.0714,-3.0714,-3.0321,-3.0117,-3.0362,-3.0414,-3.0369,-3.024,-3.0209,-3.0223,-3.0217,-3.0205,-3.0167,-3.0053,-3.0083,-3.0109,-3.0056,-3.0045,-3.0072,-3.0186,-3.0221,-3.0217,-2.5133,-2.5245,-2.5245,-2.5231,-2.5189,-2.4266,-2.4097,-2.4363,-2.3234,-2.3103,-2.3664,-2.2763,-2.2317,-2.2088,-2.1631,-2.143,-2.1481,-2.1405,-2.1418,-2.1481,-2.1481,-2.1481,-2.1481,-2.1481,-2.1481,-2.1481,-2.1418,-2.138,-2.138,-2.138,-2.1669,-2.2184,-2.2272,-2.2585,-2.3113,-2.3125,-2.3125,-2.3125,-2.3125,-2.3125,-2.3125,-2.3198,-2.3826,-2.4951,-2.5077,-2.5646,-2.6779,-2.6832,-2.6846,-2.6832,-2.6832,-2.6974,-2.7401,-2.7895,-2.8097,0.0,-2.8046,0.0,0.0,0.0,0.0,0.0,0.0,0.0,0.0,-3.092,-3.1435,-3.2511,-3.3256,-3.3597,-3.3515,-3.4006,-3.4037,-3.3366,-3.3228,-3.2932,-3.2243,-3.1481,-3.1017,-3.1107,-3.0522,-3.0166,-3.0188,-3.0216,-3.029,-3.04,-3.0392,-3.0334,-3.0229,-3.0404,-3.0599,-3.07,-3.0707,-3.0696,-3.0694,-3.0559,-3.0481,-3.0662,-3.0672,-3.0595,-3.0344,-3.0239,-3.0209,-3.0207,-3.0204,-3.0204,-3.0204,-3.0204,-3.0204,-3.0204,-3.019,-3.019,-3.019,-3.0209,-3.0223,-2.6002,-2.6433,-2.6433,-2.6447,-2.6379,-2.577,-2.4984,-2.4026,-2.327,-2.3027,-2.321,-2.305,-2.2355,-2.1207,-2.0949,-2.1066,-2.1455,-2.1029,-2.1066,-2.1481,-2.1481,-2.1481,-2.1481,-2.1481,-2.1481,-2.1455,-2.1029,-2.0882,-2.0828,-2.0828,-2.1104,-2.1644,-2.2096,-2.2527,-2.3113,0.0,0.0,0.0,-2.3125,-2.3125,-2.3138,-2.3603,-2.4292,-2.4951,-2.5481,0.0,-2.6899,-2.6951,-2.7003,-2.713,-2.6945,0.0,0.0,0.0,0.0,0.0,0.0,0.0,0.0,0.0,0.0,0.0,-3.1089,-3.1227,-3.1435,-3.2074,-3.2862,-3.3767,-3.3899,-3.3986,-3.4189,-3.4298,-3.433,-3.4226,-3.3668,-3.324,-3.3114,-3.2524,-3.1879,-3.1176,-3.1193,-3.0976,-3.0343,-3.0344,-3.0441,-3.0472,-3.0492,-3.051,-3.0496,-3.054,-3.0642,-3.0683,-3.0703,-3.0703,-3.0707,-3.0673,-3.0626,-3.0704,-3.0701,-3.0674,-3.0608,-3.0359,-3.0208,-3.0209,-3.0202,-3.0204,-3.0204,-3.0204,-3.0223,-3.0223,-3.0228,-3.02,-3.0223,-3.0233,-3.0219,-2.65,0.0,-2.6794,-2.6794,0.0,-2.6103,-2.5341,-2.4399,-2.3781,-2.3353,-2.3071,-2.2549,-2.1764,-2.0869,-2.0467,-2.0388,-2.0639,-2.0363,-2.0388,-2.0652,-2.0652,-2.0665,-2.0652,-2.0652,-2.0652,-2.0639,-2.0376,-2.0225,-2.0238,-2.0238,-2.0526,-2.1079,-2.1687,-2.2286,-2.2854,-2.3323,-2.345,-2.3318,-2.3271,-2.3271,-2.3378,-2.3943,-2.4567,-2.5175,0.0,0.0,0.0,0.0,0.0,0.0,0.0,0.0,0.0,0.0,0.0,-2.935,-2.9438,-2.9689,-3.0166,-3.0335,-3.0747,-3.1432,-3.1877,-3.2092,-3.1986,-3.28,-3.3603,-3.4326,-3.4284,-3.4282,-3.4461,-3.4558,-3.4586,-3.448,-3.425,-3.4066,-3.3949,-3.3412,-3.2722,-3.1984,-3.1732,-3.1328,-3.0558,-3.054,-3.0593,-3.0613,-3.0582,-3.0599,-3.0649,-3.0637,-3.0664,-3.069,-3.069,-3.069,-3.069,-3.069,-3.069,-3.071,-3.0707,-3.0707,-3.0694,-3.0549,-3.0419,-3.0328,-3.0248,-3.0209,-3.0228,-3.0226,-3.0404,-3.0898,-3.0636,-3.0937,-3.2065,-3.1383,-3.0757,-2.6794,-2.6794,-2.6794,-2.6794,-2.6736,-2.6054,-2.5371,-2.4684,0.0,0.0,0.0,-2.211,-2.1315,-2.0695,-2.0182,-1.9901,-1.9798,-1.9798,-1.9798,-1.9798,-1.9798,-1.9798,-1.9798,-1.9798,-1.9798,-1.9798,-1.9798,-1.9798,-1.9798,-1.9798,-2.01,-2.0718,-2.1369,-2.2102,-2.2808,-2.3339,-2.3628,-2.3688,-2.3522,-2.3522,-2.3793,-2.435,-2.4964,-2.5522,-2.6122,-2.6683,-2.7233,-2.7233,-2.7233,-2.7284,-2.7946,-2.844,-2.859,-2.9561,-3.008,-2.9886,-2.9897,-3.014,-3.0625,-3.0707,-3.1145,-3.1966,-3.2488,-3.2674,-3.2509,-3.3226,-3.3925,-3.455,-3.4503,-3.4487,-3.4581,-3.4706,-3.4732,-3.4586,-3.4792,-3.487,-3.4715,-3.4319,-3.3723,-3.291,-3.2316,-3.1622,-3.0823,-3.0673,-3.0695,-3.0676,-3.0668,-3.0703,-3.069,-3.069,-3.069,-3.069,-3.069,-3.069,-3.069,-3.069,-3.069,-3.069,-3.071,-3.0692,-3.0694,-3.0646,-3.0559,-3.0417,-3.0323,-3.0337,-3.0459,-3.0527,-3.0852,-3.1994,-3.1456,-3.1507,-3.3797,-3.2942,-3.2201,-2.6794,-2.6794,-2.6794,-2.6794,-2.6736,-2.6068,-2.5125,-2.4051,-2.3933,-2.3526,-2.2904,-2.2888,-2.1758,-1.9952,-2.0344,-2.0258,-1.9798,-1.9798,-1.9798,0.0,-1.9798,-1.9798,-1.9798,-1.9798,-1.9798,-1.9798,-1.9798,-1.9798,-1.9798,-1.9798,-2.0152,-2.0838,-2.1449,-2.2337,-2.3566,-2.3662,-2.3747,-2.4008,-2.3747,-2.3852,-2.435,-2.4951,-2.5577,-2.6176,-2.6721,-2.7181,-2.7335,-2.7335,-2.7437,-2.7539,-2.8191,-2.8616,-2.8716,-2.979,-3.0347,-3.0179,-3.03,-3.0551,-3.0918,-3.1196,-3.1711,-3.2454,-3.3001,-3.3176,-3.2875,-3.3359,-3.3954,-3.4535,-3.4592,-3.458,-3.462,-3.4728,-3.4831,-3.4851,-3.4981,-3.5086,-3.5092,-3.5163,-3.4738,-3.3634,-3.3219,-3.2346,-3.0983,-3.0651,-3.0629,-3.0621,-3.0637,-3.0657,-3.0683,-3.069,-3.069,-3.069,-3.069,-3.069,-3.069,-3.069,-3.069,-3.069,-3.069,-3.0707,-3.0703,-3.0482,-3.0344,-3.0386,-3.035,-3.0584,-3.1125,-3.1288,-3.1675,-3.2532,-3.2551,-3.2795,-3.36,-3.407,-3.4841,-2.6794,-2.6846,-2.7041,-2.6769,-2.617,-2.5183,-2.4442,-2.3876,-2.3514,-2.3175,-2.2893,-2.2663,-2.2199,-2.1506,-2.1188,-2.0894,-2.0633,-2.0346,-2.0258,-2.0207,-1.9952,-1.9798,-1.9798,-1.9798,-1.9798,-1.9798,-1.9798,-1.9798,-1.9798,-1.9862,-2.0053,-2.0485,-2.1447,-2.267,-2.393,-2.3936,-2.4086,-2.4563,-2.4041,-2.4099,-2.4751,-2.5342,-2.5892,-2.651,-2.7115,-2.7437,-2.7473,-2.7539,-2.7539,-2.756,-2.8411,-2.8889,-2.8935,-2.9911,-3.0438,-3.0375,-3.0426,-3.0733,-3.1235,-3.1785,-3.2249,-3.2573,-3.2988,-3.323,-3.3222,-3.3729,-3.4197,-3.4555,-3.462,-3.4642,-3.4764,-3.4908,-3.4999,-3.4997,-3.5181,-3.5288,-3.523,-3.5374,-3.5017,-3.392,-3.3441,-3.261,-3.0909,-3.0665,-3.0653,-3.0653,-3.0653,-3.0688,-3.071,-3.069,-3.069,-3.069,-3.069,-3.069,-3.069,-3.069,-3.069,-3.069,-3.069,-3.0692,-3.0694,-3.0434,-3.0258,-3.0283,-3.0286,-3.0644,-3.1397,-3.1456,-3.2048,-3.3276,-3.3231,-3.332,-3.4272,-3.5261,-3.5611,-2.6794,-2.6832,-2.6983,-2.6402,-2.5284,-2.4312,-2.3804,-2.363,-2.3165,-2.2888,-2.2843,-2.2509,-2.2544,-2.279,-2.1971,-2.1527,-2.1321,-2.0845,-2.061,-2.056,-2.0055,-1.9798,-1.9798,-1.9798,-1.9798,-1.9798,-1.9811,-1.9811,-1.9862,-1.9978,-2.0233,-2.0577,-2.1676,-2.2838,-2.4099,-2.4125,-2.4345,-2.4734,-2.4229,-2.439,-2.5328,-2.5632,-2.6162,-2.6878,-2.7357,-2.756,-2.756,-2.756,-2.756,-2.7675,-2.8559,-2.9136,-2.9166,-2.9984,-3.0468,-3.0468,-3.0468,-3.0797,-3.1466,-3.2249,-3.2672,-3.2672,-3.3006,-3.3306,-3.3486,-3.3969,-3.4386,-3.4564,-3.4626,-3.4706,-3.4886,-3.5056,-3.5171,-3.5155,-3.535,-3.5438,-3.5347,-3.5314,-3.5057,-3.4226,-3.3535,-3.238,-3.1156,-3.069,-3.069,-3.069,-3.069,-3.069,-3.069,-3.069,-3.069,-3.069,-3.069,-3.069,-3.069,-3.069,-3.071,-3.0703,-3.0707,-3.0709,-3.0656,-3.0433,-3.0229,-3.0208,-3.0216,-3.072,-3.1563,-3.1943,-3.2661,-3.4064,-3.4128,-3.4083,-3.5151,-3.5612,-3.5732,-2.6765,-2.6692,-2.6214,-2.5218,-2.4185,-2.3934,-2.3557,-2.3033,-2.2917,-2.2888,-2.2888,-2.2857,-2.2836,-2.2822,-2.2362,-2.1874,-2.1431,-2.0845,-2.061,-2.056,-2.0055,-1.9798,-1.9798,-1.9798,-1.9798,-1.9798,-1.9914,-1.999,-1.9978,-2.0131,-2.0797,-2.1885,-2.2268,-2.2936,-2.3968,-2.4112,-2.4112,-2.4171,-2.4112,-2.4878,-2.6404,-2.6068,-2.6336,-2.7473,-2.756,-2.756,-2.756,-2.756,-2.756,-2.766,-2.8559,-2.9136,-2.9227,-2.9968,-3.0468,-3.0468,-3.051,-3.0797,-3.1466,-3.2352,-3.2884,-3.2916,-3.3309,-3.3534,-3.3453,-3.3944,-3.4371,-3.4574,-3.4711,-3.4809,-3.4889,-3.5038,-3.5141,-3.52,-3.5391,-3.5538,-3.5491,-3.502,-3.4839,-3.5554,-3.3487,-3.1759,-3.0923,-3.069,-3.069,-3.069,-3.069,-3.069,-3.069,-3.069,-3.069,-3.069,-3.069,-3.069,-3.069,-3.069,-3.0695,-3.0707,-3.069,-3.0656,-3.0574,-3.0417,-3.0253,-3.0663,-3.0428,-3.1021,-3.2187,-3.2974,-3.3689,-3.4688,-3.5076,-3.5218,-3.5334,-3.5566,-3.5705,-2.5647,-2.5668,-2.5624,-2.5073,-2.4217,-2.3591,-2.3134,-2.2888,-2.2888,-2.2888,-2.2888,-2.2888,-2.29,-2.2896,-2.2689,-2.2463,-2.2263,-2.1779,-2.1348,-2.1091,-2.0832,-2.0446,-1.9965,-2.0156,-2.022,-2.0016,-2.0029,-2.0042,-2.0131,-2.0283,-2.0862,-2.1772,-2.2178,-2.2766,-2.355,-2.3929,-2.4287,-2.462,-2.462,-2.5314,-2.6457,-2.6108,-2.6375,-2.7458,-2.756,-2.756,-2.756,-2.756,-2.756,-2.766,-2.8559,-2.9136,-2.912,-2.9984,-3.0468,-3.051,-3.0878,-3.1218,-3.1582,-3.2403,-3.2948,-3.3042,-3.3316,-3.3469,-3.3416,-3.3845,-3.4255,-3.4555,-3.4632,-3.4787,-3.5022,-3.5095,-3.5157,-3.5296,-3.5489,-3.5452,-3.4942,-3.4689,-3.4525,-3.428,-3.297,-3.1681,-3.0923,-3.069,-3.069,-3.069,-3.071,-3.071,-3.071,-3.069,-3.069,-3.069,-3.069,-3.069,-3.069,-3.069,-3.0707,-3.0668,-3.0513,-3.041,-3.0414,-3.0344,-3.0467,-3.1407,-3.1632,-3.2076,-3.3242,-3.3605,-3.4133,-3.5062,-3.5468,-3.5502,-3.5547,-3.5675,-3.5685,-2.4863,-2.4898,-2.4982,-2.4604,-2.4013,-2.3227,-2.2888,-2.2888,-2.2888,-2.2888,-2.2888,-2.2888,-2.2888,-2.2888,-2.2888,-2.2888,-2.2843,-2.2402,-2.1921,-2.1465,-2.1452,-2.0979,-2.0131,-2.0472,-2.051,-2.022,-2.0131,-2.0195,-2.0334,-2.0448,-2.0912,-2.1511,-2.2086,-2.2662,-2.3223,-2.3812,-2.4287,-2.4721,-2.4892,-2.5481,-2.6297,-2.6162,-2.6549,-2.7458,-2.756,-2.756,-2.756,-2.756,-2.756,-2.761,-2.8559,-2.9136,-2.9136,-2.9968,-3.0468,-3.0551,-3.1095,-3.1504,-3.1677,-3.2403,-3.2898,-3.3086,-3.3304,-3.3393,-3.3458,-3.3781,-3.4179,-3.4542,-3.4607,-3.4787,-3.504,-3.5111,-3.5174,-3.5315,-3.5335,-3.4974,-3.4414,-3.4091,-3.3594,-3.3253,-3.2302,-3.1414,-3.0858,-3.0642,-3.0599,-3.0661,-3.0688,-3.0707,-3.0695,-3.0695,-3.069,-3.0637,-3.063,-3.0656,-3.069,-3.0695,-3.0704,-3.0621,-3.0438,-3.026,-3.0271,-3.0287,-3.0775,-3.1833,-3.2694,-3.3287,-3.3586,-3.3891,-3.4404,-3.5051,-3.5402,-3.5495,-3.5705,-3.5726,-3.5579,-2.4863,-2.4762,-2.4243,-2.3618,-2.2991,-2.2962,-2.2888,-2.2888,-2.2888,-2.2888,-2.2888,-2.2888,-2.2888,-2.2888,-2.2888,-2.2888,-2.2843,-2.248,-2.1955,-2.1465,-2.1629,-2.1113,-2.008,-2.066,-2.0696,-2.0283,-2.0347,-2.0511,-2.0662,-2.0662,-2.0949,-2.1498,-2.21,-2.2675,-2.3184,-2.3799,-2.4112,-2.4261,-2.4778,-2.5328,-2.5906,-2.639,-2.693,-2.7524,-2.756,-2.756,-2.756,-2.756,-2.761,-2.761,-2.8559,-2.9136,-2.9212,-2.9968,-3.0468,-3.0551,-3.0952,-3.1351,-3.1714,-3.2318,-3.277,-3.3055,-3.3286,-3.339,-3.3415,-3.3758,-3.4154,-3.4582,-3.4677,-3.4772,-3.4925,-3.5056,-3.5088,-3.5092,-3.4582,-3.4249,-3.4038,-3.2802,-3.245,-3.2685,-3.1739,-3.0854,-3.0695,-3.0528,-3.052,-3.0586,-3.0662,-3.0701,-3.0709,-3.0711,-3.0634,-3.0505,-3.0468,-3.0466,-3.0649,-3.0692,-3.0699,-3.0623,-3.0463,-3.0287,-3.0407,-3.063,-3.1407,-3.2465,-3.3765,-3.4305,-3.3968,-3.4162,-3.4808,-3.5235,-3.5234,-3.5379,-3.5595,-3.5398,-3.5315,-2.3583,-2.3615,-2.3337,-2.3091,-2.2902,-2.2888,-2.2888,-2.2888,-2.2888,-2.2888,-2.2888,-2.2888,-2.2888,-2.2888,-2.2888,-2.2933,-2.2992,-2.2509,-2.1969,-2.1609,-2.1927,-2.1417,-2.0334,-2.1055,-2.1166,-2.0599,-2.0511,-2.0562,-2.0699,-2.0699,-2.0804,-2.108,-2.1943,-2.2518,-2.2805,-2.3642,-2.4092,-2.4222,-2.5051,-2.57,-2.6144,-2.6886,-2.7408,-2.756,-2.756,-2.756,-2.756,-2.756,-2.771,-2.8027,-2.8748,-2.9212,-2.9572,-3.0156,-3.0468,-3.051,-3.0935,-3.1389,-3.186,-3.2335,-3.2784,-3.3226,-3.3364,-3.339,-3.3442,-3.367,-3.402,-3.4455,-3.4498,-3.4607,-3.4908,-3.5057,-3.4899,-3.4483,-3.4208,-3.3607,-3.2718,-3.2004,-3.1667,-3.1446,-3.0887,-3.0656,-3.054,-3.054,-3.0558,-3.0482,-3.0492,-3.0569,-3.0665,-3.0694,-3.0665,-3.0579,-3.0434,-3.0337,-3.0543,-3.066,-3.0681,-3.0585,-3.0472,-3.0383,-3.0429,-3.0688,-3.1335,-3.3455,-3.4894,-3.4993,-3.4503,-3.4582,-3.519,-3.5187,-3.5189,-3.5243,-3.5366,-3.5262,-3.5225,-2.2888,-2.2888,-2.2888,-2.2888,-2.2888,-2.2888,-2.2888,-2.2888,-2.2888,-2.2783,-2.2663,-2.2783,-2.2783,-2.2663,-2.2783,-2.2888,-2.2873,-2.2463,-2.2049,-2.1657,-2.2049,-2.1513,-2.0523,-2.1215,-2.1326,-2.0749,-2.0612,-2.0599,-2.0712,-2.0699,-2.0804,-2.1053,-2.1943,-2.2492,-2.2766,-2.3629,-2.4137,-2.4336,-2.5204,-2.5918,-2.6304,-2.7093,-2.756,-2.756,-2.756,-2.756,-2.756,-2.756,-2.776,-2.8125,-2.8732,-2.9393,-2.9984,-3.0326,-3.0468,-3.051,-3.0855,-3.1351,-3.1932,-3.2335,-3.2752,-3.3316,-3.3393,-3.3379,-3.3413,-3.3588,-3.3923,-3.426,-3.4433,-3.4483,-3.4528,-3.4621,-3.448,-3.3987,-3.3566,-3.2842,-3.173,-3.1354,-3.096,-3.0598,-3.0529,-3.0483,-3.0419,-3.0483,-3.0452,-3.0359,-3.0359,-3.0417,-3.0505,-3.0584,-3.0584,-3.0524,-3.034,-3.0265,-3.0384,-3.0481,-3.0625,-3.0593,-3.0608,-3.0527,-3.1014,-3.1191,-3.2109,-3.4289,-3.52,-3.5187,-3.5171,-3.519,-3.519,-3.519,-3.5184,-3.5216,-3.5254,-3.5216,-3.5185,-2.2888,-2.2888,-2.2888,-2.2888,-2.2888,-2.2888,-2.2888,-2.2888,-2.2888,-2.2558,-2.2165,-2.2618,-2.2558,-2.2165,-2.2618,-2.2737,-2.2558,-2.2374,-2.2035,-2.1609,-2.1894,-2.1431,-2.0334,-2.1082,-2.118,-2.0699,-2.0699,-2.0699,-2.0699,-2.0712,-2.0961,-2.1485,-2.2073,-2.2688,-2.321,-2.3864,-2.4178,-2.4469,-2.5396,-2.5978,-2.5974,-2.7195,-2.7739,-2.7715,-2.7649,-2.7634,-2.7575,-2.756,-2.761,-2.781,-2.8606,-2.9544,-3.03,-3.0485,-3.0468,-3.051,-3.0773,-3.1274,-3.1878,-3.2214,-3.2636,-3.3256,-3.3393,-3.3375,-3.3415,-3.3577,-3.3798,-3.4035,-3.4176,-3.4226,-3.3828,-3.3691,-3.368,-3.3761,-3.2622,-3.1728,-3.1327,-3.0734,-3.0245,-3.0279,-3.0279,-3.0273,-3.0352,-3.0323,-3.0279,-3.0292,-3.0266,-3.0247,-3.0266,-3.0364,-3.0348,-3.0271,-3.0227,-3.0251,-3.0278,-3.0328,-3.0482,-3.0623,-3.0692,-3.079,-3.2064,-3.2628,-3.3445,-3.5197,-3.5184,-3.519,-3.519,-3.519,-3.519,-3.519,-3.5187,-3.5187,-3.5184,-3.5184,-3.5187,-2.2888,-2.2888,-2.2888,-2.2888,-2.2888,-2.2888,-2.2888,-2.2888,-2.2888,-2.2512,-2.2104,-2.2618,-2.2543,-2.2118,-2.2374,-2.254,-2.2452,-2.186,-2.1417,-2.1369,-2.1417,-2.1104,-2.0649,-2.1082,-2.1144,-2.0749,-2.0699,-2.0699,-2.0699,-2.0699,-2.1,-2.1525,-2.2113,-2.2897,-2.3851,-2.44,-2.4726,-2.5011,-2.6373,-2.7371,-2.7893,-2.8577,-2.8742,-2.8338,-2.8278,-2.8068,-2.7655,-2.756,-2.7745,-2.8027,-2.8748,-2.9528,-3.0284,-3.0468,-3.0468,-3.0526,-3.0749,-3.1218,-3.1896,-3.2214,-3.2636,-3.3226,-3.3393,-3.3393,-3.3393,-3.3452,-3.3623,-3.3762,-3.3555,-3.3324,-3.3313,-3.2522,-3.2205,-3.2271,-3.179,-3.1217,-3.0739,-3.0395,-3.0237,-3.0226,-3.0213,-3.0226,-3.0247,-3.0218,-3.0232,-3.024,-3.0215,-3.0202,-3.0215,-3.0241,-3.026,-3.0221,-3.0202,-3.0222,-3.0248,-3.026,-3.0364,-3.05,-3.0587,-3.0983,-3.234,-3.3876,-3.4783,-3.5181,-3.5187,-3.519,-3.519,-3.519,-3.519,-3.519,-3.519,-3.519,-3.519,-3.519,-3.519,-2.2752,-2.2902,-2.2692,-2.2752,-2.2843,-2.2706,-2.2752,-2.2843,-2.2706,-2.2282,-2.1899,-2.2142,-2.2021,-2.1663,-2.1908,-2.2077,-2.1955,-2.1272,-2.0993,-2.1006,-2.0957,-2.0785,-2.0562,-2.0947,-2.0997,-2.0749,-2.0699,-2.0699,-2.0699,-2.0738,-2.1159,-2.2073,-2.2505,-2.3406,-2.4635,-2.5079,-2.5315,-2.5651,-2.6923,-2.7938,-2.8511,-2.9197,-2.9385,-2.9026,-2.8966,-2.8622,-2.8023,-2.7949,-2.7966,-2.8186,-2.8701,-2.9528,-3.0384,-3.0468,-3.0468,-3.0568,-3.0773,-3.1157,-3.1714,-3.2109,-3.2519,-3.3068,-3.3334,-3.3393,-3.3393,-3.3393,-3.3528,-3.3652,-3.3172,-3.2741,-3.2681,-3.1864,-3.1137,-3.0967,-3.0992,-3.0777,-3.03,-3.0204,-3.0204,-3.0218,-3.0204,-3.0204,-3.0204,-3.0204,-3.0204,-3.0204,-3.0204,-3.0204,-3.0204,-3.0204,-3.0204,-3.0204,-3.0218,-3.0221,-3.0209,-3.0222,-3.0254,-3.033,-3.0426,-3.1034,-3.1993,-3.3882,-3.5197,-3.5184,-3.519,-3.519,-3.519,-3.519,-3.519,-3.519,-3.519,-3.519,-3.519,-3.519,-3.519,-2.2417,-2.2737,-2.231,-2.2356,-2.2646,-2.2324,-2.237,-2.2661,-2.2324,-2.1827,-2.1417,-2.1479,-2.1286,-2.0993,-2.1396,-2.1458,-2.118,-2.1006,-2.0822,-2.0686,-2.0599,-2.0511,-2.0562,-2.0699,-2.0749,-2.0699,-2.0699,-2.0699,-2.0712,-2.0804,-2.1538,-2.2936,-2.3223,-2.4138,-2.5471,-2.5863,-2.5916,-2.6196,-2.7234,-2.7961,-2.8092,-2.9178,-2.9714,-2.9639,-2.9609,-2.9325,-2.8757,-2.8532,-2.8269,-2.7881,-2.8591,-2.9483,-3.0241,-3.0468,-3.0468,-3.0526,-3.0749,-3.1078,-3.1452,-3.1986,-3.2435,-3.2827,-3.3208,-3.3393,-3.3393,-3.3393,-3.3426,-3.3451,-3.282,-3.2244,-3.1859,-3.1204,-3.0634,-3.0243,-3.0328,-3.03,-3.0223,-3.0204,-3.0204,-3.0204,-3.0204,-3.0204,-3.0204,-3.0204,-3.0204,-3.0204,-3.0204,-3.0204,-3.0204,-3.0204,-3.0204,-3.0204,-3.0204,-3.0218,-3.0221,-3.0221,-3.0355,-3.1101,-3.1172,-3.1722,-3.2039,-3.3655,-3.5165,-3.5187,-3.519,-3.519,-3.519,-3.519,-3.519,-3.519,-3.519,-3.519,-3.519,-3.519,-3.519,-2.167,-2.1766,-2.167,-2.167,-2.1766,-2.1623,-2.167,-2.1766,-2.167,-2.1334,-2.0993,-2.1237,-2.1091,-2.0696,-2.1006,-2.1055,-2.0871,-2.0573,-2.0485,-2.0498,-2.0334,-2.0448,-2.0612,-2.0662,-2.0699,-2.0699,-2.0699,-2.0699,-2.0738,-2.1067,-2.1969,-2.3184,-2.3733,-2.4739,-2.619,-2.6452,-2.67,-2.7209,-2.8332,-2.8984,-2.9153,-3.0221,-3.0705,-3.0298,-3.0268,-2.9953,-2.934,-2.8846,-2.8469,-2.8186,-2.8732,-2.93,-2.9859,-3.0251,-3.0468,-3.0526,-3.0733,-3.1038,-3.1414,-3.195,-3.2435,-3.2763,-3.316,-3.3393,-3.3393,-3.3393,-3.3151,-3.271,-3.2001,-3.1427,-3.0946,-3.0375,-3.0086,-3.017,-3.0157,-3.0204,-3.0204,-3.0204,-3.0204,-3.0204,-3.0204,-3.0204,-3.0204,-3.0204,-3.0204,-3.0204,-3.0204,-3.0204,-3.0204,-3.0204,-3.0204,-3.0204,-3.0204,-3.0204,-3.0218,-3.0218,-3.0643,-3.1771,-3.2301,-3.2851,-3.2955,-3.3382,-3.4544,-3.519,-3.519,-3.519,-3.519,-3.519,-3.519,-3.519,-3.519,-3.519,-3.519,-3.519,-3.519,-2.1175,-2.1369,-2.1188,-2.1175,-2.1369,-2.1175,-2.1175,-2.1321,-2.1126,-2.0894,-2.0646,-2.0646,-2.061,-2.0448,-2.0573,-2.0673,-2.0599,-2.0334,-2.0347,-2.0461,-2.0448,-2.0549,-2.0662,-2.0699,-2.0699,-2.0699,-2.0699,-2.0856,-2.1028,-2.1368,-2.2374,-2.3759,-2.4308,-2.5367,-2.6922,-2.704,-2.717,-2.7657,-2.8583,-2.9205,-2.9566,-3.0524,-3.0998,-3.0872,-3.0926,-3.0642,-2.9968,-2.9101,-2.852,-2.8409,-2.8717,-2.913,-2.9685,-3.0208,-3.0468,-3.051,-3.0692,-3.0935,-3.124,-3.1806,-3.2299,-3.2651,-3.3068,-3.3345,-3.3302,-3.314,-3.2596,-3.2262,-3.1292,-3.0636,-3.0332,-2.9859,-2.9774,-2.9969,-3.0064,-3.0094,-3.0171,-3.0204,-3.0204,-3.0204,-3.0204,-3.0204,-3.0204,-3.0204,-3.0204,-3.0204,-3.0204,-3.0204,-3.0204,-3.0204,-3.0204,-3.0204,-3.0204,-3.0204,-3.0204,-3.0204,-3.0438,-3.1531,-3.3318,-3.3907,-3.3872,-3.3729,-3.4394,-3.519,-3.519,-3.519,-3.519,-3.519,-3.519,-3.519,-3.519,-3.519,-3.519,-3.519,-3.519,-2.0795,-2.1175,-2.0696,-2.0795,-2.1077,-2.0746,-2.0746,-2.1028,-2.0696,-2.051,-2.0409,-2.0003,-2.0016,-2.0067,-2.0246,-2.0271,-2.0361,-2.0195,-2.0283,-2.0448,-2.0549,-2.0699,-2.0699,-2.0699,-2.0699,-2.0699,-2.0699,-2.0976,-2.1381,-2.1603,-2.2871,-2.4413,-2.5074,-2.5981,-2.7144,-2.7471,-2.7456,-2.7577,-2.8222,-2.8839,-2.9331,-3.0147,-3.0778,-3.113,-3.1332,-3.1019,-3.0357,-2.946,-2.874,-2.8376,-2.8498,-2.8992,-2.9673,-3.0248,-3.0468,-3.051,-3.0651,-3.0773,-3.0998,-3.1623,-3.2092,-3.2317,-3.2912,-3.3262,-3.3015,-3.2575,-3.2144,-3.1655,-3.0613,-3.0054,-2.9855,-2.9576,-2.9588,-2.9786,-2.9836,-2.9953,-3.0079,-3.019,-3.0204,-3.0204,-3.0204,-3.0204,-3.0204,-3.0204,-3.0204,-3.0204,-3.0204,-3.0204,-3.0204,-3.0204,-3.0204,-3.0204,-3.0204,-3.0204,-3.0204,-3.0204,-3.0519,-3.123,-3.3639,-3.4745,-3.4745,-3.4732,-3.4942,-3.519,-3.519,-3.519,-3.519,-3.519,-3.5171,-3.519,-3.519,-3.519,-3.519,-3.519,-3.519,-2.0055,-2.0144,-2.0003,-2.0055,-2.0093,-2.0055,-2.0042,-2.0144,-2.0055,-2.0067,-1.9952,-1.985,-1.985,-1.9875,-1.999,-2.0067,-2.0169,-2.0118,-2.0144,-2.0283,-2.0562,-2.0699,-2.0699,-2.0699,-2.0699,-2.0699,-2.0699,-2.0976,-2.1525,-2.2439,-2.3537,-2.4844,-2.585,-2.67,-2.7379,-2.7469,-2.7469,-2.759,-2.817,-2.8546,-2.8903,-2.9842,-3.0584,-3.0851,-3.1278,-3.1123,-3.0642,-3.0253,-2.9589,-2.8864,-2.857,-2.884,-2.9505,-3.0168,-3.0459,-3.0468,-3.0609,-3.0733,-3.0975,-3.1393,-3.1733,-3.1914,-3.2413,-3.2688,-3.2061,-3.209,-3.1482,-3.0677,-2.9997,-2.961,-2.9342,-2.9357,-2.9434,-2.9551,-2.9626,-2.9662,-2.9769,-3.0,-3.018,-3.019,-3.0209,-3.0204,-3.0204,-3.0204,-3.0204,-3.0204,-3.0204,-3.0204,-3.0204,-3.0204,-3.0204,-3.0204,-3.0204,-3.0204,-3.0204,-3.0242,-3.0481,-3.0776,-3.2806,-3.4174,-3.4216,-3.4464,-3.4219,-3.4601,-3.519,-3.5133,-3.4866,-3.5057,-3.4999,-3.5095,-3.519,-3.519,-3.519,-3.519,-3.519,-1.9798,-1.9798,-1.9798,-1.9798,-1.9798,-1.9798,-1.985,-1.9862,-1.9926,-1.9875,-1.9862,-1.9862,-1.9862,-1.9798,-1.9926,-2.008,-2.0156,-2.022,-2.0195,-2.0246,-2.0511,-2.0662,-2.0599,-2.0649,-2.0699,-2.0699,-2.0699,-2.1131,-2.1943,-2.2831,-2.3916,-2.5315,-2.6269,-2.6883,-2.7445,-2.7469,-2.7469,-2.7536,-2.7855,-2.817,-2.8597,-2.9456,-3.0464,-3.0851,-3.1336,-3.1315,-3.1046,-3.0642,-2.9998,-2.9162,-2.8514,-2.837,-2.9061,-2.9915,-3.032,-3.0231,-3.0468,-3.0692,-3.0918,-3.1218,-3.1545,-3.1642,-3.1915,-3.1809,-3.1413,-3.1242,-3.0594,-2.9908,-2.9471,-2.9112,-2.8905,-2.8984,-2.9166,-2.9336,-2.9435,-2.9475,-2.9645,-2.9954,-3.0159,-3.0129,-3.0145,-3.0204,-3.0214,-3.0142,-3.0171,-3.0157,-3.0171,-3.0171,-3.0204,-3.0204,-3.0204,-3.0204,-3.0204,-3.0204,-3.0223,-3.0285,-3.0424,-3.0643,-3.1348,-3.205,-3.2092,-3.2508,-3.2909,-3.3459,-3.4009,-3.4369,-3.4235,-3.4522,-3.4827,-3.5095,-3.519,-3.519,-3.519,-3.519,-3.519,-1.9527,-1.9527,-1.9527,-1.9592,-1.9643,-1.9656,-1.9759,-1.999,-1.999,-1.999,-1.999,-1.999,-1.9926,-1.9862,-1.9926,-2.0067,-2.0131,-2.0335,-2.0246,-2.0144,-2.0448,-2.0612,-2.0612,-2.0675,-2.0712,-2.0699,-2.0699,-2.1315,-2.2348,-2.3171,-2.4347,-2.5772,-2.653,-2.7079,-2.7458,-2.7469,-2.7469,-2.7536,-2.759,-2.7789,-2.8287,-2.9016,-2.995,-3.0955,-3.1409,-3.1452,-3.1345,-3.0956,-3.0328,-2.9579,-2.8509,-2.8117,-2.8383,-2.9196,-3.0124,-2.9729,-3.0241,-3.0593,-3.0814,-3.1061,-3.1244,-3.1445,-3.1185,-3.0933,-3.0698,-3.0143,-2.9635,-2.935,-2.9013,-2.8728,-2.8687,-2.8791,-2.8915,-2.9075,-2.9166,-2.9314,-2.9511,-2.9832,-2.9833,-2.9916,-3.0042,-3.0167,-3.0026,-2.9924,-3.0007,-3.009,-3.0123,-3.0157,-3.0195,-3.0209,-3.0209,-3.0204,-3.0204,-3.0204,-3.0204,-3.0228,-3.0386,-3.0471,-3.0685,-3.0689,-3.0708,-3.11,-3.1741,-3.2088,-3.2562,-3.3035,-3.349,-3.37,-3.414,-3.4808,-3.5187,-3.5187,-3.5187,-3.519,-3.519,-1.8363,-1.8352,-1.8363,-1.8697,-1.9093,-1.9146,-1.946,-1.9926,-1.999,-1.999,-1.999,-1.999,-1.9926,-1.9862,-1.9811,-1.9862,-1.9926,-2.0131,-2.0233,-2.0182,-2.0398,-2.0511,-2.0612,-2.0664,-2.0701,-2.0712,-2.0817,-2.1616,-2.2831,-2.3733,-2.4779,-2.6255,-2.7053,-2.7445,-2.7484,-2.7469,-2.7469,-2.7469,-2.7469,-2.7656,-2.7842,-2.8481,-2.9393,-3.0644,-3.1161,-3.1409,-3.1467,-3.1375,-3.0821,-2.9714,-2.9424,-2.8711,-2.8046,-2.8108,-2.8774,-2.9604,-3.0248,-3.0576,-3.0733,-3.0707,-3.0566,-3.0378,-3.0289,-2.9834,-2.9338,-2.9117,-2.8938,-2.8685,-2.8647,-2.8587,-2.8612,-2.8669,-2.8718,-2.8797,-2.8868,-2.8957,-2.9048,-2.9211,-2.9418,-2.9589,-2.987,-3.0074,-2.988,-2.9687,-2.9649,-2.9739,-2.9845,-3.0013,-3.0181,-3.0202,-3.0219,-3.0214,-3.0204,-3.0204,-3.0204,-3.0214,-3.0276,-3.0285,-3.0388,-3.0388,-3.0384,-3.0309,-3.061,-3.1142,-3.1653,-3.2195,-3.2558,-3.2844,-3.3528,-3.427,-3.4706,-3.5085,-3.5184,-3.5184,-3.5187,-1.8093,-1.8093,-1.8093,-1.8267,-1.8548,-1.8881,-1.9198,-1.9617,-1.9888,-1.999,-1.999,-1.999,-1.9926,-1.985,-1.9798,-1.9798,-1.9862,-2.0067,-2.0118,-2.0067,-2.0233,-2.0398,-2.0461,-2.0576,-2.0701,-2.0843,-2.1272,-2.2075,-2.3171,-2.3799,-2.5079,-2.6412,-2.7249,-2.7523,-2.7469,-2.7469,-2.7469,-2.7469,-2.7469,-2.7469,-2.7536,-2.817,-2.9156,-3.0208,-3.0777,-3.1146,-3.1467,-3.1467,-3.0881,-2.9879,-2.9579,-2.8831,-2.8017,-2.7697,-2.8122,-2.9265,-3.0114,-3.0575,-3.0543,-3.0351,-2.9949,-2.9849,-2.9451,-2.8885,-2.8438,-2.8342,-2.8352,-2.8388,-2.8219,-2.8422,-2.8587,-2.8644,-2.8694,-2.8718,-2.8761,-2.881,-2.8881,-2.8942,-2.9112,-2.9293,-2.9394,-2.955,-2.9664,-2.9476,-2.9326,-2.9382,-2.9549,-2.9792,-3.0071,-3.0137,-3.0121,-3.001,-2.9988,-2.9969,-3.0007,-3.0079,-3.0022,-3.0045,-3.0064,-3.0064,-3.0102,-3.0041,-3.0133,-3.0459,-3.0944,-3.1356,-3.1737,-3.2076,-3.2894,-3.354,-3.3601,-3.385,-3.476,-3.5197,-3.4901,-1.7765,-1.7776,-1.7776,-1.7831,-1.8038,-1.8548,-1.8857,-1.9121,-1.9604,-1.9823,-1.9823,-1.9797,-1.9693,-1.9656,-1.9643,-1.9643,-1.972,-1.9978,-2.0029,-1.9978,-2.008,-2.0131,-2.022,-2.054,-2.081,-2.0849,-2.1812,-2.2722,-2.3476,-2.4073,-2.5262,-2.6556,-2.7379,-2.7469,-2.7469,-2.7469,-2.7469,-2.7469,-2.7469,-2.7469,-2.7656,-2.8157,-2.8967,-3.0025,-3.0343,-3.0777,-3.1146,-3.1409,-3.0836,-2.9983,-2.9475,-2.8981,-2.785,-2.7569,-2.8025,-2.8919,-2.9907,-3.0369,-3.0245,-2.9912,-2.9453,-2.9156,-2.8213,-2.7892,-2.7742,-2.7676,-2.7679,-2.8149,-2.8208,-2.8147,-2.8396,-2.8543,-2.8551,-2.8576,-2.8644,-2.8761,-2.8743,-2.881,-2.896,-2.9034,-2.8993,-2.9101,-2.9301,-2.9319,-2.9165,-2.9226,-2.9379,-2.942,-2.9683,-2.9926,-2.9922,-2.9774,-2.9699,-2.9662,-2.9736,-2.9903,-2.979,-2.9676,-2.9658,-2.9658,-2.9751,-2.9808,-2.9918,-2.9971,-3.0026,-3.0435,-3.0849,-3.1202,-3.1641,-3.1985,-3.2138,-3.2405,-3.286,-3.3486,-3.3643,-1.6602,-1.6591,-1.6591,-1.6853,-1.7379,-1.7929,-1.8244,-1.8459,-1.9016,-1.9291,-1.9291,-1.9189,-1.9136,-1.904,-1.9081,-1.9093,-1.9316,-1.9681,-1.9926,-1.9926,-1.9989,-1.9911,-1.9897,-2.0741,-2.0856,-2.0957,-2.2016,-2.3054,-2.3832,-2.4497,-2.572,-2.7079,-2.7419,-2.7469,-2.7469,-2.7469,-2.7469,-2.7469,-2.7469,-2.7469,-2.759,-2.8105,-2.8532,-2.9044,-2.978,-3.0464,-3.0644,-3.0984,-3.0768,-2.9719,-2.9579,-2.8921,-2.7895,-2.7595,-2.7834,-2.8605,-2.9492,-3.0222,-2.9659,-2.9204,-2.8777,-2.8202,-2.757,-2.7278,-2.7182,-2.7208,-2.7289,-2.7449,-2.7625,-2.7851,-2.8075,-2.8156,-2.8183,-2.8255,-2.8378,-2.8378,-2.8404,-2.8601,-2.8737,-2.8881,-2.887,-2.8952,-2.9097,-2.9052,-2.903,-2.9097,-2.9185,-2.9217,-2.9297,-2.9547,-2.9643,-2.9472,-2.9397,-2.9378,-2.9397,-2.9567,-2.9549,-2.9363,-2.9344,-2.9326,-2.9382,-2.9476,-2.9532,-2.9587,-2.9568,-2.9696,-3.0205,-3.0434,-3.0418,-3.0666,-3.1112,-3.0898,-3.0566,-3.1291,-3.2302,-1.6374,-1.6374,-1.6374,-1.6534,-1.6797,-1.7324,-1.7644,-1.7809,-1.8298,-1.8578,-1.8614,-1.8785,-1.863,-1.8263,-1.8382,-1.8697,-1.8987,-1.9328,-1.9617,-1.987,-1.9874,-1.9797,-1.9932,-2.0342,-2.0576,-2.1169,-2.2015,-2.2954,-2.3897,-2.4767,-2.5837,-2.7209,-2.7469,-2.7469,-2.7456,-2.7469,-2.7469,-2.7469,-2.7469,-2.7469,-2.759,-2.7789,-2.8105,-2.8481,-2.9093,-2.958,-3.0072,-3.0555,-3.0264,-2.9378,-2.9347,-2.8936,-2.7985,-2.758,-2.7659,-2.7734,-2.8248,-2.8738,-2.8851,-2.8265,-2.7778,-2.7491,-2.7153,-2.684,-2.6742,-2.6808,-2.695,-2.6995,-2.7261,-2.7495,-2.7694,-2.7787,-2.7851,-2.7926,-2.8055,-2.8055,-2.8065,-2.8326,-2.85,-2.8633,-2.8773,-2.8839,-2.8887,-2.8952,-2.8957,-2.9026,-2.9071,-2.9097,-2.9119,-2.9193,-2.9197,-2.9104,-2.9086,-2.9067,-2.9126,-2.9203,-2.9259,-2.9148,-2.9148,-2.9132,-2.9079,-2.9103,-2.9208,-2.921,-2.921,-2.9383,-2.9676,-2.9805,-2.9918,-3.0061,-3.0238,-3.0197,-3.0193,-3.0273,-3.1358,-1.6259,-1.6374,-1.6374,-1.6374,-1.642,-1.6944,-1.7157,-1.7045,-1.76,-1.7875,-1.7952,-1.813,-1.7909,-1.7456,-1.7688,-1.8173,-1.8705,-1.9006,-1.9383,-1.9643,-1.9787,-1.9769,-1.9767,-1.9912,-2.0415,-2.0846,-2.164,-2.2604,-2.3517,-2.4305,-2.5294,-2.7111,-2.7108,-2.7323,-2.739,-2.7255,-2.7188,-2.7469,-2.7469,-2.7469,-2.7536,-2.7536,-2.7776,-2.8091,-2.8481,-2.8789,-2.9504,-2.9918,-2.9639,-2.9322,-2.9366,-2.8952,-2.7835,-2.6748,-2.6732,-2.6713,-2.6887,-2.6776,-2.7179,-2.7147,-2.6891,-2.6849,-2.6868,-2.6639,-2.6708,-2.6691,-2.6724,-2.6749,-2.6933,-2.7123,-2.7222,-2.7412,-2.7547,-2.7595,-2.7701,-2.7683,-2.7695,-2.7954,-2.8147,-2.8255,-2.8412,-2.8633,-2.87,-2.8834,-2.8905,-2.8975,-2.8994,-2.8994,-2.897,-2.8965,-2.8892,-2.8865,-2.8966,-2.8966,-2.8998,-2.8994,-2.8989,-2.897,-2.897,-2.897,-2.8966,-2.8938,-2.8986,-2.8935,-2.8904,-2.9021,-2.9297,-2.9377,-2.9474,-2.9645,-2.9847,-3.0086,-3.0141,-3.0067,-3.0129,-1.5836,-1.6374,-1.6374,-1.6374,-1.6431,-1.6955,-1.6888,-1.6591,-1.7045,-1.7257,-1.7268,-1.7279,-1.7088,-1.6828,-1.7175,-1.7632,-1.8109,-1.9198,-1.9477,-1.9713,-2.0029,-1.9691,-1.9604,-1.9818,-2.0247,-2.0266,-2.1028,-2.2039,-2.2869,-2.3173,-2.4621,-2.6183,-2.6283,-2.6812,-2.704,-2.6756,-2.6973,-2.7323,-2.7469,-2.7469,-2.7469,-2.7469,-2.759,-2.7709,-2.8222,-2.8776,-2.9428,-2.954,-2.9435,-2.9156,-2.9439,-2.8861,-2.747,-2.5844,-2.5604,-2.5929,-2.527,-2.5242,-2.561,-2.6254,-2.651,-2.6471,-2.6502,-2.6606,-2.6691,-2.6708,-2.6708,-2.6707,-2.6808,-2.6821,-2.6897,-2.6992,-2.721,-2.7258,-2.7321,-2.7352,-2.7444,-2.7636,-2.7811,-2.7851,-2.802,-2.8281,-2.8412,-2.8482,-2.881,-2.8905,-2.8983,-2.9002,-2.89,-2.8858,-2.8718,-2.8706,-2.8863,-2.8942,-2.8985,-2.8985,-2.8936,-2.89,-2.8876,-2.8912,-2.8931,-2.89,-2.8819,-2.8759,-2.8732,-2.8819,-2.891,-2.9052,-2.9191,-2.9263,-2.9438,-2.9626,-2.9702,-2.9626,-2.9439,-1.501,-1.5245,-1.5594,-1.6019,-1.6431,-1.6637,-1.6581,-1.6488,-1.6637,-1.6684,-1.6694,-1.6705,-1.6905,-1.708,-1.7053,-1.7584,-1.8267,-1.8736,-1.9188,-1.944,-1.9584,-1.9449,-1.9401,-1.9706,-2.0206,-2.0153,-2.0632,-2.1099,-2.1909,-2.2252,-2.3029,-2.4154,-2.4989,-2.5578,-2.5812,-2.6264,-2.6688,-2.7134,-2.7281,-2.7281,-2.7335,-2.7403,-2.7403,-2.7523,-2.7643,-2.796,-2.8309,-2.8655,-2.8621,-2.8653,-2.9158,-2.8344,-2.7171,-2.5429,-2.5022,-2.5386,-2.4446,-2.4402,-2.4591,-2.5305,-2.574,-2.6322,-2.6434,-2.6571,-2.6674,-2.6691,-2.6708,-2.6691,-2.6691,-2.664,-2.6757,-2.6822,-2.6873,-2.6906,-2.6971,-2.7004,-2.7132,-2.7334,-2.7426,-2.747,-2.7707,-2.7964,-2.8065,-2.812,-2.8507,-2.8834,-2.8912,-2.8985,-2.887,-2.8785,-2.8656,-2.854,-2.8662,-2.8821,-2.8887,-2.8889,-2.8864,-2.8822,-2.8798,-2.8822,-2.8816,-2.8743,-2.8676,-2.8591,-2.8609,-2.8682,-2.8767,-2.8815,-2.8902,-2.8968,-2.9018,-2.9082,-2.9142,-2.9202,-2.9105,-1.435,-1.4588,-1.5108,-1.5652,-1.6077,-1.6316,-1.6374,-1.6374,-1.6431,-1.6389,-1.6403,-1.6512,-1.6988,-1.7413,-1.7426,-1.7674,-1.8408,-1.8823,-1.9054,-1.9335,-1.9525,-1.9392,-1.9469,-1.9544,-1.9771,-1.9955,-2.0009,-2.0303,-2.086,-2.1235,-2.1809,-2.2528,-2.341,-2.401,-2.5169,-2.5615,-2.6402,-2.6998,-2.7079,-2.7092,-2.7214,-2.7268,-2.7268,-2.7403,-2.7456,-2.7538,-2.7613,-2.7845,-2.7736,-2.7726,-2.7831,-2.7646,-2.6599,-2.5583,-2.4978,-2.464,-2.4388,-2.4264,-2.4273,-2.4679,-2.5176,-2.5705,-2.6154,-2.6378,-2.6586,-2.6605,-2.647,-2.6691,-2.6624,-2.6539,-2.6624,-2.6725,-2.6758,-2.6791,-2.6791,-2.6825,-2.6858,-2.7004,-2.7051,-2.7115,-2.7317,-2.75,-2.7619,-2.7706,-2.8065,-2.8468,-2.8791,-2.8845,-2.8837,-2.8748,-2.8649,-2.8497,-2.8416,-2.8603,-2.8781,-2.8778,-2.8768,-2.8714,-2.8677,-2.8651,-2.8633,-2.8615,-2.859,-2.859,-2.8583,-2.8594,-2.8637,-2.8712,-2.8664,-2.864,-2.8722,-2.8838,-2.8874,-2.8956,-2.9012,-1.3863,-1.4519,-1.5118,-1.5352,-1.541,-1.6124,-1.6374,-1.6384,-1.6425,-1.6407,-1.6465,-1.6775,-1.7305,-1.7719,-1.7791,-1.803,-1.8543,-1.9061,-1.9275,-1.9253,-1.9566,-1.9498,-1.9323,-1.9243,-1.933,-1.9198,-1.9295,-1.9628,-1.9881,-2.0165,-2.0589,-2.1083,-2.1886,-2.2844,-2.4542,-2.538,-2.6195,-2.6863,-2.6875,-2.6956,-2.7011,-2.7134,-2.7134,-2.7146,-2.7281,-2.7406,-2.7192,-2.7085,-2.6973,-2.6875,-2.6504,-2.6214,-2.5618,-2.4411,-2.4025,-2.4357,-2.3925,-2.3699,-2.3681,-2.4461,-2.4863,-2.5198,-2.5631,-2.6052,-2.6435,-2.6407,-2.6092,-2.6095,-2.6195,-2.628,-2.647,-2.6624,-2.6556,-2.6624,-2.659,-2.6657,-2.6691,-2.6758,-2.6841,-2.6873,-2.6873,-2.6937,-2.7068,-2.726,-2.7643,-2.8028,-2.8504,-2.8639,-2.8625,-2.8347,-2.8124,-2.8017,-2.784,-2.7939,-2.811,-2.8551,-2.8658,-2.8604,-2.8604,-2.8593,-2.8598,-2.8605,-2.858,-2.8587,-2.8464,-2.8332,-2.8438,-2.8612,-2.8583,-2.8597,-2.8597,-2.867,-2.8707,-2.8749,-2.8797,-1.3042,-1.3277,-1.3863,-1.4163,-1.4282,-1.5294,-1.5951,-1.6378,-1.6674,-1.6673,-1.6607,-1.7103,-1.7926,-1.8323,-1.83,-1.8392,-1.8809,-1.8958,-1.9135,-1.9166,-1.9386,-1.933,-1.9131,-1.9131,-1.9131,-1.9131,-1.9096,-1.9127,-1.9349,-1.9609,-1.982,-2.0315,-2.098,-2.2207,-2.3609,-2.4612,-2.5264,-2.6,-2.6383,-2.6739,-2.6807,-2.6863,-2.693,-2.6943,-2.7134,-2.6998,-2.6673,-2.6445,-2.6242,-2.5816,-2.5322,-2.4798,-2.4461,-2.3459,-2.3161,-2.3539,-2.3363,-2.361,-2.3595,-2.3979,-2.4338,-2.4728,-2.5137,-2.5669,-2.6319,-2.5945,-2.5587,-2.5395,-2.5579,-2.5697,-2.5852,-2.5872,-2.5908,-2.6227,-2.6332,-2.647,-2.6573,-2.6657,-2.6758,-2.6758,-2.6758,-2.6758,-2.6853,-2.6946,-2.722,-2.7426,-2.7814,-2.7982,-2.7971,-2.752,-2.7181,-2.7163,-2.7093,-2.7181,-2.7368,-2.7829,-2.823,-2.8279,-2.8413,-2.8603,-2.8596,-2.847,-2.8335,-2.8192,-2.8103,-2.8031,-2.8254,-2.8422,-2.8562,-2.8594,-2.8601,-2.859,-2.8639,-2.8664,-2.867,-1.2621,-1.2683,-1.3268,-1.3511,-1.3692,-1.4638,-1.5547,-1.6244,-1.6698,-1.685,-1.7001,-1.7605,-1.83,-1.8783,-1.8822,-1.8713,-1.9065,-1.9131,-1.9121,-1.9131,-1.9131,-1.9131,-1.9131,-1.9131,-1.9131,-1.9131,-1.9131,-1.9152,-1.9127,-1.9443,-1.9634,-1.9965,-2.0493,-2.1449,-2.2564,-2.3369,-2.4492,-2.53,-2.5886,-2.6245,-2.6521,-2.6726,-2.6726,-2.6744,-2.6713,-2.6422,-2.5936,-2.566,-2.5421,-2.4736,-2.408,-2.3519,-2.3211,-2.2867,-2.2577,-2.2904,-2.329,-2.3551,-2.3595,-2.3638,-2.3964,-2.4282,-2.4632,-2.4973,-2.5441,-2.5155,-2.4898,-2.4777,-2.4936,-2.5067,-2.5174,-2.5137,-2.554,-2.5852,-2.5961,-2.6139,-2.635,-2.6436,-2.6571,-2.6605,-2.6691,-2.6708,-2.6657,-2.6725,-2.6841,-2.6971,-2.7103,-2.7227,-2.7382,-2.7039,-2.6718,-2.6736,-2.674,-2.6882,-2.6964,-2.7139,-2.7542,-2.7871,-2.8134,-2.8357,-2.8184,-2.7992,-2.7929,-2.7784,-2.7596,-2.7589,-2.8013,-2.8255,-2.837,-2.851,-2.8612,-2.8601,-2.859,-2.8597,-2.8597,-1.2575,-1.2699,-1.3224,-1.3501,-1.3623,-1.4273,-1.506,-1.6062,-1.6441,-1.7046,-1.7684,-1.8053,-1.8575,-1.8992,-1.9044,-1.9044,-1.9054,-1.9131,-1.9131,-1.9131,-1.9131,-1.9131,-1.9131,-1.9131,-1.9131,-1.9131,-1.9131,-1.9131,-1.9075,-1.9235,-1.9453,-1.9748,-2.0193,-2.0792,-2.1553,-2.228,-2.3564,-2.4625,-2.537,-2.5886,-2.6383,-2.6589,-2.6514,-2.6455,-2.6232,-2.5764,-2.5269,-2.4807,-2.4107,-2.343,-2.2782,-2.2485,-2.2194,-2.1966,-2.2348,-2.274,-2.3246,-2.3319,-2.3377,-2.3319,-2.3508,-2.3752,-2.4101,-2.4015,-2.4081,-2.4384,-2.4365,-2.4335,-2.4492,-2.4437,-2.4458,-2.4904,-2.5313,-2.5427,-2.5503,-2.5726,-2.598,-2.617,-2.6374,-2.6478,-2.6637,-2.6673,-2.6486,-2.6487,-2.6521,-2.6556,-2.6674,-2.6792,-2.6908,-2.6956,-2.6719,-2.6686,-2.6704,-2.6707,-2.6773,-2.6865,-2.6954,-2.737,-2.7757,-2.7944,-2.7724,-2.7543,-2.7514,-2.7379,-2.7046,-2.7151,-2.7659,-2.8,-2.8228,-2.8353,-2.8568,-2.8616,-2.8598,-2.8594,-2.8601,-1.2773,-1.2996,-1.3123,-1.3379,-1.3632,-1.4073,-1.4558,-1.5167,-1.6429,-1.735,-1.7728,-1.7972,-1.8342,-1.9039,-1.858,-1.8664,-1.8931,-1.9131,-1.9131,-1.9131,-1.9131,-1.9131,-1.9131,-1.9131,-1.9131,-1.9131,-1.9131,-1.9131,-1.9131,-1.9131,-1.9303,-1.9748,-1.9872,-2.0213,-2.0585,-2.0979,-2.2551,-2.3962,-2.4744,-2.5557,-2.6208,-2.6483,-2.6307,-2.6047,-2.5769,-2.5189,-2.4532,-2.4329,-2.3628,-2.2866,-2.2424,-2.2059,-2.159,-2.1565,-2.1779,-2.2221,-2.2452,-2.2483,-2.2603,-2.2875,-2.3098,-2.3187,-2.3522,-2.3736,-2.3734,-2.3846,-2.3998,-2.4061,-2.4143,-2.4157,-2.4206,-2.4538,-2.4863,-2.502,-2.5098,-2.5275,-2.554,-2.5721,-2.5942,-2.6274,-2.6438,-2.6217,-2.6118,-2.6191,-2.6227,-2.6229,-2.628,-2.6399,-2.6519,-2.6589,-2.6319,-2.6302,-2.6522,-2.6455,-2.6607,-2.6723,-2.6719,-2.6845,-2.7247,-2.7445,-2.7239,-2.71,-2.7113,-2.7034,-2.6882,-2.703,-2.733,-2.7607,-2.7833,-2.8344,-2.8561,-2.8586,-2.8585,-2.8531,-2.8572,-1.2845,-1.3267,-1.329,-1.3481,-1.3791,-1.4021,-1.4312,-1.4849,-1.6125,-1.7186,-1.8114,-1.7755,-1.7463,-1.7338,-1.7716,-1.824,-1.8586,-1.8998,-1.9131,-1.9131,-1.9065,-1.9131,-1.9131,-1.9065,-1.9131,-1.9131,-1.9065,-1.9131,-1.9131,-1.9152,-1.9261,-1.9427,-1.9557,-1.9768,-2.0118,-2.0386,-2.1257,-2.273,-2.3979,-2.5001,-2.5632,-2.6077,-2.5875,-2.5561,-2.5285,-2.4582,-2.4054,-2.3977,-2.3283,-2.2635,-2.226,-2.1831,-2.1392,-2.1266,-2.1423,-2.1813,-2.2081,-2.2175,-2.2267,-2.2406,-2.2543,-2.2649,-2.2875,-2.3216,-2.348,-2.3698,-2.3709,-2.3719,-2.3864,-2.3952,-2.4009,-2.4135,-2.4343,-2.4589,-2.4695,-2.4839,-2.502,-2.5214,-2.5589,-2.5956,-2.5961,-2.5702,-2.5659,-2.5811,-2.5905,-2.5888,-2.5921,-2.6023,-2.6234,-2.648,-2.5903,-2.5461,-2.5841,-2.6132,-2.6335,-2.6572,-2.6691,-2.6706,-2.6839,-2.692,-2.6688,-2.6739,-2.6867,-2.6903,-2.6886,-2.7002,-2.7164,-2.7186,-2.74,-2.7892,-2.817,-2.8028,-2.8081,-2.8342,-2.8407,-1.2825,-1.3632,-1.3656,-1.3862,-1.4132,-1.418,-1.4331,-1.4689,-1.5438,-1.6738,-1.8014,-1.7338,-1.6095,-1.5791,-1.6734,-1.7677,-1.8172,-1.8654,-1.8787,-1.8998,-1.8865,-1.8787,-1.8654,-1.8931,-1.8798,-1.8931,-1.9065,-1.9131,-1.9131,-1.9142,-1.9152,-1.9075,-1.9183,-1.9354,-1.9644,-1.9696,-2.0403,-2.1468,-2.2682,-2.3723,-2.4689,-2.5247,-2.5419,-2.5103,-2.4593,-2.3979,-2.3791,-2.3414,-2.2827,-2.251,-2.2216,-2.1832,-2.1337,-2.1144,-2.1332,-2.1361,-2.1636,-2.1718,-2.1813,-2.1955,-2.2049,-2.2095,-2.2081,-2.2583,-2.3022,-2.3363,-2.3406,-2.3581,-2.3728,-2.3756,-2.3842,-2.394,-2.4135,-2.4261,-2.4343,-2.4508,-2.4695,-2.4839,-2.5005,-2.5289,-2.5187,-2.4981,-2.5082,-2.5189,-2.5277,-2.5379,-2.5584,-2.5632,-2.5777,-2.6085,-2.566,-2.4874,-2.5131,-2.5615,-2.616,-2.6434,-2.6656,-2.6691,-2.6708,-2.6708,-2.6703,-2.6689,-2.6708,-2.6741,-2.6791,-2.6906,-2.6987,-2.7014,-2.7043,-2.7338,-2.7513,-2.7282,-2.7472,-2.7841,-2.7882,-1.2971,-1.4005,-1.4275,-1.445,-1.4506,-1.4443,-1.4474,-1.4569,-1.4776,-1.5246,-1.5698,-1.585,-1.559,-1.4981,-1.5861,-1.6932,-1.7823,-1.8037,-1.824,-1.824,-1.824,-1.8037,-1.7765,-1.8172,-1.8317,-1.8452,-1.8721,-1.9131,-1.9131,-1.9131,-1.9131,-1.9131,-1.9131,-1.9256,-1.9282,-1.937,-1.9724,-2.0445,-2.1155,-2.2139,-2.3119,-2.3819,-2.4091,-2.3916,-2.3515,-2.3579,-2.3441,-2.319,-2.2739,-2.2435,-2.2438,-2.1975,-2.1287,-2.1303,-2.1131,-2.0954,-2.1099,-2.1184,-2.1215,-2.141,-2.1554,-2.1684,-2.1827,-2.2123,-2.2509,-2.2859,-2.3142,-2.3393,-2.357,-2.354,-2.3598,-2.3726,-2.3839,-2.394,-2.3982,-2.4151,-2.4374,-2.4441,-2.4508,-2.4461,-2.4389,-2.444,-2.4545,-2.4618,-2.4658,-2.4839,-2.5091,-2.5226,-2.5194,-2.5365,-2.5438,-2.4824,-2.4559,-2.4964,-2.5651,-2.6217,-2.6424,-2.6636,-2.6707,-2.6708,-2.6691,-2.6708,-2.6708,-2.6708,-2.6758,-2.6825,-2.6858,-2.6774,-2.6906,-2.7068,-2.7083,-2.6994,-2.6931,-2.7169,-2.713,-1.2811,-1.3785,-1.4348,-1.4569,-1.4497,-1.4569,-1.4497,-1.4425,-1.4497,-1.4569,-1.4649,-1.4991,-1.5013,-1.4727,-1.5446,-1.6035,-1.706,-1.7345,-1.7482,-1.7482,-1.7482,-1.7276,-1.7276,-1.756,-1.7969,-1.8172,-1.8721,-1.9131,-1.9131,-1.9131,-1.9131,-1.9131,-1.9131,-1.9131,-1.9131,-1.9096,-1.9189,-1.9505,-1.9998,-2.0552,-2.1453,-2.2154,-2.2763,-2.2738,-2.2781,-2.2923,-2.2997,-2.2884,-2.2915,-2.2648,-2.2531,-2.2344,-2.1839,-2.1629,-2.13,-2.1043,-2.0952,-2.0784,-2.0767,-2.0861,-2.1046,-2.1229,-2.1264,-2.1458,-2.1527,-2.1862,-2.1931,-2.2172,-2.2663,-2.2754,-2.3009,-2.3201,-2.3377,-2.3494,-2.3538,-2.361,-2.3872,-2.4119,-2.4227,-2.4302,-2.4287,-2.4354,-2.442,-2.4446,-2.4449,-2.4465,-2.4742,-2.4798,-2.4742,-2.4766,-2.4808,-2.476,-2.446,-2.456,-2.5179,-2.5756,-2.6155,-2.6416,-2.6584,-2.6686,-2.6652,-2.6674,-2.6708,-2.6691,-2.6691,-2.6742,-2.6742,-2.6708,-2.6708,-2.6825,-2.6825,-2.6741,-2.6708,-2.6708,-2.677,-1.2506,-1.3437,-1.4213,-1.4497,-1.4353,-1.4497,-1.4353,-1.4209,-1.4425,-1.4513,-1.4521,-1.4577,-1.4569,-1.4848,-1.5196,-1.5542,-1.5965,-1.6446,-1.6655,-1.6724,-1.6793,-1.6446,-1.6655,-1.7139,-1.755,-1.8104,-1.8721,-1.8998,-1.9131,-1.9131,-1.9131,-1.9131,-1.9131,-1.9131,-1.9131,-1.9131,-1.9193,-1.9225,-1.9358,-1.925,-1.9908,-2.072,-2.1391,-2.1689,-2.1875,-2.2013,-2.2237,-2.2555,-2.2944,-2.2987,-2.2698,-2.2513,-2.228,-2.2026,-2.1648,-2.136,-2.108,-2.0926,-2.0759,-2.064,-2.0688,-2.0699,-2.0649,-2.0733,-2.086,-2.0938,-2.1063,-2.1295,-2.1777,-2.2161,-2.2469,-2.2682,-2.2875,-2.2949,-2.2979,-2.3024,-2.3364,-2.3688,-2.3891,-2.4058,-2.4085,-2.4112,-2.4036,-2.4078,-2.4193,-2.4208,-2.4291,-2.4276,-2.4317,-2.4441,-2.4517,-2.4536,-2.4396,-2.4578,-2.4855,-2.5162,-2.5609,-2.5896,-2.6056,-2.6379,-2.6551,-2.6426,-2.6434,-2.6691,-2.6691,-2.6674,-2.6691,-2.6708,-2.6708,-2.6708,-2.6708,-2.6708,-2.6708,-2.6708,-2.6708,-1.1845,-1.3227,-1.4063,-1.4281,-1.4129,-1.4201,-1.4129,-1.4122,-1.4129,-1.4281,-1.4297,-1.4289,-1.4274,-1.4346,-1.4338,-1.4689,-1.5392,-1.5745,-1.5895,-1.5974,-1.5965,-1.5613,-1.5621,-1.6315,-1.701,-1.7765,-1.8586,-1.8998,-1.8931,-1.8998,-1.9131,-1.9131,-1.9131,-1.9131,-1.9131,-1.9131,-1.9131,-1.9131,-1.9131,-1.9131,-1.9264,-1.9877,-2.026,-2.0627,-2.0978,-2.1553,-2.199,-2.2175,-2.2628,-2.2907,-2.294,-2.2698,-2.2531,-2.2337,-2.2096,-2.172,-2.1431,-2.1115,-2.0939,-2.0656,-2.0655,-2.0498,-2.0549,-2.0699,-2.0782,-2.0782,-2.0877,-2.0975,-2.141,-2.1807,-2.2077,-2.2175,-2.2328,-2.2328,-2.2314,-2.242,-2.2615,-2.3076,-2.3465,-2.3496,-2.3511,-2.3349,-2.3054,-2.329,-2.3687,-2.3789,-2.4137,-2.4164,-2.4269,-2.428,-2.4291,-2.4271,-2.4266,-2.429,-2.4453,-2.4555,-2.4902,-2.5189,-2.5465,-2.5637,-2.5777,-2.5901,-2.602,-2.6071,-2.65,-2.6687,-2.6673,-2.6624,-2.6708,-2.6708,-2.6708,-2.6708,-2.6708,-2.6793,-2.6843]}]]